[[{"header":{"parameterUnit":"m.s-1","parameterCategory":1,"la1":30.6,"la2":28.766,"lo1":-90.7593,"lo2":-88.6598,"dy":0.0162,"dx":0.0183,"nx":116,"ny":114,"refTime":"2024-05-19T12:00:00:Z","depth":0,"parameterNumber":2,"parameterNumberName":"U-component_of_WINDS"},"data":[0.0,0.0,0.0,0.0,0.0,0.0,0.0,0.0,0.0,0.0,0.0,0.0,0.0,0.0,0.0,0.0,0.0,0.0,0.0,0.0,0.0,0.0,0.0,0.0,0.0,0.0,0.0,0.0,0.0,0.0,0.0,0.0,0.0,0.0,0.0,0.0,0.0,0.0,0.0,0.0,0.0,0.0,0.0,0.0,0.0,0.0,0.0,0.0,0.0,0.0,0.0,0.0,0.0,0.0,0.0,0.0,0.0,0.0,0.0,0.0,0.0,0.0,0.0,0.0,0.0,0.0,0.0,0.0,0.0,0.0,0.0,0.0,0.0,0.0,0.0,0.0,0.0,0.0,0.0,0.0,0.0,0.0,0.0,0.0,0.0,0.0,0.0,0.0,0.0,0.0,0.0,0.0,0.0,0.0,0.0,0.0,0.0,0.0,0.0,0.0,0.0,0.0,0.0,0.0,0.0,0.0,0.0,0.0,0.0,0.0,0.0,0.0,0.0,0.0,0.0,0.0,0.0,0.0,0.0,0.0,0.0,0.0,0.0,0.0,0.0,0.0,0.0,0.0,0.0,0.0,0.0,0.0,0.0,0.0,0.0,0.0,0.0,0.0,0.0,0.0,0.0,0.0,0.0,0.0,0.0,0.0,0.0,0.0,0.0,0.0,0.0,0.0,0.0,0.0,0.0,0.0,0.0,0.0,0.0,0.0,0.0,0.0,0.0,0.0,0.0,0.0,0.0,0.0,0.0,0.0,0.0,0.0,0.0,0.0,0.0,0.0,0.0,0.0,0.0,0.0,0.0,0.0,0.0,0.0,0.0,0.0,0.0,0.0,0.0,0.0,0.0,0.0,0.0,0.0,0.0,0.0,0.0,0.0,0.0,0.0,0.0,0.0,0.0,0.0,0.0,0.0,0.0,0.0,0.0,0.0,0.0,0.0,0.0,0.0,0.0,0.0,0.0,0.0,0.0,0.0,0.0,0.0,0.0,0.0,0.0,0.0,0.0,0.0,0.0,0.0,0.0,0.0,0.0,0.0,0.0,0.0,0.0,0.0,0.0,0.0,0.0,0.0,0.0,0.0,0.0,0.0,0.0,0.0,0.0,0.0,0.0,0.0,0.0,0.0,0.0,0.0,0.0,0.0,0.0,0.0,0.0,0.0,0.0,0.0,0.0,0.0,0.0,0.0,0.0,0.0,0.0,0.0,0.0,0.0,0.0,0.0,0.0,0.0,0.0,0.0,0.0,0.0,0.0,0.0,0.0,0.0,0.0,0.0,0.0,0.0,0.0,0.0,0.0,0.0,0.0,0.0,0.0,0.0,0.0,0.0,0.0,0.0,0.0,0.0,0.0,0.0,0.0,0.0,0.0,0.0,0.0,0.0,0.0,0.0,0.0,0.0,0.0,0.0,0.0,0.0,0.0,0.0,0.0,0.0,0.0,0.0,0.0,0.0,0.0,0.0,0.0,0.0,0.0,0.0,0.0,0.0,0.0,0.0,0.0,0.0,0.0,0.0,0.0,0.0,0.0,0.0,0.0,0.0,0.0,0.0,0.0,0.0,0.0,0.0,0.0,0.0,0.0,0.0,0.0,0.0,0.0,0.0,0.0,0.0,0.0,0.0,0.0,0.0,0.0,0.0,0.0,0.0,0.0,0.0,0.0,0.0,0.0,0.0,0.0,0.0,0.0,0.0,0.0,0.0,0.0,0.0,0.0,0.0,0.0,0.0,0.0,0.0,0.0,0.0,0.0,0.0,0.0,0.0,0.0,0.0,0.0,0.0,0.0,0.0,0.0,0.0,0.0,0.0,0.0,0.0,0.0,0.0,0.0,0.0,0.0,0.0,0.0,0.0,0.0,0.0,0.0,0.0,0.0,0.0,0.0,0.0,0.0,0.0,0.0,0.0,0.0,0.0,0.0,0.0,0.0,0.0,0.0,0.0,0.0,0.0,0.0,0.0,0.0,0.0,0.0,0.0,0.0,0.0,0.0,0.0,0.0,0.0,0.0,0.0,0.0,0.0,0.0,0.0,0.0,0.0,0.0,0.0,0.0,0.0,0.0,0.0,0.0,0.0,0.0,0.0,0.0,0.0,0.0,0.0,0.0,0.0,0.0,0.0,0.0,0.0,0.0,0.0,0.0,0.0,0.0,0.0,0.0,0.0,0.0,0.0,0.0,0.0,0.0,0.0,0.0,0.0,0.0,0.0,0.0,0.0,0.0,0.0,0.0,0.0,0.0,0.0,0.0,0.0,0.0,0.0,0.0,0.0,0.0,0.0,0.0,0.0,0.0,0.0,0.0,0.0,0.0,0.0,0.0,0.0,0.0,0.0,0.0,0.0,0.0,0.0,0.0,0.0,0.0,0.0,0.0,0.0,0.0,0.0,0.0,0.0,0.0,0.0,0.0,0.0,0.0,0.0,0.0,0.0,0.0,0.0,0.0,0.0,0.0,0.0,0.0,0.0,0.0,0.0,0.0,0.0,0.0,0.0,0.0,0.0,0.0,0.0,0.0,0.0,0.0,0.0,0.0,0.0,0.0,0.0,0.0,0.0,0.0,0.0,0.0,0.0,0.0,0.0,0.0,0.0,0.0,0.0,0.0,0.0,0.0,0.0,0.0,0.0,0.0,0.0,0.0,0.0,0.0,0.0,0.0,0.0,0.0,0.0,0.0,0.0,0.0,0.0,0.0,0.0,0.0,0.0,0.0,0.0,0.0,0.0,0.0,0.0,0.0,0.0,0.0,0.0,0.0,0.0,0.0,0.0,0.0,0.0,0.0,0.0,0.0,0.0,0.0,0.0,0.0,0.0,0.0,0.0,0.0,0.0,0.0,0.0,0.0,0.0,0.0,0.0,0.0,0.0,0.0,0.0,0.0,0.0,0.0,0.0,0.0,0.0,0.0,0.0,0.0,0.0,0.0,0.0,0.0,0.0,0.0,0.0,0.0,0.0,0.0,0.0,0.0,0.0,0.0,0.0,0.0,0.0,0.0,0.0,0.0,0.0,0.0,0.0,0.0,0.0,0.0,0.0,0.0,0.0,0.0,0.0,0.0,0.0,0.0,0.0,0.0,0.0,0.0,0.0,0.0,0.0,0.0,0.0,0.0,0.0,0.0,0.0,0.0,0.0,0.0,0.0,0.0,0.0,0.0,0.0,0.0,0.0,0.0,0.0,0.0,0.0,0.0,0.0,0.0,0.0,0.0,0.0,0.0,0.0,0.0,0.0,0.0,0.0,0.0,0.0,0.0,0.0,0.0,0.0,0.0,0.0,0.0,0.0,0.0,0.0,0.0,0.0,0.0,0.0,0.0,0.0,0.0,0.0,0.0,0.0,0.0,0.0,0.0,0.0,0.0,0.0,0.0,0.0,0.0,0.0,0.0,0.0,0.0,0.0,0.0,0.0,0.0,0.0,0.0,0.0,0.0,0.0,0.0,0.0,0.0,0.0,0.0,0.0,0.0,0.0,0.0,0.0,0.0,0.0,0.0,0.0,0.0,0.0,0.0,0.0,0.0,0.0,0.0,0.0,0.0,0.0,0.0,0.0,0.0,0.0,0.0,0.0,0.0,0.0,0.0,0.0,0.0,0.0,0.0,0.0,0.0,0.0,0.0,0.0,0.0,0.0,0.0,0.0,0.0,0.0,0.0,0.0,0.0,0.0,0.0,0.0,0.0,0.0,0.0,0.0,0.0,0.0,0.0,0.0,0.0,0.0,0.0,0.0,0.0,0.0,0.0,0.0,0.0,0.0,0.0,0.0,0.0,0.0,0.0,0.0,0.0,0.0,0.0,0.0,0.0,0.0,0.0,0.0,0.0,0.0,0.0,0.0,0.0,0.0,0.0,0.0,0.0,0.0,0.0,0.0,0.0,0.0,0.0,0.0,0.0,0.0,0.0,0.0,0.0,0.0,0.0,0.0,0.0,0.0,0.0,0.0,0.0,0.0,0.0,0.0,0.0,0.0,0.0,0.0,0.0,0.0,0.0,0.0,0.0,0.0,0.0,0.0,0.0,0.0,0.0,0.0,0.0,0.0,0.0,0.0,0.0,0.0,0.0,0.0,0.0,0.0,0.0,0.0,0.0,0.0,0.0,0.0,0.0,0.0,0.0,0.0,0.0,0.0,0.0,0.0,0.0,0.0,0.0,0.0,0.0,0.0,0.0,0.0,0.0,0.0,0.0,0.0,0.0,0.0,0.0,0.0,0.0,0.0,0.0,0.0,0.0,0.0,0.0,0.0,0.0,0.0,0.0,0.0,0.0,0.0,0.0,0.0,0.0,0.0,0.0,0.0,0.0,0.0,0.0,0.0,0.0,0.0,0.0,0.0,0.0,0.0,0.0,0.0,0.0,0.0,0.0,0.0,0.0,0.0,0.0,0.0,0.0,0.0,0.0,0.0,0.0,0.0,0.0,0.0,0.0,0.0,0.0,0.0,0.0,0.0,0.0,0.0,0.0,0.0,0.0,0.0,0.0,0.0,0.0,0.0,0.0,0.0,0.0,0.0,0.0,0.0,0.0,0.0,0.0,0.0,0.0,0.0,0.0,0.0,0.0,0.0,0.0,0.0,0.0,0.0,0.0,0.0,0.0,0.0,0.0,0.0,0.0,0.0,0.0,0.0,0.0,0.0,0.0,0.0,0.0,0.0,0.0,0.0,0.0,0.0,0.0,0.0,0.0,0.0,0.0,0.0,0.0,0.0,0.0,0.0,0.0,0.0,0.0,0.0,0.0,0.0,0.0,0.0,0.0,0.0,0.0,0.0,0.0,0.0,0.0,0.0,0.0,0.0,0.0,0.0,0.0,0.0,0.0,0.0,0.0,0.0,0.0,0.0,0.0,0.0,0.0,0.0,0.0,0.0,0.0,0.0,0.0,0.0,0.0,0.0,0.0,0.0,0.0,0.0,0.0,0.0,0.0,0.0,0.0,0.0,0.0,0.0,0.0,0.0,0.0,0.0,0.0,0.0,0.0,0.0,0.0,0.0,0.0,0.0,0.0,0.0,0.0,0.0,0.0,0.0,0.0,0.0,0.0,0.0,0.0,0.0,0.0,0.0,0.0,0.0,0.0,0.0,0.0,0.0,0.0,0.0,0.0,0.0,0.0,0.0,0.0,0.0,0.0,0.0,0.0,0.0,0.0,0.0,0.0,0.0,0.0,0.0,0.0,0.0,0.0,0.0,0.0,0.0,0.0,0.0,0.0,0.0,0.0,0.0,0.0,0.0,0.0,0.0,0.0,0.0,0.0,0.0,0.0,0.0,0.0,0.0,0.0,0.0,0.0,0.0,0.0,0.0,0.0,0.0,0.0,0.0,0.0,0.0,0.0,0.0,0.0,0.0,0.0,0.0,0.0,0.0,0.0,0.0,0.0,0.0,0.0,0.0,0.0,0.0,0.0,0.0,0.0,0.0,0.0,0.0,0.0,0.0,0.0,0.0,0.0,0.0,0.0,0.0,0.0,0.0,0.0,0.0,0.0,0.0,0.0,0.0,0.0,0.0,0.0,0.0,0.0,0.0,0.0,0.0,0.0,0.0,0.0,0.0,0.0,0.0,0.0,0.0,0.0,0.0,0.0,0.0,0.0,0.0,0.0,0.0,0.0,0.0,0.0,0.0,0.0,0.0,0.0,0.0,0.0,0.0,0.0,0.0,0.0,0.0,0.0,0.0,0.0,0.0,0.0,0.0,0.0,0.0,0.0,0.0,0.0,0.0,0.0,0.0,0.0,0.0,0.0,0.0,0.0,0.0,0.0,0.0,0.0,0.0,0.0,0.0,0.0,0.0,0.0,0.0,0.0,0.0,0.0,0.0,0.0,0.0,0.0,0.0,0.0,0.0,0.0,0.0,0.0,0.0,0.0,0.0,0.0,0.0,0.0,0.0,0.0,0.0,0.0,0.0,0.0,0.0,0.0,0.0,0.0,0.0,0.0,0.0,0.0,0.0,0.0,0.0,0.0,0.0,0.0,0.0,0.0,0.0,0.0,0.0,0.0,0.0,0.0,0.0,0.0,0.0,0.0,0.0,0.0,0.0,0.0,0.0,0.0,0.0,0.0,0.0,0.0,0.0,0.0,0.0,0.0,0.0,0.0,0.0,0.0,0.0,0.0,0.0,0.0,0.0,-1.3437,0.0,0.0,0.0,0.0,0.0,0.0,0.0,0.0,0.0,0.0,0.0,0.0,0.0,0.0,0.0,0.0,0.0,0.0,0.0,0.0,0.0,0.0,0.0,0.0,0.9403,0.9202,0.9064,0.8945,0.8818,0.8717,0.0,0.0,0.0,0.0,0.0,0.5892,0.5235,0.4102,0.2489,0.1619,-0.0013,-0.2273,-0.08,0.1179,0.3583,0.0,0.0,0.0,0.0,0.0,0.0,0.0,0.0,0.0,0.0,0.0,0.0,0.0,0.0,0.0,0.0,0.0,0.0,0.0,0.0,0.0,0.0,0.0,0.0,0.0,0.0,0.0,0.0,0.0,0.0,0.0,0.0,0.0,0.0,0.0,0.0,0.0,0.0,0.0,0.0,0.0,0.0,0.0,0.0,0.0,0.0,0.0,0.0,0.0,0.0,0.0,0.0,0.0,0.0,0.0,0.0,0.0,0.0,0.0,0.0,0.0,0.0,0.0,0.0,0.0,0.0,0.0,0.0,0.0,0.0,0.0,-1.395,0.0,0.0,0.0,0.0,0.0,0.0,0.0,0.0,0.0,0.0,0.0,0.0,0.0,0.0,0.0,0.0,0.0,0.0,0.0,0.0,0.0,0.9222,0.9224,0.8802,0.831,0.7771,0.7825,0.7691,0.7215,0.7411,0.0,0.0,0.0,0.4942,0.3363,0.2193,0.0875,-0.0625,-0.189,-0.396,-0.6687,-0.539,-0.2823,0.0774,0.3046,0.0,0.0,0.0,0.0,0.0,0.0,0.0,0.0,0.0,0.0,0.0,0.0,0.0,0.0,0.0,0.0,0.0,0.0,0.0,0.0,0.0,0.0,0.0,0.0,0.0,0.0,0.0,0.0,0.0,0.0,0.0,0.0,0.0,0.0,0.0,0.0,0.0,0.0,0.0,0.0,0.0,0.0,0.0,0.0,0.0,0.0,0.0,0.0,0.0,0.0,0.0,0.0,0.0,0.0,0.0,0.0,0.0,0.0,0.0,0.0,0.0,0.0,0.0,-1.7719,-1.7549,-1.8504,-1.7948,-1.8199,-1.8961,-1.6632,-1.5626,-1.5539,0.0,0.0,0.0,0.0,0.0,0.0,0.0,0.0,0.0,0.0,0.0,0.0,0.0,0.0,0.0,0.0,0.0,0.0,0.0,0.0,0.8737,0.8175,0.7249,0.5785,0.3607,0.4409,0.4378,0.2844,0.4365,0.0,0.0,0.3691,0.2494,0.1068,-0.0142,-0.178,-0.3879,-0.6462,-0.8333,-0.9542,-0.8647,-0.7512,-0.5947,-0.0219,0.2723,0.3496,0.0,0.0,0.0,0.0,0.0,0.0,0.0,0.0,0.0,0.0,0.0,0.0,0.0,0.0,0.0,0.0,0.0,0.0,0.0,0.0,0.0,0.0,0.0,0.0,0.0,0.0,0.0,0.0,0.0,0.0,0.0,0.0,0.0,0.0,0.0,0.0,0.0,0.0,0.0,0.0,0.0,-1.0136,-1.2297,0.0,0.0,0.0,0.0,0.0,0.0,0.0,0.0,0.0,0.0,0.0,0.0,0.0,-1.8506,-1.8962,-1.9314,-1.9737,-2.0279,-1.9767,-1.9761,-2.0166,-1.9798,-1.9713,-1.9816,-1.9469,0.0,-1.7093,-1.6743,0.0,0.0,0.0,0.0,0.0,0.0,0.0,0.0,0.0,0.0,0.0,0.0,0.0,0.0,0.0,0.0,0.0,0.0,0.0,0.0,0.0,0.4517,0.2869,0.174,0.1118,0.0639,0.0287,0.1161,0.1514,0.1134,0.0323,-0.0779,-0.2232,-0.3553,-0.5224,-0.7264,-0.9179,-1.0026,-0.9869,-0.9481,-0.879,-0.7737,-0.4228,-0.1472,0.063,0.2242,0.0,0.0,0.0,0.0,0.0,0.0,0.0,0.0,0.0,0.0,0.0,0.0,0.0,0.0,0.0,0.0,0.0,0.0,0.0,0.0,0.0,0.0,0.0,0.0,0.0,0.0,0.0,0.0,0.0,0.0,0.0,0.0,0.0,0.0,0.0,0.0,0.0,0.0,0.0,-0.9241,-1.3379,-1.4907,-1.5175,-1.5232,0.0,0.0,0.0,0.0,0.0,0.0,0.0,0.0,0.0,-1.8632,-1.9538,-2.035,-2.1047,-2.0723,-2.1153,-2.2287,-2.1528,-2.1399,-2.1749,-2.1575,-2.1429,-2.1285,-2.1285,-2.0634,-1.9488,-1.8715,-1.751,-1.6035,0.0,0.0,0.0,0.0,-1.3685,-1.3467,0.0,0.0,0.0,0.0,0.0,0.0,0.0,0.0,0.0,0.0,0.0,0.0,0.4185,0.1471,-0.0463,-0.0995,-0.2331,-0.301,0.0,-0.2105,-0.1928,-0.226,-0.2949,-0.3947,-0.528,-0.6715,-0.824,-0.9883,-1.0671,-1.0678,-0.999,-0.988,-0.9374,-0.8551,-0.7335,-0.5135,-0.225,-0.0322,0.1693,0.0,0.0,0.0,0.0,0.0,0.0,0.0,0.0,0.0,0.0,0.0,0.0,0.0,0.0,0.0,0.0,0.0,0.0,0.0,0.0,0.0,0.0,0.0,0.0,0.0,0.0,0.0,0.0,0.0,0.0,0.0,0.0,0.0,0.0,0.0,0.0,0.0,0.0,-1.2962,-1.5612,-1.6958,-1.735,-1.7493,0.0,0.0,0.0,0.0,0.0,0.0,-1.842,-1.9885,-2.0598,-2.0359,-2.1104,-2.1864,-2.2683,-2.1925,-2.2293,-2.3692,-2.2803,-2.2547,-2.2822,-2.2746,-2.2563,-2.231,-2.231,-2.1989,-2.1414,-2.0364,-1.9225,-1.8074,-1.7345,-1.6431,-1.5545,-1.5545,-1.5231,-1.4947,0.0,0.0,0.0,0.0,0.0,0.0,0.0,0.0,0.0,0.0,0.0,0.3244,0.1319,-0.1731,-0.4374,-0.6163,-0.6121,-0.6332,0.0,0.0,-0.4562,-0.4904,-0.5664,-0.655,-0.7519,-0.8978,-1.0222,-1.1205,-1.0818,-1.0713,-1.0831,-1.0516,-1.0132,-0.9665,-0.8574,-0.6962,-0.4865,-0.2612,-0.0925,0.0451,0.0,0.0,0.0,0.0,0.0,0.0,0.0,0.0,0.0,0.0,0.0,0.0,0.0,0.0,0.0,0.0,0.0,0.0,0.0,0.0,0.0,0.0,0.0,0.0,0.0,0.0,0.0,0.0,0.0,0.0,0.0,0.0,0.0,0.0,0.0,0.0,0.0,0.0,0.0,-1.8926,-1.9734,0.0,0.0,0.0,0.0,-1.9632,-2.0209,-2.0511,-2.0374,-2.1641,-2.2371,-2.2332,-2.283,-2.3124,-2.3159,-2.3124,-2.328,-2.3692,-2.3333,-2.3153,-2.3165,-2.2848,-2.2563,-2.231,-2.231,-2.2293,-2.2192,-2.1431,-2.0218,-1.886,-1.8799,-1.8267,-1.7533,-1.7533,-1.7518,-1.7503,0.0,0.0,0.0,0.0,0.0,0.8974,0.8998,0.8422,0.7315,0.5433,0.3505,0.1066,0.0,-0.5331,-0.7504,-0.8303,-0.9371,-0.9657,-0.885,0.0,-0.7595,-0.7665,-0.8037,-0.8665,-0.9609,-0.9808,-1.0233,-1.0909,-1.0435,-1.0048,-0.9739,-0.998,-0.9553,-0.8606,-0.8059,-0.6973,-0.5517,-0.4447,-0.2852,-0.0791,0.2062,0.3655,0.0,0.0,0.0,0.0,0.0,0.0,0.0,0.0,0.0,0.0,0.0,0.0,0.0,0.0,0.0,0.0,0.0,0.0,0.0,0.0,0.0,0.0,0.0,0.0,0.0,0.0,0.0,0.0,0.0,0.0,0.0,0.0,0.0,0.0,0.0,0.0,0.0,-1.9863,-2.1216,0.0,-2.2037,-2.1694,-2.145,-2.1413,-2.1879,-2.208,-2.1805,-2.2741,-2.3174,-2.2959,-2.3316,-2.3522,-2.3522,-2.3753,-2.3896,-2.4016,-2.3692,-2.3414,-2.3189,-2.2848,-2.2563,-2.231,-2.231,-2.231,-2.2293,-2.2023,-2.1423,-2.0554,-1.9892,-1.9279,-1.8726,-1.7977,-1.7697,-1.7697,0.0,0.0,0.0,0.0,0.8537,0.8457,0.8422,0.7652,0.6225,0.3889,0.1666,-0.1166,-0.4965,-0.8035,-0.9798,-0.9778,-1.1185,-1.1352,-0.9649,0.0,-0.9322,-0.9342,-0.9417,-0.9821,-1.0552,-1.0014,-0.9875,-1.0169,-0.9821,-0.9429,-0.8971,-0.9351,-0.901,-0.8036,-0.7603,-0.6819,-0.5776,-0.5101,-0.3767,-0.188,0.0706,0.2038,0.272,0.0,0.0,0.0,0.0,0.0,0.0,0.0,0.0,0.0,0.0,0.0,0.0,0.0,0.0,0.0,0.0,0.0,0.0,0.0,0.0,0.0,0.0,0.0,0.0,0.0,0.0,0.0,0.0,0.0,0.0,0.0,0.0,0.0,0.0,0.0,-1.9999,-2.1141,-2.2543,-2.3397,-2.3397,-2.3285,-2.3196,-2.3148,-2.3361,-2.3382,-2.3095,-2.3585,-2.3774,-2.3544,-2.3735,-2.3876,-2.3876,-2.4094,-2.419,-2.4208,-2.3876,-2.3522,-2.3189,-2.2848,-2.2563,-2.231,-2.231,-2.231,-2.231,-2.231,-2.2106,-2.1744,-2.0726,-2.0083,-1.9599,-1.8706,-1.8388,-1.8343,0.0,0.0,0.0,0.8211,0.7959,0.762,0.7301,0.651,0.4974,0.2291,-0.0433,-0.3418,-0.6812,-0.9683,-1.12,-1.0781,-1.1487,-1.1288,-0.9693,-0.9521,-0.9587,-0.9784,-0.9798,-0.9948,-1.0285,-0.9655,-0.9251,-0.9085,-0.8987,-0.8848,-0.867,-0.8767,-0.8574,-0.814,-0.7347,-0.6589,-0.5805,-0.4526,-0.3641,-0.2954,-0.1543,-0.0162,0.1076,0.0,0.0,0.0,0.0,0.0,0.0,0.0,0.0,0.0,0.0,0.0,0.0,0.0,0.0,0.0,0.0,0.0,0.0,0.0,0.0,0.0,0.0,0.0,0.0,0.0,0.0,0.0,0.0,0.0,0.0,0.0,0.0,0.0,-2.0194,-2.046,-2.1199,-2.2851,-2.3757,-2.4238,-2.4245,-2.4706,-2.4949,-2.4818,-2.4607,-2.441,-2.4209,-2.4226,-2.4226,-2.419,-2.4226,-2.4226,-2.419,-2.419,-2.419,-2.4208,-2.3876,-2.3544,-2.3189,-2.2873,-2.2563,-2.231,-2.231,-2.231,-2.231,-2.231,-2.231,-2.2209,-2.1354,-2.0748,-2.028,-1.9874,-1.9726,-1.9621,0.0,0.0,0.6971,0.6616,0.6413,0.6212,0.6031,0.5223,0.3693,0.1108,-0.1251,-0.4249,-0.8385,-0.9812,-1.0697,-1.1303,-1.1077,-1.0412,-0.9247,0.0,-0.9437,-0.9648,-0.9607,-0.9724,-0.9992,-0.8618,-0.8217,-0.8891,-0.8137,-0.7738,-0.7702,-0.8439,-0.8372,-0.7595,-0.7196,-0.634,-0.5181,-0.4351,-0.3483,-0.263,-0.2325,-0.1543,-0.055,0.0,0.0,0.0,0.0,0.0,0.0,0.0,0.0,0.0,0.0,0.0,0.0,0.0,0.0,0.0,0.0,0.0,0.0,0.0,0.0,0.0,0.0,0.0,0.0,0.0,0.0,0.0,0.0,0.0,0.0,0.0,0.0,-2.0046,-2.0263,-2.15,-2.2776,-2.3828,-2.4689,-2.52,-2.5143,-2.5103,-2.5,-2.4799,-2.4607,-2.441,-2.4209,-2.474,-2.4795,-2.4208,-2.4759,-2.4777,-2.4208,-2.419,-2.419,-2.419,-2.4094,-2.3774,-2.3189,-2.3093,-2.2781,-2.231,-2.231,-2.231,-2.231,-2.231,-2.231,-2.2237,-2.1675,-2.1368,-2.1197,-2.0797,-2.0431,-2.0074,0.0,0.6086,0.5814,0.54,0.5265,0.517,0.4973,0.4179,0.2704,0.0203,-0.2066,-0.4928,-0.8827,-0.9755,-1.0354,-1.096,-1.0648,-1.0002,-0.8977,0.0,-0.9351,-0.9476,-0.9243,-0.9055,-0.8899,-0.7635,-0.7106,-0.7388,-0.7018,-0.6945,-0.7186,-0.7796,-0.7787,-0.722,-0.6801,-0.5928,-0.4703,-0.4014,-0.3359,-0.2789,-0.2713,-0.2125,-0.1295,-0.172,-0.1642,-0.1147,0.0026,0.0881,0.1463,0.1714,0.0,0.0,0.0,0.0,0.0,0.0,0.0,0.0,0.0,0.0,0.0,0.0,0.0,0.0,0.0,0.0,0.0,0.0,0.0,0.0,0.0,0.0,0.0,0.0,-2.1421,-2.1881,-2.1883,-2.2873,-2.391,-2.47,-2.5269,-2.5567,-2.5517,-2.5335,-2.5109,-2.4814,-2.5005,-2.4998,-2.4705,-2.5456,-2.5695,-2.5217,-2.5328,-2.5182,-2.4704,-2.4373,-2.419,-2.419,-2.4074,-2.3714,-2.3189,-2.3045,-2.273,0.0,-2.231,-2.231,-2.231,-2.231,-2.231,0.0,0.0,0.0,0.0,0.0,-2.0431,-2.0035,0.0,0.5199,0.4725,0.4444,0.4451,0.4448,0.4241,0.3521,0.216,-0.0185,0.0,-0.514,-0.8223,-0.9308,-0.9859,-0.9955,-0.9996,-0.9641,0.0,0.0,-0.9257,-0.9238,-0.8821,-0.8223,-0.7465,-0.6812,-0.6135,-0.5463,-0.6034,-0.6573,-0.7044,-0.7168,-0.7185,-0.7046,-0.6384,-0.5444,-0.4326,-0.3622,-0.3237,-0.3039,-0.2694,-0.2119,-0.1534,-0.2171,-0.2527,-0.2675,-0.2485,-0.2019,-0.1329,-0.0554,0.0,0.0,0.0,0.0,0.0,0.0,0.0,0.0,0.0,0.0,0.0,0.0,0.0,0.0,0.0,0.0,0.0,0.0,0.0,0.0,0.0,0.0,0.0,0.0,-2.3125,-2.4127,-2.4215,-2.4355,-2.47,-2.5415,-2.5564,-2.5612,-2.5634,-2.5583,-2.5437,-2.5139,-2.5752,-2.5974,-2.5591,0.0,0.0,0.0,0.0,-2.5586,-2.5403,-2.4685,-2.4281,-2.4208,-2.3896,-2.3566,-2.3189,-2.2898,-2.259,-2.231,-2.231,-2.231,-2.231,-2.231,-2.231,-2.2254,-2.1823,-2.1688,-2.1598,-2.0732,-2.0227,-1.9909,0.0,0.4215,0.4266,0.3774,0.3875,0.4103,0.4263,0.3912,0.2956,0.107,-0.1076,-0.3461,-0.6185,-0.7391,-0.8153,-0.8483,-0.8315,-0.8224,0.0,0.0,-0.9045,-0.8817,-0.8579,-0.801,-0.7111,-0.6536,-0.6118,-0.5815,-0.6661,-0.7135,-0.7245,-0.7808,-0.7903,-0.7531,-0.6533,-0.5389,-0.4121,-0.3651,-0.3016,-0.2271,-0.1776,-0.193,-0.2295,-0.0996,-0.1415,-0.2685,-0.2645,-0.2561,-0.2442,-0.2582,-0.2648,-0.2442,-0.1254,0.0,0.0,0.0,0.0,0.0,0.0,0.0,0.0,0.0,0.0,0.0,0.0,0.0,0.0,0.0,0.0,0.0,0.0,0.0,0.0,-2.3378,-2.3898,-2.4321,-2.4986,-2.5175,-2.5338,-2.5474,-2.5605,-2.5906,-2.6481,-2.6537,-2.6688,-2.7033,-2.6995,-2.6864,-2.6619,-2.7216,0.0,-2.6631,-2.7071,-2.6704,-2.5421,-2.5256,-2.4832,-2.419,0.0,0.0,-2.3189,-2.3141,-2.2807,-2.231,-2.231,-2.231,-2.231,-2.231,-2.231,-2.2282,-2.2209,-2.2163,-2.2106,-2.1552,-2.129,-2.1134,0.4195,0.4069,0.4011,0.37,0.4094,0.4555,0.4864,0.4593,0.3832,0.2387,0.0366,-0.1692,-0.3636,-0.4654,-0.5331,-0.5677,-0.6466,0.0,0.0,-0.8682,-0.9032,-0.9001,-0.8487,-0.7819,-0.7019,-0.6389,-0.5943,-0.5704,-0.6568,-0.7014,-0.707,-0.766,-0.7649,-0.7071,-0.6149,-0.5074,-0.3917,-0.3355,-0.274,-0.2097,-0.1378,-0.1738,-0.2511,-0.0699,-0.0561,-0.1392,-0.1828,-0.2235,-0.2605,-0.2889,-0.3149,-0.3298,-0.2992,-0.1155,0.091,0.0,0.0,0.0,0.0,0.0,0.0,0.0,0.0,0.0,0.0,0.0,0.0,0.0,0.0,-2.0092,0.0,0.0,-2.3306,-2.4508,-2.472,-2.4885,-2.5255,-2.5427,-2.5493,-2.5493,-2.5629,-2.5813,-2.6121,-2.6548,-2.6827,-2.6937,-2.7483,-2.7708,-2.7513,-2.8067,-2.8227,-2.7824,-2.7805,-2.7218,-2.6007,-2.5605,-2.5017,-2.419,-2.419,-2.3937,-2.3437,-2.3277,-2.294,-2.25,-2.2377,-2.231,-2.231,-2.231,-2.231,-2.231,-2.231,-2.2163,-2.1928,-2.1688,-2.146,-2.1213,0.5111,0.4613,0.4231,0.4051,0.4668,0.5325,0.5726,0.5568,0.4983,0.3892,0.2084,0.0416,-0.0869,-0.1802,-0.2519,0.0,0.0,0.0,0.0,-0.8365,-0.896,-0.913,-0.8509,-0.7795,-0.7032,-0.6427,-0.5993,-0.572,-0.6462,-0.6889,-0.6976,-0.7331,-0.7109,-0.6447,-0.5646,-0.4681,-0.3615,-0.3005,-0.2546,-0.2154,-0.1503,-0.1631,-0.2021,-0.0546,-0.0,-0.0096,-0.0807,-0.1341,-0.1812,-0.222,-0.2481,-0.2687,-0.3043,-0.2194,-0.1008,-0.0742,0.1041,0.0,0.0,0.0,0.0,0.0,0.0,0.0,0.0,0.0,-1.7545,-1.9241,-2.0249,-2.1269,-2.2817,-2.3843,-2.4631,-2.5215,-2.5363,-2.5387,-2.5303,-2.5394,-2.5498,-2.5508,-2.5629,-2.5774,-2.5985,-2.6645,-2.7067,-2.7089,-2.793,-2.8421,-2.8409,-2.8645,-2.8851,-2.8994,-2.8227,-2.7402,-2.6612,-2.5786,-2.5017,-2.419,-2.419,-2.4016,-2.3692,-2.3414,-2.3069,-2.2695,-2.2426,-2.231,-2.231,-2.231,-2.231,-2.231,-2.231,-2.2077,-2.1735,-2.1735,-2.1538,-2.115,0.0,0.5994,0.5505,0.4963,0.5426,0.6104,0.6735,0.7,0.6772,0.5803,0.4551,0.3248,0.1974,0.0544,-0.0808,0.0,0.0,0.0,-0.6025,-0.7584,-0.8512,-0.8584,-0.8606,-0.8153,-0.7102,-0.7005,-0.6806,-0.648,-0.7044,-0.7408,-0.7587,-0.7229,-0.6841,-0.6359,-0.532,-0.4252,-0.3181,-0.3018,-0.266,-0.2218,-0.2415,-0.1605,-0.0275,-0.0088,-0.0,-0.0,-0.0112,0.0137,0.0363,-0.0743,-0.0842,-0.0485,-0.0181,-0.0126,0.01,0.1268,0.0,0.1095,0.0633,-0.3192,-0.8009,-1.1958,-1.4155,-1.5725,0.0,0.0,-1.9247,-2.1048,-2.2056,-2.292,-2.3932,-2.4798,-2.536,-2.5394,-2.5406,-2.5376,-2.5303,-2.5352,-2.5434,-2.5484,-2.5629,-2.626,-2.7662,-2.7898,-2.8504,-2.984,-2.9041,-2.8789,-2.949,-2.8509,-2.8264,-2.8975,-2.8227,-2.7402,-2.6612,-2.5786,-2.5017,-2.419,-2.419,-2.4016,-2.3692,-2.3671,-2.33,-2.2695,-2.2426,-2.231,-2.231,-2.231,-2.231,-2.231,-2.231,-2.2282,-2.2209,-2.2209,-2.218,-2.2049,0.0,0.6604,0.6236,0.597,0.6298,0.6787,0.7372,0.762,0.762,0.7267,0.6406,0.5548,0.4782,0.3311,0.1775,0.0279,0.0,0.0,-0.5126,-0.6907,-0.8169,-0.8827,-0.8896,-0.8629,-0.7998,-0.7518,-0.7095,-0.6713,-0.7063,-0.6904,-0.6312,-0.643,-0.6135,-0.5497,-0.4732,-0.3624,-0.2315,-0.1933,-0.1742,-0.1688,-0.1815,-0.1121,-0.0,-0.0,-0.0,0.0096,0.0809,0.1202,0.0,0.0,0.1187,0.078,0.1694,0.1926,0.1933,0.2317,0.1179,0.0,-0.3981,-0.7567,-1.094,0.0,-1.5188,-1.6884,-1.742,-1.8628,-2.0147,-2.1914,-2.2604,-2.3333,-2.4744,-2.5305,-2.5543,0.0,-2.5484,-2.5662,-2.6056,-2.5737,-2.5651,-2.6198,-2.5882,-2.6088,-2.7234,-2.734,-2.7794,-2.8854,-2.8203,-2.8091,-2.8904,-2.8233,-2.8172,-2.8957,-2.8686,-2.7897,-2.6612,-2.6264,-2.5456,-2.419,-2.419,-2.4132,-2.3996,-2.3795,-2.3346,-2.2695,-2.2426,-2.231,-2.231,-2.231,-2.231,-2.231,-2.231,-2.231,-2.231,-2.231,-2.231,-2.2209,0.0,0.6822,0.651,0.6599,0.6704,0.6995,0.7679,0.7918,0.8075,0.8221,0.7753,0.721,0.6746,0.5454,0.4017,0.2492,0.0643,-0.1406,0.0,-0.5766,-0.7404,-0.8479,-0.8769,-0.8792,-0.8542,-0.786,-0.7296,-0.6867,-0.6919,-0.619,-0.4754,-0.4838,-0.4535,-0.3882,-0.3453,-0.2528,-0.127,-0.0591,-0.0434,-0.0623,-0.0671,-0.0302,0.0277,0.0443,0.0588,0.086,0.189,0.2352,0.0,0.0,0.3014,0.2271,0.3288,0.3523,0.3287,0.2675,0.0363,-0.3068,-0.7933,-1.0508,0.0,-1.3489,-1.5536,-1.7204,-1.7192,-1.8669,-2.0438,-2.1929,-2.2562,-2.3337,-2.4884,-2.5412,-2.5576,-2.5506,-2.554,-2.5765,-2.6295,-2.5865,-2.5746,-2.6398,-2.5951,-2.5915,-2.6729,-2.6796,-2.7103,-2.7834,-2.7271,-2.7223,-2.8037,-2.749,-2.7512,-2.8297,-2.8136,-2.7457,-2.6282,-2.6043,-2.5346,-2.419,-2.419,-2.419,-2.419,-2.3837,-2.3392,-2.2822,-2.2527,-2.236,-2.231,-2.231,-2.231,-2.231,-2.231,-2.231,-2.231,-2.231,-2.231,-2.2237,0.0,0.0,0.6289,0.6552,0.6388,0.6554,0.7563,0.7919,0.8209,0.8543,0.8447,0.8129,0.7533,0.6555,0.5422,0.4135,0.2316,0.0482,-0.1294,-0.3949,-0.5932,-0.7013,-0.7928,-0.8414,-0.8407,-0.8003,-0.754,-0.6989,-0.6675,-0.5438,-0.3328,-0.2322,-0.1678,-0.1406,-0.1248,-0.0767,-0.0,0.08,0.1136,0.11,0.0901,0.0851,0.094,0.1519,0.2066,0.2594,0.3217,0.0,0.0,0.0,0.4337,0.4373,0.4818,0.445,0.0,0.2381,-0.1111,-0.5505,-0.9777,0.0,-1.1866,-1.4103,-1.5929,-1.7142,-1.6965,-1.8413,-2.0047,-2.089,-2.1991,-2.3125,-2.4159,-2.5032,-2.5574,-2.5508,-2.5508,-2.5502,-2.5526,-2.5527,-2.5531,-2.5634,-2.5601,-2.5915,0.0,-2.6796,-2.7103,-2.7834,-2.6738,-2.639,-2.7185,-2.6117,-2.5823,-2.6649,-2.5915,-2.5495,-2.5439,-2.4649,-2.4245,-2.419,-2.419,-2.419,-2.419,-2.3837,-2.3522,-2.3165,-2.2822,-2.2537,-2.231,-2.231,-2.231,-2.231,-2.231,-2.231,-2.231,-2.231,-2.231,-2.2237,0.0,0.0,0.0,0.6552,0.626,0.6312,0.723,0.768,0.8032,0.8422,0.8554,0.0,0.0,0.0,0.0,0.0,0.33,0.1655,-0.0176,-0.1596,-0.2738,-0.3643,-0.3985,-0.3916,-0.3442,-0.2903,-0.2347,-0.176,-0.1421,-0.0636,0.0546,0.0653,0.0688,0.0704,0.1023,0.1787,0.2869,0.3136,0.296,0.2524,0.2441,0.2698,0.3117,0.3306,0.3924,0.4713,0.0,0.0,0.0,0.5169,0.5218,0.5302,0.552,0.0,0.0,-0.1752,-0.4735,-0.7513,-1.0672,0.0,-1.2917,-1.4088,-1.519,-1.6032,-1.6076,-1.7129,-1.8537,-2.0189,-2.0967,-2.1959,-2.3924,-2.4541,-2.492,-2.5476,-2.5576,-2.5761,-2.635,-2.6422,-2.6448,-2.6454,-2.6419,0.0,0.0,0.0,0.0,-2.6987,-2.5982,-2.5655,-2.6378,-2.589,-2.5909,-2.6576,-2.6337,-2.5933,-2.5421,-2.5146,-2.4722,-2.419,-2.419,-2.419,-2.419,-2.3837,-2.3522,-2.3165,-2.2848,-2.2537,-2.231,-2.231,-2.231,-2.231,-2.231,-2.231,-2.231,-2.231,-2.231,-2.2282,0.0,0.0,0.0,0.0,0.0,0.0,0.0,0.0,0.0,0.0,0.0,0.0,0.0,0.0,0.0,0.0,0.0,0.2879,0.1471,0.0,-0.0352,-0.1115,-0.1168,-0.1023,-0.0695,0.0707,0.1659,0.2156,0.3591,0.4286,0.4238,0.3945,0.3607,0.3264,0.334,0.3912,0.4819,0.4759,0.4463,0.4016,0.4101,0.4342,0.4664,0.4742,0.5262,0.0,0.0,0.0,0.0,0.6365,0.5652,0.4805,0.4934,0.2458,-0.1231,-0.5072,-0.7371,-0.9198,-1.1718,-1.2884,-1.3571,-1.4384,-1.5106,-1.5626,-1.5716,-1.6441,-1.7536,-1.9059,-1.9788,-2.0874,-2.3164,-2.3907,-2.4433,-2.5289,-2.5483,-2.5843,-2.6776,-2.6638,-2.6558,-2.6901,-2.6908,-2.663,0.0,0.0,0.0,-2.616,-2.5723,-2.5494,-2.5582,-2.566,-2.5709,-2.5731,-2.6025,-2.5768,-2.498,-2.498,-2.4704,-2.419,-2.419,-2.419,-2.419,-2.3976,-2.3692,-2.3369,-2.3021,-2.273,-2.2453,-2.2349,-2.231,-2.231,-2.231,-2.231,-2.231,-2.231,-2.231,-2.231,0.0,0.0,0.0,0.0,0.0,0.0,0.0,0.0,0.0,0.0,0.0,0.0,0.0,0.0,0.0,0.0,0.0,0.0,0.0,0.0,0.0,0.0727,0.0657,0.0476,0.0146,0.2841,0.4376,0.4652,0.7896,0.879,0.7487,0.7331,0.689,0.6182,0.5675,0.5607,0.5885,0.5698,0.5608,0.5608,0.5799,0.5762,0.5625,0.5816,0.0,0.0,0.0,0.0,0.0,0.0,0.0,0.0,0.0,0.0,-0.5701,-0.7441,-0.8978,-1.0621,-1.2882,-1.3561,-1.3883,-1.499,-1.5609,-1.5904,-1.5737,-1.6261,-1.6957,-1.7449,-1.8513,-1.9909,0.0,0.0,-2.4072,-2.4889,-2.523,-2.5738,-2.6763,-2.6227,-2.606,0.0,0.0,0.0,0.0,0.0,0.0,-2.5592,0.0,-2.5958,-2.5003,-2.5415,-2.5263,-2.432,-2.498,-2.498,-2.4208,-2.419,-2.419,-2.419,-2.419,-2.419,-2.419,-2.419,-2.4016,-2.3671,-2.3346,-2.2996,-2.266,-2.2398,-2.231,-2.231,-2.231,-2.231,-2.231,-2.231,-2.231,-2.231,0.0,0.0,0.0,0.0,0.0,0.0,0.0,0.0,0.0,0.0,0.0,0.0,0.0,0.0,0.0,0.0,0.0,0.0,0.0,0.0,0.0,0.0,0.0,0.5434,0.609,0.702,0.7679,0.8042,0.8865,0.9045,0.8593,0.8353,0.8044,0.7657,0.7414,0.727,0.7212,0.7161,0.7023,0.6841,0.0,0.6926,0.7064,0.0,0.0,0.0,0.0,0.0,0.0,0.0,0.0,0.0,0.0,-0.5507,-0.8959,0.0,0.0,-1.2237,-1.3289,-1.4335,-1.5067,-1.4793,-1.4874,-1.4891,-1.4408,-1.4934,-1.5517,-1.561,-1.7079,-1.8682,0.0,0.0,0.0,-2.382,-2.4649,0.0,-2.6741,-2.7264,0.0,-2.793,0.0,-2.8596,-2.7914,-2.8507,0.0,0.0,-2.7421,-2.7316,-2.6917,-2.6269,-2.5745,-2.5335,-2.4782,-2.441,-2.419,-2.419,-2.419,-2.419,-2.419,-2.419,-2.419,-2.419,-2.3876,-2.3305,-2.3253,-2.2908,-2.2415,-2.2321,-2.231,-2.231,-2.231,-2.231,-2.231,-2.231,-2.231,-2.231,0.0,0.0,0.0,0.0,0.0,0.0,0.0,0.0,0.0,0.0,0.0,0.0,0.0,0.0,0.0,0.0,0.0,0.0,0.0,0.0,0.0,0.0,0.7097,0.7761,0.8371,0.8822,0.9176,0.0,0.0,0.0,0.9396,0.9158,0.8982,0.8884,0.8674,0.854,0.8483,0.8433,0.0,0.0,0.0,0.0,0.0,0.0,0.0,0.0,0.0,0.0,0.0,0.0,0.0,-0.4707,-0.6875,-0.926,-1.1339,-1.1857,0.0,-1.3407,-1.4004,-1.4598,-1.4995,-1.4779,-1.418,-1.3579,-1.3247,-1.3937,-1.4562,-1.43,-1.6062,0.0,-1.9049,0.0,0.0,0.0,0.0,0.0,-2.6693,-2.7277,-2.761,0.0,-2.8806,0.0,-2.8296,-2.9201,-2.9655,0.0,-2.8685,-2.818,-2.7631,-2.691,-2.6258,-2.5719,-2.5079,-2.4557,-2.419,-2.419,-2.419,-2.419,-2.419,-2.419,-2.419,-2.419,-2.3996,-2.361,0.0,-2.3014,-2.266,-2.2405,-2.231,-2.231,-2.231,-2.231,-2.231,-2.231,-2.231,-2.231,0.0,0.0,0.0,0.0,0.0,0.0,0.0,0.0,0.0,0.0,0.0,0.0,0.0,0.0,0.0,0.0,0.0,0.0,0.0,0.0,0.0,0.0,0.7818,0.8371,0.8558,0.9184,0.9532,0.0,0.0,0.0,0.0,0.0,0.0,0.0,0.0,0.0,0.0,0.0,0.0,0.0,0.0,0.0,0.0,0.0,0.0,0.0,0.0,0.0,0.0,0.0,-0.2823,-0.5898,-0.9889,-1.1841,-1.2832,-1.3593,-1.3898,-1.4101,-1.4703,-1.4555,-1.4306,-1.4622,-1.3512,-1.2348,-1.2217,-1.3193,-1.3945,-1.3302,0.0,-1.74,-1.8518,-1.9919,-2.1334,-2.2648,0.0,-2.5198,-2.6553,-2.6748,-2.6852,-2.7127,-2.8594,-2.9276,-2.8457,-2.9799,-3.0657,-3.0521,-2.9641,-2.8733,-2.7848,-2.7447,-2.6723,-2.5571,-2.5337,-2.4925,-2.4208,-2.419,-2.419,-2.419,-2.419,-2.419,-2.419,-2.419,-2.417,-2.4094,0.0,0.0,-2.3093,-2.2535,-2.231,-2.231,-2.231,-2.231,-2.231,-2.231,-2.231,-2.231,0.0,0.0,0.0,0.0,0.0,0.0,0.0,0.0,0.0,0.0,0.8124,0.7694,0.0,0.0,0.0,0.0,0.0,0.0,0.0,0.0,0.0,0.0,0.8069,0.8497,0.8908,0.0,0.0,0.0,0.0,0.0,0.0,0.0,0.0,0.0,0.0,0.0,0.0,0.0,0.0,0.0,0.0,0.0,0.0,0.0,0.0,0.0,0.0,0.0,0.0,0.0,-0.3052,-0.6861,-0.9905,-1.1643,-1.272,-1.3671,-1.389,-1.3942,-1.4494,-1.4514,-1.4158,-1.338,-1.2961,-1.2453,-1.14,-1.2516,0.0,0.0,-1.4334,-1.6226,-1.5824,-1.7692,-1.9721,-2.1015,0.0,0.0,0.0,0.0,-2.6907,0.0,0.0,0.0,0.0,0.0,0.0,0.0,0.0,-2.9081,-2.8848,-2.8001,-2.665,-2.4771,-2.4506,-2.4337,-2.419,-2.419,-2.419,-2.419,-2.419,-2.419,-2.419,-2.419,-2.4054,-2.3756,-2.3369,0.0,-2.2772,-2.2426,-2.231,-2.231,-2.231,-2.231,-2.231,-2.231,-2.231,-2.231,0.0,0.0,0.0,0.0,0.0,0.0,0.0,0.7821,0.825,0.8474,0.8551,0.8316,0.7594,0.6971,0.6535,0.0,0.0,0.0,0.0,0.0,0.0,0.0,0.0,0.8823,0.0,0.0,0.0,0.0,0.0,0.0,0.0,0.0,0.0,0.0,0.0,0.0,0.0,0.0,0.0,0.0,0.0,0.0,0.0,0.0,0.0,0.0,0.0,0.0,0.0,0.0,-0.1825,-0.5736,-0.9383,-1.1851,-1.3532,-1.4268,-1.4469,-1.4556,-1.4967,-1.4611,-1.4019,-1.3529,-1.2499,-1.1485,-1.1102,0.0,0.0,0.0,-1.4288,-1.6057,-1.5423,-1.6927,0.0,0.0,0.0,0.0,0.0,0.0,0.0,0.0,0.0,0.0,0.0,0.0,0.0,0.0,0.0,-2.8764,-2.9085,-2.7618,-2.6065,-2.4549,-2.4303,-2.419,-2.419,-2.419,-2.419,-2.419,-2.419,-2.419,-2.419,-2.419,-2.4113,-2.3937,-2.3628,0.0,-2.2947,-2.2625,-2.2426,-2.231,-2.231,-2.231,-2.231,-2.231,-2.231,-2.231,0.0,0.0,0.0,0.0,0.0,0.0,0.0,0.8175,0.8724,0.8634,0.8991,0.8947,0.8155,0.7287,0.6774,0.0,0.0,0.0,0.0,0.0,0.0,0.0,0.0,0.0,0.0,0.0,0.0,0.0,0.0,0.0,0.0,0.0,0.0,0.0,0.0,0.0,0.0,0.0,0.0,0.0,0.0,0.0,0.0,0.0,0.0,0.0,0.0,0.0,0.0,0.0,-0.0101,-0.3794,-0.7797,-1.1176,-1.3762,-1.4391,-1.4756,-1.501,-1.528,-1.4562,-1.3697,-1.3689,-1.2124,-1.0738,-1.1348,-1.2323,0.0,0.0,-1.4451,-1.5817,-1.5415,0.0,-1.7787,0.0,-2.1082,0.0,0.0,0.0,0.0,0.0,0.0,0.0,0.0,0.0,0.0,0.0,0.0,0.0,-2.8546,-2.6797,-2.5416,-2.4578,-2.4375,-2.4247,-2.419,-2.419,-2.419,-2.419,-2.419,-2.419,-2.419,-2.419,-2.419,-2.417,-2.3774,0.0,0.0,-2.2789,-2.2473,-2.231,-2.231,-2.231,-2.231,-2.231,-2.231,-2.231,0.0,0.0,0.0,0.0,0.0,0.0,0.0,0.8359,0.8778,0.9238,0.9199,0.9083,0.8991,0.7997,0.7331,0.0,0.0,0.0,0.0,0.0,0.0,0.0,0.0,0.0,0.0,0.0,0.0,0.0,0.0,0.0,0.0,0.0,0.0,0.0,0.0,0.0,0.0,0.0,0.0,0.0,0.0,0.0,0.0,0.0,0.0,0.0,0.0,0.0,0.0,0.0,0.0,-0.1607,-0.4208,-0.8161,-1.2053,-1.319,0.0,0.0,-1.4866,-1.4044,-1.3003,-1.2718,-1.169,-1.1109,-1.2443,0.0,0.0,-1.3804,-1.4372,-1.4652,-1.4612,-1.555,-1.7024,0.0,0.0,-2.1893,0.0,0.0,0.0,0.0,0.0,0.0,0.0,0.0,0.0,0.0,0.0,0.0,-2.6842,-2.5731,-2.4987,-2.4775,-2.4594,-2.4393,-2.419,-2.419,-2.419,-2.419,-2.419,-2.419,-2.419,-2.419,-2.419,-2.417,-2.3522,0.0,0.0,-2.2571,-2.2321,-2.231,-2.231,-2.231,-2.231,-2.231,-2.231,-2.231,0.0,0.0,0.0,0.0,0.0,0.0,0.7855,0.8485,0.8983,0.9242,0.9465,0.9572,0.9578,0.8889,0.8139,0.7456,0.0,0.0,0.0,0.0,0.0,0.0,0.0,0.0,0.0,0.0,0.0,0.0,0.0,0.0,0.0,0.0,0.0,0.0,0.0,0.0,0.0,0.0,0.0,0.0,0.0,0.0,0.0,0.0,0.0,0.0,0.0,0.0,0.0,0.0,0.0,0.0,-0.1518,-0.4726,0.0,0.0,-1.3004,-1.3847,-1.5154,-1.4558,-1.3649,-1.3849,-1.314,-1.2718,-1.3839,0.0,-1.4277,-1.491,-1.4911,-1.4746,-1.454,-1.5198,-1.6297,-1.7856,-1.9852,-2.1589,-2.2744,0.0,0.0,0.0,0.0,0.0,0.0,0.0,0.0,0.0,0.0,0.0,-2.5884,-2.5308,-2.4974,-2.493,-2.4771,-2.4639,-2.4559,-2.4559,-2.4559,-2.4561,-2.4426,-2.4375,-2.4375,-2.4266,-2.419,-2.419,-2.3917,0.0,0.0,-2.2958,-2.2624,-2.231,-2.231,-2.231,-2.231,-2.231,-2.231,-2.231,0.0,0.0,0.0,0.0,0.0,0.7771,0.788,0.8545,0.91,0.9289,0.9654,0.9931,1.0033,0.9628,0.8985,0.8134,0.7901,0.0,0.0,0.0,0.0,0.0,0.0,0.0,0.0,0.0,0.0,0.0,0.0,0.0,0.0,0.0,0.0,0.0,0.0,0.0,0.0,0.0,0.0,0.0,0.0,0.0,0.0,0.0,0.0,0.0,0.0,0.0,0.0,0.0,0.0,0.0,0.0,0.0,0.0,0.0,-1.1731,-1.2995,-1.4867,-1.4953,-1.4625,-1.5108,-1.4712,-1.4519,0.0,-1.5798,-1.5733,-1.6207,-1.5773,-1.5198,-1.488,-1.5507,-1.6378,-1.7355,-1.9833,-2.1789,-2.2256,-2.3909,0.0,0.0,0.0,0.0,0.0,0.0,0.0,0.0,0.0,0.0,0.0,-2.5225,-2.5083,-2.4991,-2.4917,-2.4842,-2.4804,-2.4804,-2.4804,-2.4804,-2.4654,-2.4561,-2.4495,-2.4339,-2.4266,-2.419,0.0,0.0,0.0,-2.3236,-2.2908,-2.2426,-2.2426,-2.236,-2.231,-2.231,-2.231,-2.231,0.0,0.0,0.0,0.0,0.0,0.0,0.8055,0.856,0.9065,0.9534,0.9763,1.0022,1.0368,1.0084,0.9792,0.9593,0.8491,0.0,0.0,0.0,0.0,0.0,0.0,0.0,0.0,0.0,0.0,0.0,0.0,0.0,0.0,0.0,0.0,0.0,0.0,0.0,0.0,0.0,0.0,0.0,0.0,0.0,0.0,0.0,0.0,0.0,0.0,0.0,0.0,0.0,0.0,0.0,0.0,0.0,0.0,0.0,-1.0098,-1.1987,-1.3662,-1.4937,-1.5848,-1.6113,-1.604,-1.636,-1.8153,-1.7374,-1.6609,-1.7738,-1.6925,-1.5902,-1.5647,-1.6535,-1.7492,-1.8175,-2.0595,-2.2555,-2.3029,-2.4198,0.0,0.0,0.0,0.0,0.0,0.0,0.0,0.0,0.0,0.0,0.0,-2.5441,-2.5271,-2.5022,-2.501,-2.4924,-2.4804,-2.4804,-2.4804,-2.4804,-2.4804,-2.4685,-2.4495,-2.4495,-2.4393,0.0,0.0,0.0,0.0,-2.3346,-2.2996,-2.2695,-2.2695,-2.2537,-2.231,-2.231,-2.231,-2.231,0.0,0.0,0.0,0.0,0.0,0.0,0.0,0.8233,0.8652,0.9493,0.9377,0.9508,1.0315,1.0084,0.983,0.9606,0.8966,0.0,0.0,0.0,0.0,0.0,0.0,0.0,0.0,0.0,1.0636,1.0893,1.1443,1.1856,0.0,0.0,0.0,0.0,0.0,0.0,0.0,0.0,0.0,0.0,0.0,0.0,0.0,0.0,0.0,0.0,0.0,0.0,0.0,0.0,0.0,0.0,0.0,0.0,0.0,-0.5148,-0.7934,0.0,-1.2565,-1.367,-1.4447,-1.5306,-1.5471,-1.5818,-1.7358,-1.7399,-1.7331,-1.8111,-1.7455,-1.6643,-1.6276,-1.6581,-1.7287,-1.8443,-2.0322,0.0,0.0,0.0,0.0,0.0,0.0,0.0,0.0,0.0,0.0,0.0,0.0,0.0,0.0,-2.5441,-2.5343,-2.5214,-2.5203,-2.5182,-2.5138,-2.5138,-2.5138,-2.5138,-2.4993,-2.485,-2.47,-2.4559,0.0,0.0,0.0,0.0,0.0,-2.3346,-2.2996,-2.2669,-2.25,-2.236,-2.231,-2.231,-2.231,-2.231,0.0,0.0,0.0,0.0,0.0,0.0,0.0,0.8023,0.8304,0.9087,0.901,0.9232,1.016,1.0031,0.9981,1.0208,0.9643,0.0,0.0,0.0,0.0,0.0,0.0,0.0,0.0,1.0436,1.1115,1.143,1.2251,1.2826,1.3161,1.3161,0.0,0.0,0.0,0.0,0.0,0.0,0.0,0.0,0.0,0.0,0.0,0.0,0.0,0.0,0.0,0.0,0.0,0.0,0.0,0.0,0.0,0.0,0.0,0.0,-0.6631,-0.9224,0.0,-1.3025,-1.4173,-1.5082,-1.5616,-1.6258,-1.7509,-1.7819,-1.8002,-1.8577,-1.8126,-1.7484,-1.7166,-1.7401,-1.7973,-1.8967,-2.0662,0.0,0.0,0.0,0.0,0.0,0.0,0.0,0.0,0.0,0.0,0.0,0.0,0.0,0.0,-2.5463,-2.542,-2.5339,-2.5313,-2.5303,-2.5303,-2.5303,-2.5303,-2.5303,-2.5163,-2.503,-2.4864,-2.4682,0.0,0.0,0.0,0.0,0.0,-2.3671,-2.3392,-2.3045,-2.2747,-2.2571,-2.2453,-2.2349,-2.231,-2.231,0.0,0.0,0.0,0.0,0.0,0.0,0.0,0.7899,0.8035,0.8441,0.873,0.9179,0.9888,0.9945,1.0285,1.1182,0.0,0.0,0.0,0.0,0.0,0.0,0.0,0.0,0.0,1.0679,1.1625,1.2365,1.3258,1.4082,1.4895,1.4895,1.4437,1.3579,0.0,0.0,0.0,0.0,0.0,0.0,0.0,0.0,0.0,0.0,0.0,0.0,0.0,0.0,0.0,0.0,0.0,0.0,0.0,0.0,0.0,0.0,0.0,0.0,0.0,-1.2839,-1.4716,-1.5266,-1.6143,-1.7141,-1.8172,-1.8332,0.0,-1.9017,-1.8766,-1.8388,-1.8278,-1.8787,-1.9377,-1.9792,-2.1514,0.0,0.0,0.0,0.0,0.0,0.0,0.0,0.0,0.0,0.0,0.0,0.0,0.0,0.0,-2.5547,-2.5463,-2.5406,-2.5339,-2.5293,-2.5303,-2.5303,-2.5303,-2.5303,-2.5303,-2.5184,-2.4998,-2.4869,0.0,0.0,0.0,0.0,0.0,-2.417,-2.3976,-2.3671,-2.3346,-2.3021,-2.2695,-2.2426,-2.2321,-2.2338,0.0,0.0,0.0,0.0,0.0,0.0,0.0,0.0,0.0,0.0,0.873,0.911,0.9631,0.9813,1.0198,0.0,0.0,0.0,0.0,0.0,0.0,0.0,0.0,0.0,0.0,1.1975,1.288,1.3065,1.3989,1.4551,1.4756,1.4841,1.4728,1.4409,1.4259,0.0,0.0,0.0,0.0,0.0,0.0,0.0,0.0,0.0,0.0,0.0,0.0,0.5242,0.0,0.0,0.0,0.0,0.0,0.0,0.0,0.0,-0.7308,-0.8844,-1.07,0.0,-1.3496,-1.4247,-1.4611,-1.5098,0.0,-1.6825,-1.7442,-1.8403,-1.8739,-1.9022,-1.9595,-1.9674,-2.0068,-2.1338,-2.2276,-2.3175,0.0,0.0,0.0,0.0,0.0,0.0,0.0,0.0,0.0,0.0,0.0,0.0,0.0,-2.5593,-2.5511,-2.5394,-2.5383,-2.5346,-2.5303,-2.5303,-2.5303,-2.5303,-2.5303,-2.5184,-2.4998,-2.4869,0.0,0.0,0.0,0.0,-2.417,-2.3917,-2.3774,-2.3671,-2.3346,-2.3141,-2.3045,-2.2712,-2.2599,-2.259,0.0,0.0,0.0,0.0,0.0,0.0,0.0,0.0,0.0,0.0,0.0,0.8879,0.9148,0.9754,0.0,0.0,0.0,0.0,0.0,0.0,0.0,0.0,0.0,0.0,1.1341,1.2685,1.3411,1.3439,1.4419,1.5091,1.5516,1.5224,1.5224,1.5435,1.4348,0.0,0.0,0.0,0.0,0.0,0.0,0.0,0.0,0.0,0.0,0.0,0.4173,0.3743,0.0,0.2357,0.1058,-0.0444,0.0,0.0,0.0,0.0,-0.8316,-0.9441,-1.1011,-1.2463,-1.374,-1.4535,-1.4828,-1.53,-1.6729,-1.6802,-1.6932,-1.8237,0.0,0.0,-1.9542,-1.983,0.0,0.0,-2.2629,0.0,0.0,0.0,0.0,0.0,0.0,0.0,0.0,0.0,0.0,0.0,0.0,0.0,0.0,-2.5629,-2.5554,-2.5459,-2.5408,-2.5371,-2.5303,-2.5303,-2.5303,-2.5303,-2.5303,-2.5234,-2.5141,-2.4968,-2.4814,0.0,0.0,0.0,-2.419,-2.3996,-2.3917,-2.3896,-2.3566,-2.3414,-2.3392,-2.3045,-2.2923,-2.2898,0.0,0.0,0.0,0.0,0.0,0.0,0.0,0.0,0.0,0.0,0.0,0.0,0.0,0.0,0.0,0.0,0.0,0.0,0.0,0.0,0.0,0.0,0.0,1.1994,1.2452,1.3243,1.3756,1.3961,1.4847,1.568,1.6461,1.5801,1.5678,1.5939,1.393,1.2273,0.0,0.0,0.0,0.0,0.0,0.0,0.0,0.0,0.0,0.0,0.0,0.0,0.0,0.0291,-0.1094,-0.2817,-0.393,0.0,0.0,0.0,0.0,0.0,-1.1557,-1.3281,-1.4808,-1.5178,-1.5682,-1.6442,-1.778,0.0,0.0,0.0,0.0,0.0,0.0,-1.9921,0.0,0.0,0.0,0.0,0.0,0.0,0.0,0.0,0.0,0.0,0.0,0.0,0.0,0.0,0.0,0.0,0.0,-2.5657,-2.5573,-2.5526,-2.5465,-2.5391,-2.5322,-2.5313,-2.5303,-2.5303,-2.5303,-2.5303,-2.5284,-2.5088,-2.4937,0.0,0.0,0.0,-2.4247,-2.4209,-2.419,-2.417,-2.3896,-2.3774,-2.3753,-2.3392,-2.3236,-2.3141,0.0,0.0,0.0,0.0,0.0,0.0,0.0,0.0,0.0,0.0,0.0,0.0,0.0,0.0,0.0,0.0,0.0,0.0,0.0,0.0,0.0,0.0,1.286,1.3082,1.4102,1.4272,1.4748,1.5546,1.5875,1.6136,1.6331,1.6323,1.5587,1.4223,1.2882,1.0739,0.8052,0.0,0.0,0.0,0.0,0.0,0.0,0.0,0.0,0.0,0.0,0.0,0.0,-0.222,-0.4071,-0.5944,-0.6384,0.0,0.0,0.0,0.0,0.0,-1.2546,-1.4742,-1.6216,-1.4697,-1.5641,-1.6806,-1.6389,-1.6817,0.0,0.0,0.0,0.0,0.0,-2.1133,-2.1807,0.0,0.0,0.0,0.0,0.0,0.0,0.0,0.0,0.0,0.0,0.0,0.0,0.0,0.0,0.0,0.0,-2.5683,-2.5659,-2.5595,-2.5567,-2.5517,-2.5391,-2.5321,-2.5303,-2.5303,-2.5303,-2.5303,-2.5284,-2.5088,-2.4998,0.0,0.0,-2.4478,-2.4426,-2.4266,-2.419,-2.419,-2.4151,-2.4113,-2.4074,-2.3753,-2.3437,-2.3135,0.0,0.0,0.0,0.0,0.0,0.0,0.0,0.0,0.0,0.0,0.0,0.0,0.0,0.0,0.0,0.0,0.0,0.0,0.0,0.0,0.0,1.4225,1.4374,1.4561,1.4778,1.4917,1.546,1.6451,1.6289,1.6747,1.78,1.7397,1.5603,1.2626,1.0582,0.7746,0.435,0.0,0.0,0.0,0.0,0.0,0.0,0.0,0.0,0.0,0.0,0.0,0.0,0.0,-0.6044,-0.7921,-0.7976,0.0,0.0,0.0,0.0,0.0,-1.2149,-1.4241,-1.5909,-1.4977,-1.6725,-1.8721,-1.8944,-1.8749,0.0,0.0,0.0,0.0,0.0,0.0,0.0,0.0,0.0,0.0,0.0,0.0,0.0,0.0,0.0,0.0,0.0,0.0,0.0,0.0,0.0,0.0,0.0,0.0,-2.5662,-2.5603,-2.5601,-2.5554,-2.5446,-2.5383,-2.533,-2.5303,-2.5303,-2.5303,-2.5303,-2.5203,-2.5099,-2.4998,0.0,-2.4591,-2.4478,-2.4284,-2.3933,-2.3602,-2.4025,-2.3933,-2.3584,-2.387,-2.3774,-2.3392,0.0,0.0,0.0,0.0,0.0,0.0,0.0,0.0,0.0,0.0,0.0,0.0,0.0,0.0,0.0,0.0,0.0,0.0,0.0,0.0,1.3972,1.4588,1.5324,1.5659,1.5565,1.5633,1.6064,1.691,1.6629,1.7307,1.88,1.7503,1.4813,1.0891,0.769,0.3953,-0.017,-0.383,-0.5874,0.0,0.0,0.0,0.0,0.0,0.0,0.0,0.0,0.0,0.0,0.0,0.0,0.0,0.0,0.0,0.0,-1.0829,-1.0935,-1.1043,-1.1725,-1.3619,-1.5374,-1.5355,-1.7534,-1.995,-2.0866,-2.0246,-1.9584,0.0,0.0,0.0,0.0,0.0,0.0,0.0,0.0,0.0,0.0,0.0,0.0,0.0,0.0,0.0,0.0,0.0,0.0,0.0,0.0,0.0,0.0,0.0,-2.5682,-2.5631,-2.5611,-2.5598,-2.5511,-2.5477,-2.5406,-2.5312,-2.5303,-2.5303,-2.5303,-2.5303,-2.5214,-2.5065,-2.4904,-2.4628,-2.4244,-2.4062,-2.3493,-2.2795,-2.3602,-2.3657,-2.3345,-2.3874,-2.3917,-2.3649,0.0,0.0,0.0,0.0,0.0,0.0,0.0,0.0,0.0,0.0,0.0,0.0,0.0,0.0,0.0,0.0,0.0,0.0,0.0,0.0,1.3808,1.4064,1.4759,1.5815,1.7188,1.6697,1.6573,1.6898,1.7229,1.761,1.7932,1.5433,1.2428,0.8908,0.4268,-0.0687,-0.5712,-0.727,-0.9412,0.0,0.0,0.0,0.0,0.0,0.0,0.0,0.0,0.0,0.0,0.0,0.0,0.0,0.0,0.0,-1.0737,-1.1082,-1.105,-1.1117,-1.2029,-1.3809,-1.5399,-1.5399,-1.715,-1.9,-1.9462,-1.9664,0.0,-2.0349,0.0,0.0,0.0,0.0,0.0,0.0,0.0,0.0,0.0,0.0,0.0,0.0,0.0,0.0,0.0,0.0,0.0,0.0,0.0,0.0,0.0,0.0,0.0,-2.5683,-2.5683,-2.566,-2.5598,-2.5595,-2.5531,-2.5398,-2.533,-2.5303,-2.5303,-2.5303,-2.5284,-2.5264,-2.5077,-2.4442,-2.3568,-2.3419,-2.2782,-2.1986,-2.2776,-2.3511,-2.4097,-2.3819,-2.3714,-2.3649,0.0,0.0,0.0,0.0,0.0,0.0,0.0,0.0,0.0,0.0,0.0,0.0,0.0,0.0,0.0,0.0,0.0,0.0,0.0,0.0,1.4177,1.4412,1.5156,1.5807,1.6385,1.6126,1.6438,1.7348,1.7907,1.6608,1.3577,1.1708,0.7687,0.1861,-0.2517,-0.6527,-1.0144,-1.2457,-1.3868,-1.4582,0.0,0.0,0.0,0.0,0.0,0.0,0.0,0.0,0.0,0.0,-0.9647,-1.0435,0.0,-1.0336,-1.0701,-1.0703,-1.0794,-1.1009,-1.1527,-1.301,-1.4501,-1.4927,-1.6311,0.0,0.0,-2.0405,-2.1083,-2.1643,-2.1846,0.0,0.0,0.0,0.0,0.0,0.0,0.0,0.0,0.0,0.0,0.0,0.0,0.0,0.0,0.0,0.0,0.0,0.0,0.0,0.0,0.0,0.0,-2.5703,-2.5703,-2.5683,-2.5661,-2.5082,-2.4765,-2.4728,-2.5156,-2.5348,-2.5303,-2.5303,-2.5024,-2.4543,-2.4342,-2.3676,-2.2739,-2.2544,-2.1895,-2.1033,-2.1328,-2.2281,-2.3437,-2.3305,-2.3576,-2.3958,0.0,0.0,0.0,0.0,0.0,0.0,0.0,0.0,0.0,0.0,0.0,0.0,0.0,0.0,0.0,0.0,0.0,0.0,0.0,1.3114,1.3845,1.3899,1.4735,1.5121,1.5032,1.4906,1.5466,1.6729,1.6704,1.4416,0.997,0.7383,0.2654,-0.3855,-0.7955,-1.1317,-1.4081,-1.6108,-1.7012,-1.7041,-1.7082,0.0,0.0,0.0,0.0,0.0,0.0,0.0,0.0,0.0,-1.0105,-1.0555,0.0,0.0,0.0,0.0,-1.0838,-1.126,-1.1447,-1.2614,-1.3914,-1.4378,0.0,0.0,-1.8952,-2.037,-2.1505,-2.2389,-2.2733,0.0,0.0,0.0,0.0,0.0,0.0,0.0,0.0,0.0,0.0,0.0,0.0,0.0,0.0,0.0,0.0,0.0,0.0,0.0,0.0,0.0,0.0,0.0,-2.5429,-2.5293,-2.5293,-2.4409,-2.3948,-2.394,-2.4438,-2.4626,-2.455,-2.455,-2.4224,-2.3678,-2.3543,-2.2909,-2.1966,-2.1802,-2.1235,-2.0503,-2.0503,-2.1382,-2.263,-2.263,-2.3125,-2.3804,0.0,0.0,0.0,0.0,0.0,0.0,0.0,0.0,0.0,0.0,0.0,0.0,0.0,0.0,0.0,0.0,0.0,0.0,1.1275,1.2223,1.2611,1.2216,1.3213,1.366,1.3381,1.3121,1.3576,1.4788,1.3299,1.0942,0.7714,0.2601,-0.2411,-0.7347,-1.13,-1.473,-1.7538,-1.7738,-1.8401,-1.9231,-1.8445,-1.7722,0.0,0.0,0.0,0.0,0.0,0.0,0.0,0.0,-1.0396,-1.0427,0.0,0.0,0.0,-1.0531,-1.1255,-1.1897,-1.1897,-1.2824,-1.3784,-1.381,0.0,0.0,-1.7583,-1.9302,-2.0917,-2.2383,-2.3212,-2.3795,-2.4113,0.0,0.0,0.0,0.0,0.0,0.0,0.0,0.0,0.0,0.0,0.0,0.0,0.0,0.0,0.0,0.0,0.0,0.0,0.0,0.0,0.0,-2.4802,-2.4394,-2.4394,-2.3594,-2.3142,-2.3098,-2.3079,-2.3015,-2.2894,-2.2894,-2.2852,-2.2802,-2.2793,-2.2211,-2.128,-2.1149,-2.0853,-2.0484,-2.0484,-2.1015,-2.1803,-2.1803,-2.2299,-2.2997,0.0,0.0,0.0,0.0,0.0,0.0,0.0,0.0,0.0,0.0,0.0,0.0,0.0,0.0,0.0,0.0,0.0,0.0,1.101,1.1755,1.2121,1.1981,1.2291,1.243,1.2354,1.157,1.2097,1.3956,1.1293,0.7471,0.251,-0.2645,-0.8085,-1.3675,-1.6282,-1.7928,-1.8781,-1.8982,-1.923,-1.9495,-1.9254,-1.8613,0.0,0.0,0.0,0.0,0.0,0.0,0.0,0.0,0.0,0.0,0.0,0.0,0.0,-1.0207,-1.0755,-1.1374,-1.1234,-1.195,0.0,-1.3625,0.0,0.0,0.0,-1.9056,0.0,0.0,-2.3045,-2.3437,-2.3795,0.0,0.0,0.0,0.0,0.0,0.0,0.0,0.0,0.0,0.0,0.0,0.0,0.0,0.0,0.0,0.0,0.0,0.0,0.0,0.0,0.0,-2.3602,-2.3492,-2.3496,-2.2695,-2.2285,-2.2243,-2.1638,-2.1906,-2.2974,-2.2921,-2.2552,-2.1951,-2.1902,-2.1309,-2.0374,-2.0138,-1.9963,-1.9837,-1.9718,-2.0152,-2.0886,-2.0886,-2.1418,-2.2152,0.0,0.0,0.0,0.0,0.0,0.0,0.0,0.0,0.0,0.0,0.0,0.0,0.0,0.0,0.0,0.0,0.0,0.0,0.0,0.0,1.0821,1.0664,1.0795,1.0847,1.0788,0.9671,0.9226,0.9517,0.7254,0.3182,-0.26,-0.7232,-1.2207,-1.7261,-1.8694,-1.9305,-1.9305,-1.9442,-1.9527,-1.9582,-1.9513,-1.8906,-1.7927,0.0,0.0,0.0,0.0,0.0,0.0,0.0,0.0,0.0,-1.021,0.0,-1.0355,-1.0257,-1.0882,-1.1654,-1.1949,-1.2498,0.0,-1.4329,-1.5364,-1.6622,-1.8605,0.0,0.0,0.0,0.0,0.0,0.0,0.0,0.0,0.0,0.0,0.0,0.0,0.0,0.0,0.0,0.0,0.0,0.0,0.0,0.0,0.0,0.0,0.0,0.0,0.0,0.0,0.0,-2.2742,-2.2586,-2.2575,-2.1796,-2.1387,-2.1387,-2.0859,-2.1108,-2.2049,-2.1982,-2.1637,-2.1075,-2.1043,-2.0638,-1.9993,-1.9824,-1.9726,-1.9669,-1.9545,-1.9801,-2.0214,-2.0214,-2.0726,-2.1403,0.0,0.0,0.0,0.0,0.0,0.0,0.0,0.0,0.0,0.0,0.0,0.0,0.0,0.0,0.0,0.0,0.0,0.0,0.0,0.0,0.8928,0.859,0.8892,0.8962,0.8814,0.7384,0.5333,0.2648,0.1819,-0.1557,-0.7332,-1.1139,-1.4965,-1.8659,-1.9097,-1.9268,-1.9194,-1.921,-1.9276,-1.9378,-1.9173,-1.8636,-1.7817,-1.6718,0.0,0.0,0.0,0.0,0.0,0.0,0.0,0.0,-1.0508,-1.0199,-1.0069,-1.0493,-1.1358,-1.2332,-1.3241,-1.3713,-1.4256,-1.5343,-1.577,0.0,-1.9257,-2.061,-2.1591,-2.2409,0.0,0.0,0.0,0.0,0.0,0.0,0.0,0.0,0.0,0.0,0.0,0.0,0.0,0.0,0.0,0.0,0.0,0.0,0.0,0.0,0.0,0.0,0.0,-2.2669,-2.2006,-2.1674,-2.1676,-2.0954,-2.0586,0.0,-2.0605,-2.0605,-2.0605,-2.0516,-2.0422,-2.0295,-2.0311,-2.0197,-2.0022,-2.0012,-1.9933,-1.9813,-1.9802,-1.979,-1.979,-1.979,-2.0201,-2.0709,0.0,0.0,0.0,0.0,0.0,0.0,0.0,0.0,0.0,0.0,0.0,0.0,0.0,0.0,0.0,0.0,0.0,0.0,0.0,0.0,0.7234,0.685,0.7006,0.6914,0.6502,0.4314,0.1428,-0.2196,-0.2743,-0.5365,-0.9967,-1.3626,-1.6621,-1.8931,-1.918,-1.8941,-1.8368,-1.8522,-1.8242,-1.772,-1.7665,-1.7541,-1.7244,-1.606,-1.5327,0.0,0.0,0.0,0.0,0.0,0.0,0.0,-1.0508,-1.047,-1.0456,-1.0169,-1.0868,-1.1737,-1.1745,-1.2375,0.0,0.0,-1.5492,-1.6894,-1.8392,-1.9128,-1.9882,-2.1245,0.0,0.0,0.0,0.0,0.0,0.0,0.0,0.0,0.0,0.0,0.0,0.0,0.0,0.0,0.0,0.0,0.0,0.0,0.0,0.0,0.0,0.0,0.0,-2.0855,-2.0715,-2.0657,-2.0698,-2.0582,-2.0515,0.0,-2.0565,-2.0605,-2.0605,-2.0477,-2.0381,-2.0304,-2.03,-2.0277,-2.0214,-2.0069,-1.9974,-1.9953,-1.9836,-1.979,-1.979,-1.979,-1.988,-2.0013,0.0,0.0,0.0,0.0,0.0,0.0,0.0,0.0,0.0,0.0,0.0,0.0,0.0,0.0,0.0,0.0,0.0,0.0,0.0,0.0,0.4598,0.4812,0.5006,0.475,0.3957,0.1295,-0.1841,-0.5364,-0.7189,-0.9548,-1.2439,-1.4968,-1.7028,-1.8623,-1.886,-1.8562,-1.7912,-1.8012,-1.7723,-1.7179,-1.7114,-1.6866,-1.6485,-1.5694,-1.5112,-1.4599,-1.4173,0.0,0.0,0.0,0.0,0.0,0.0,0.0,-1.0494,-1.0133,-1.0569,-1.1269,-1.1706,0.0,0.0,-1.4994,0.0,-1.6999,-1.813,-1.8395,-1.8679,0.0,0.0,0.0,0.0,0.0,0.0,0.0,0.0,0.0,0.0,0.0,0.0,0.0,0.0,0.0,0.0,0.0,0.0,0.0,0.0,0.0,0.0,-2.0197,-2.0296,-2.0308,-2.0308,-2.033,-2.0347,-2.0422,-2.0444,-2.0444,-2.0515,-2.0546,-2.0542,-2.0441,-2.0376,-2.0359,-2.0311,-2.0312,-2.0285,-2.0188,-2.0133,-2.0143,-2.0079,-2.0031,-2.0031,-2.0031,-1.9972,-1.989,0.0,0.0,0.0,0.0,0.0,0.0,0.0,0.0,0.0,0.0,0.0,0.0,0.0,0.0,0.0,0.0,0.0,0.0,0.0,0.0573,0.1521,0.2554,0.2647,0.2192,0.1181,-0.1659,-0.463,-0.7694,-1.0628,-1.2935,-1.4639,-1.5831,-1.7019,-1.8208,-1.8469,-1.8164,-1.7475,-1.7473,-1.7176,-1.6669,-1.6551,-1.6147,-1.5633,-1.536,-1.4818,-1.4167,-1.3938,-1.361,-1.3244,-1.2927,0.0,0.0,0.0,0.0,-1.0377,-1.0269,-1.0451,-1.0922,-1.1911,0.0,-1.4135,-1.5978,-1.6471,0.0,-1.7746,-1.7773,0.0,0.0,0.0,0.0,0.0,0.0,0.0,0.0,0.0,0.0,0.0,0.0,0.0,0.0,0.0,0.0,0.0,0.0,0.0,0.0,0.0,0.0,-1.9933,-2.0134,-2.0241,-2.0241,-2.0282,-2.0308,-2.0308,-2.0362,-2.0374,-2.0374,-2.045,-2.0505,-2.0498,-2.0444,-2.0418,-2.0402,-2.0334,-2.0296,-2.0296,-2.0292,-2.0312,-2.0312,-2.0312,-2.0312,-2.0312,-2.0312,-2.0197,-2.0041,0.0,0.0,0.0,0.0,0.0,0.0,0.0,0.0,0.0,0.0,0.0,-0.1981,-0.2234,-0.2462,0.0,0.0,0.0,0.0,-0.3855,0.0,0.0,0.0166,-0.0547,-0.1241,-0.1813,-0.4321,-0.6978,-0.9715,-1.1214,-1.3418,-1.6278,-1.6825,-1.7462,-1.8208,-1.8469,-1.7826,-1.6494,-1.6604,-1.5861,-1.4616,-1.4764,-1.4768,-1.4669,-1.4641,-1.4453,-1.4252,-1.4672,-1.4154,-1.3328,-1.3495,-1.2728,0.0,0.0,0.0,0.0,-1.0389,-1.0519,-1.0731,-1.0897,0.0,-1.3948,0.0,-1.561,-1.5948,0.0,0.0,0.0,0.0,0.0,0.0,0.0,0.0,0.0,0.0,0.0,0.0,0.0,0.0,0.0,0.0,0.0,0.0,0.0,0.0,0.0,0.0,0.0,0.0,-1.9643,-1.989,-2.0031,-2.0031,-2.0222,-2.0308,-2.0308,-2.0302,-2.0305,-2.0305,-2.0438,-2.0492,-2.0498,-2.0482,-2.0447,-2.0406,-2.033,-2.0295,-2.0308,-2.0304,-2.0312,-2.0312,-2.0312,-2.0312,-2.0312,-2.0312,-2.0277,-2.0269,0.0,0.0,0.0,0.0,0.0,0.0,0.0,0.0,0.0,0.0,0.0,-0.5762,-0.5901,-0.6426,0.0,0.0,0.0,0.0,-0.6169,-0.5216,0.0,0.0,-0.4007,-0.4548,-0.5092,-0.7229,-0.9181,-1.0927,-1.2074,-1.3926,-1.6449,-1.6606,-1.7476,-1.8882,-1.8802,-1.8225,-1.7284,-1.6605,-1.5752,-1.4801,-1.4581,-1.5038,-1.5753,-1.4836,-1.5001,-1.5592,-1.4706,-1.4046,-1.3605,-1.3381,-1.2812,-1.2112,-1.1672,0.0,0.0,0.0,-1.0289,-1.0676,-1.135,-1.2409,-1.3607,0.0,-1.5255,-1.5477,-1.5741,0.0,0.0,0.0,0.0,0.0,0.0,0.0,0.0,0.0,0.0,0.0,0.0,0.0,0.0,0.0,0.0,0.0,0.0,0.0,0.0,0.0,0.0,-1.9614,-1.9614,-1.9767,-1.989,-1.989,-2.0041,-2.0124,-2.0124,-2.025,-2.0302,-2.0294,-2.0357,-2.0414,-2.0441,-2.0482,-2.0484,-2.0444,-2.0398,-2.0352,-2.0347,-2.0328,-2.0295,-2.0308,-2.0289,-2.0312,-2.0312,-2.0312,-2.0312,-2.0285,0.0,0.0,0.0,0.0,0.0,0.0,0.0,0.0,0.0,0.0,0.0,0.0,-0.9205,0.0,0.0,0.0,0.0,0.0,-0.8075,0.0,0.0,0.0,0.0,-0.7433,-0.7889,-0.9454,-1.0693,-1.1569,-1.2521,-1.4109,-1.6253,-1.6493,-1.7669,-1.9609,-1.9216,-1.8657,-1.795,-1.6863,-1.6059,-1.5496,-1.5094,-1.5718,-1.6803,-1.5963,-1.6415,-1.7247,-1.5286,-1.4556,0.0,0.0,0.0,0.0,0.0,0.0,0.0,0.0,0.0,0.0,0.0,0.0,-1.2947,-1.4377,-1.483,-1.5066,0.0,0.0,0.0,0.0,0.0,0.0,0.0,0.0,0.0,0.0,0.0,0.0,0.0,0.0,0.0,0.0,0.0,0.0,0.0,0.0,0.0,0.0,0.0,-1.9442,-1.9442,-1.9638,-1.975,-1.975,-1.988,-1.9973,-1.9993,-2.0197,-2.0311,-2.0296,-2.0301,-2.0341,-2.039,-2.0441,-2.0481,-2.0502,-2.045,-2.0429,-2.0425,-2.0347,-2.0341,-2.0336,-2.0334,-2.0327,-2.032,-2.0318,-2.0311,-2.0277,0.0,0.0,0.0,0.0,0.0,0.0,0.0,0.0,0.0,0.0,0.0,0.0,0.0,0.0,0.0,0.0,0.0,0.0,0.0,0.0,0.0,0.0,0.0,0.0,-0.9756,-1.0352,-1.0941,-1.1515,-1.2081,-1.3648,-1.6123,-1.6952,-1.8376,-2.0211,-1.9644,-1.8784,-1.7783,0.0,0.0,0.0,-1.6113,-1.6438,-1.7028,-1.8223,-1.8885,-1.8944,-1.7107,0.0,0.0,0.0,0.0,0.0,0.0,0.0,-1.1296,0.0,0.0,0.0,0.0,-1.1117,0.0,-1.3384,-1.4055,0.0,0.0,0.0,0.0,0.0,0.0,0.0,0.0,0.0,0.0,0.0,0.0,0.0,0.0,0.0,0.0,0.0,0.0,0.0,0.0,0.0,0.0,0.0,0.0,-1.9018,-1.9018,-1.9398,-1.9609,-1.9609,-1.9738,-1.9869,-2.0012,-2.0197,-2.0292,-2.03,-2.0289,-2.0294,-2.0319,-2.037,-2.0438,-2.0494,-2.0503,-2.0486,-2.0484,-2.0425,-2.0387,-2.0387,-2.0383,-2.0383,-2.0394,-2.0311,-2.0301,-2.0289,0.0,0.0,0.0,0.0,0.0,0.0,0.0,0.0,0.0,0.0,0.0,0.0,0.0,-1.3257,-1.3274,-1.2968,0.0,0.0,0.0,0.0,0.0,0.0,0.0,0.0,0.0,-1.2007,-1.2112,-1.2143,-1.2206,-1.3062,-1.4637,-1.5372,-1.6458,-1.7772,-1.8917,-1.919,-1.8751,-1.7522,0.0,0.0,0.0,-1.7889,-1.896,-1.9097,-1.9752,-2.0372,0.0,0.0,0.0,0.0,0.0,0.0,-1.3198,-1.2467,-1.1579,-1.1363,-1.0879,0.0,0.0,0.0,0.0,-1.2448,-1.3095,-1.372,0.0,0.0,0.0,0.0,0.0,0.0,0.0,0.0,0.0,0.0,0.0,0.0,0.0,0.0,0.0,0.0,0.0,0.0,0.0,0.0,0.0,0.0,0.0,0.0,-1.9002,-1.9261,-1.9413,-1.9413,-1.9069,-1.9017,-1.9229,-1.981,-2.0169,-2.0312,-2.0304,-2.0306,-2.0306,-2.0313,-2.0342,-2.037,-2.0414,-2.0484,-2.0563,-2.0484,-2.0453,-2.047,-2.0422,-2.041,-2.0406,-2.0366,-2.0357,-2.0366,0.0,0.0,0.0,0.0,0.0,0.0,0.0,0.0,0.0,-1.3194,0.0,0.0,0.0,0.0,-1.427,-1.3645,-1.2376,0.0,-1.2851,0.0,0.0,0.0,0.0,0.0,0.0,-1.2903,-1.2688,-1.2625,-1.2316,-1.2719,-1.3825,-1.4483,-1.5264,-1.6194,-1.7454,-1.841,0.0,0.0,0.0,-1.7657,0.0,0.0,-2.0006,-2.0427,-2.1222,-2.187,0.0,0.0,0.0,0.0,0.0,0.0,0.0,-1.3009,-1.1725,-1.14,-1.0949,0.0,-1.0872,0.0,0.0,0.0,0.0,-1.2761,0.0,0.0,0.0,0.0,0.0,0.0,0.0,0.0,0.0,0.0,0.0,0.0,0.0,0.0,0.0,0.0,0.0,0.0,0.0,0.0,0.0,0.0,0.0,0.0,-1.8734,-1.893,-1.897,-1.876,-1.8522,-1.8481,-1.8668,-1.9229,-1.9726,-2.0135,-2.018,-2.0197,-2.0205,-2.0268,-2.0302,-2.0294,-2.0342,-2.0438,-2.0565,-2.0527,-2.0504,-2.0537,-2.0482,-2.0472,-2.0453,-2.0438,-2.0432,-2.0429,0.0,0.0,0.0,0.0,0.0,0.0,0.0,0.0,-1.3528,-1.3941,0.0,0.0,0.0,0.0,0.0,-1.4108,-1.3337,-1.2849,-1.2787,-1.3233,0.0,0.0,0.0,0.0,0.0,-1.2957,-1.254,-1.2898,-1.2376,-1.2659,-1.3765,-1.4423,-1.5109,-1.5707,-1.5411,-1.6419,-1.8277,0.0,-1.7871,-1.8186,0.0,-1.9245,-1.9994,0.0,0.0,0.0,-2.1315,-2.0771,0.0,-1.8302,0.0,0.0,0.0,-1.3396,-1.1747,-1.1423,-1.1127,0.0,0.0,0.0,0.0,0.0,0.0,0.0,0.0,0.0,0.0,0.0,0.0,0.0,0.0,0.0,0.0,0.0,0.0,0.0,0.0,0.0,0.0,0.0,0.0,0.0,0.0,0.0,0.0,0.0,0.0,-1.8187,-1.8187,-1.8432,-1.8271,-1.7651,-1.8089,-1.8354,-1.8317,-1.8471,-1.8952,-1.9734,-1.9867,-1.9907,-1.9936,-2.0139,-2.026,-2.0262,-2.0288,-2.0366,-2.0486,-2.0506,-2.0539,-2.0586,-2.0605,-2.0605,-2.0586,-2.0536,-2.0508,-2.0486,0.0,0.0,0.0,0.0,0.0,-1.5153,-1.5949,-1.5724,-1.5548,0.0,0.0,0.0,-1.5683,-1.5847,-1.5952,-1.5811,-1.5063,-1.46,-1.459,-1.412,-1.4126,-1.4747,-1.4752,-1.4652,-1.4481,-1.38,-1.3261,-1.2898,-1.2614,-1.2417,-1.2373,-1.3032,-1.346,-1.3665,-1.4283,-1.5011,-1.5732,-1.5852,0.0,-1.8944,-1.8616,-1.9468,0.0,0.0,0.0,0.0,0.0,-2.2003,-2.1336,0.0,-1.8881,-1.6584,0.0,0.0,-1.2024,-1.1747,-1.1423,0.0,-1.0835,0.0,0.0,0.0,0.0,0.0,0.0,0.0,0.0,0.0,0.0,0.0,0.0,0.0,0.0,0.0,0.0,0.0,0.0,0.0,0.0,0.0,0.0,0.0,0.0,0.0,0.0,0.0,-1.762,-1.7945,-1.8187,-1.7961,-1.7272,-1.606,-1.6733,-1.6943,-1.6593,-1.7255,-1.7745,-1.8068,-1.8108,-1.8127,-1.8146,-1.8885,-1.9222,-1.9254,-1.9981,-2.0321,-2.0352,-2.0414,-2.0435,-2.047,-2.0511,-2.0536,-2.0539,-2.0566,-2.0565,-2.0564,0.0,0.0,0.0,0.0,-1.6339,-1.6426,-1.7274,-1.7025,-1.6788,0.0,0.0,0.0,-1.6806,-1.6931,-1.7045,-1.7045,-1.6299,-1.5846,-1.5832,-1.5039,-1.4779,-1.5278,-1.5075,-1.4828,-1.4604,-1.389,-1.3369,-1.3056,-1.2562,-1.2189,-1.1976,-1.2371,-1.2486,-1.2411,-1.3016,-1.3588,-1.413,-1.412,0.0,0.0,-1.88,0.0,0.0,-2.1965,-2.2489,0.0,0.0,0.0,-2.2002,-2.1665,-1.9913,0.0,0.0,0.0,0.0,0.0,0.0,0.0,0.0,0.0,0.0,0.0,0.0,0.0,0.0,-1.0911,0.0,0.0,0.0,0.0,0.0,0.0,0.0,0.0,0.0,0.0,0.0,0.0,0.0,0.0,0.0,0.0,0.0,0.0,0.0,-1.6876,-1.7166,-1.7342,-1.7347,-1.7348,-1.6659,-1.5198,-1.5693,-1.5882,-1.5692,-1.619,-1.6712,-1.7199,-1.7283,-1.7326,-1.7344,-1.7938,-1.8221,-1.825,-1.889,-1.9181,-1.92,-1.9649,-2.0056,-2.0391,-2.0438,-2.0467,-2.0472,-2.0539,-2.0563,-2.0565,0.0,0.0,-1.5758,-1.7575,-1.738,-1.7387,-1.858,-1.816,-1.771,0.0,-1.7629,-1.7662,-1.7963,-1.7966,-1.7943,-1.7949,-1.7204,-1.6693,-1.6603,-1.5769,-1.5298,-1.5298,-1.5095,-1.486,-1.4565,-1.36,-1.3152,-1.3261,-1.244,-1.209,-1.2205,-1.2205,-1.206,-1.1805,-1.1805,-1.2301,-1.3171,-1.2943,0.0,-1.6826,-1.8819,-1.9816,0.0,0.0,-2.2574,-2.26,-2.217,-2.229,-2.2539,-2.1721,-2.0221,0.0,0.0,0.0,0.0,0.0,-1.2449,0.0,0.0,0.0,0.0,0.0,0.0,0.0,-1.0463,-1.0025,0.0,0.0,0.0,0.0,0.0,0.0,0.0,0.0,0.0,0.0,0.0,0.0,0.0,0.0,0.0,0.0,0.0,-1.5996,-1.6203,-1.6301,-1.6659,-1.6612,-1.6114,-1.6629,-1.6232,-1.4709,-1.4849,-1.5027,-1.523,-1.5261,-1.5724,-1.6606,-1.6793,-1.6906,-1.6906,-1.7137,-1.7226,-1.7255,-1.7489,-1.7589,-1.7663,-1.8505,-1.9406,-2.0258,-2.0359,-2.0379,-2.0406,-2.0453,-2.0484,-2.0508,0.0,-1.5282,-1.6152,-1.7629,-1.7997,-1.8622,-2.0195,-1.9985,-1.9956,-2.079,-1.9921,-1.9357,-1.975,-1.9172,-1.8783,-1.8832,-1.8056,-1.7292,-1.6638,-1.5769,-1.5298,-1.5298,-1.5054,-1.4729,-1.4372,-1.3941,-1.3504,-1.3051,-1.2883,-1.2574,-1.2205,-1.2205,-1.206,-1.1805,-1.1805,-1.2037,-1.2494,0.0,0.0,-1.6437,-1.7086,0.0,-2.1017,-2.1368,-2.1861,-2.2371,-2.2272,-2.2296,-2.2269,-2.1521,-2.0577,-1.9395,0.0,0.0,0.0,0.0,0.0,-1.342,-1.3016,0.0,0.0,0.0,0.0,0.0,-1.0232,-1.0049,0.0,0.0,0.0,0.0,0.0,0.0,0.0,0.0,0.0,0.0,0.0,0.0,0.0,0.0,0.0,0.0,0.0,-1.5315,-1.5594,-1.6246,-1.685,-1.6649,-1.5375,-1.5681,-1.5273,-1.3878,-1.3872,-1.3994,-1.4183,-1.4352,-1.4521,-1.4723,-1.4934,-1.5035,-1.5053,-1.5844,-1.6199,-1.6247,-1.7075,-1.7499,-1.7606,-1.7794,-1.8428,-1.9329,-2.0055,-2.0311,-2.0322,-2.0387,-2.0425,-2.0432,-1.5407,-1.57,-1.6555,-1.8175,-1.8854,-1.9716,-2.122,-2.1402,-2.1479,-2.185,-2.1057,-2.0519,-2.0728,-2.0099,-1.9653,-1.9708,-1.8898,-1.8049,-1.7199,-1.6367,-1.5678,-1.5163,-1.4981,-1.4858,-1.4756,-1.4542,-1.4312,-1.4048,-1.3851,-1.3388,-1.27,-1.2488,-1.236,-1.2269,-1.1939,-1.2268,-1.3054,0.0,-1.4851,-1.5959,-1.7673,0.0,-2.1254,-2.16,-2.1989,-2.231,-2.231,-2.231,-2.2192,-2.1448,-2.067,0.0,0.0,-1.7425,-1.6377,0.0,-1.5074,-1.4683,0.0,0.0,0.0,-1.2798,0.0,0.0,0.0,0.0,-1.0108,0.0,0.0,0.0,0.0,0.0,0.0,0.0,0.0,0.0,0.0,0.0,0.0,0.0,0.0,0.0,0.0,-1.4968,-1.5374,-1.5996,-1.6528,-1.624,-1.4917,-1.5176,-1.4773,-1.3545,-1.3493,-1.3572,-1.3736,-1.3838,-1.3955,-1.4051,-1.4149,-1.4257,-1.4381,-1.4842,-1.512,-1.5236,-1.5806,-1.6092,-1.6186,-1.6666,-1.7375,-1.8255,-1.9256,-1.9612,-1.9617,-2.0156,-2.0347,-2.0357,-1.6067,-1.6219,-1.6932,-1.8653,-1.9588,-2.0539,-2.1887,-2.2395,-2.2464,-2.2054,-2.1763,-2.154,-2.1411,0.0,0.0,0.0,-1.9918,-1.9089,0.0,-1.7446,-1.6528,-1.5529,-1.5354,-1.5269,-1.5224,-1.5121,-1.5001,-1.4899,-1.4519,-1.3929,-1.3195,-1.2747,-1.2614,-1.2786,-1.2224,0.0,0.0,0.0,0.0,-1.5952,0.0,-2.0142,-2.0759,-2.1653,-2.2035,-2.2079,-2.2158,-2.2123,-2.1931,-2.1305,0.0,-1.9959,-1.9157,-1.8258,0.0,0.0,0.0,0.0,0.0,0.0,0.0,0.0,0.0,-1.2184,0.0,0.0,0.0,-1.0592,0.0,0.0,0.0,0.0,0.0,0.0,0.0,0.0,0.0,0.0,0.0,0.0,0.0,0.0,0.0,-1.4595,-1.5035,-1.5507,-1.5831,-1.5542,-1.4444,-1.4859,-1.4539,-1.3362,-1.3363,-1.3462,-1.3572,-1.3586,-1.3676,-1.3838,-1.3885,-1.3983,-1.4149,-1.4149,-1.4245,-1.4387,-1.4541,-1.4627,-1.4695,-1.5499,-1.6205,-1.6941,-1.8368,-1.8975,-1.9141,-1.9945,-2.027,-2.0326,-1.6763,-1.6712,-1.7194,-1.8592,-1.9716,-2.0907,-2.2231,-2.2733,-2.2721,-2.207,-2.2561,-2.2746,0.0,0.0,0.0,0.0,0.0,0.0,-2.0054,0.0,-1.8267,-1.7259,-1.686,-1.6239,-1.5316,-1.5332,-1.495,-1.412,-1.384,-1.3542,-1.3173,-1.2536,-1.2439,-1.2801,-1.2726,0.0,0.0,0.0,-1.59,0.0,-1.8515,-1.8893,0.0,-2.0257,-2.1016,-2.137,-2.1591,-2.1446,-2.1084,0.0,-2.0532,-2.0274,0.0,-1.8609,-1.812,0.0,0.0,0.0,0.0,0.0,0.0,0.0,-1.4075,0.0,0.0,0.0,-1.1291,-1.0569,0.0,0.0,0.0,0.0,0.0,0.0,0.0,0.0,0.0,0.0,0.0,0.0,0.0,0.0,0.0,0.0,-1.4072,-1.4617,-1.486,-1.4584,-1.367,-1.4565,-1.4459,-1.3099,-1.3277,-1.3413,-1.3413,-1.354,-1.36,-1.3648,-1.381,-1.3913,-1.3941,-1.3941,-1.3955,-1.3983,-1.4157,-1.432,-1.4464,-1.4732,-1.4905,-1.5233,-1.7687,-1.9153,-1.9879,-1.9983,-2.015,-2.0304,-1.6917,-1.6968,-1.7461,-1.8596,-1.9525,-2.0643,-2.2239,-2.3174,-2.3603,-2.3307,-2.3243,0.0,0.0,0.0,0.0,0.0,0.0,-2.1467,0.0,0.0,0.0,-1.8681,-1.7534,-1.6788,-1.6588,-1.5831,-1.5284,-1.4992,-1.4485,-1.3989,-1.3546,-1.3429,-1.3375,-1.3376,-1.3376,0.0,-1.547,0.0,-1.596,0.0,0.0,0.0,0.0,-2.0315,-2.1036,-2.0833,-2.0711,-2.0293,-1.9736,0.0,-1.8984,0.0,0.0,0.0,0.0,0.0,0.0,0.0,0.0,0.0,0.0,0.0,0.0,0.0,-1.2364,0.0,-1.1604,0.0,0.0,0.0,0.0,0.0,0.0,0.0,0.0,0.0,0.0,0.0,0.0,0.0,0.0,0.0,0.0,0.0,0.0,0.0,0.0,-1.4222,-1.3543,-1.4194,-1.4106,-1.3028,-1.3103,-1.3226,-1.3396,-1.3462,-1.3494,-1.3477,-1.3557,-1.365,-1.3739,-1.3739,-1.378,-1.3896,-1.3983,-1.4131,-1.4283,-1.4241,-1.466,-1.5376,-1.6356,-1.7105,-1.7698,-1.8289,-1.8545,-1.8627,-1.7167,0.0,0.0,-1.8597,-1.9332,-2.0448,-2.2343,-2.3543,-2.419,-2.419,0.0,0.0,-2.3467,-2.3042,0.0,0.0,-2.2834,-2.2511,0.0,0.0,-2.0507,-2.0191,-1.8407,-1.7512,-1.7683,-1.6479,-1.5758,-1.5548,-1.5011,-1.451,-1.4079,-1.4095,-1.3979,-1.3825,-1.3989,-1.4977,-1.6428,0.0,-1.6287,-1.7281,-1.7578,-1.7944,-1.8511,-2.0404,-2.094,-2.0629,-2.0045,-1.9524,-1.8965,-1.8059,-1.7745,0.0,-1.7615,0.0,0.0,0.0,0.0,0.0,-1.6917,0.0,0.0,0.0,0.0,0.0,0.0,0.0,0.0,0.0,0.0,0.0,0.0,0.0,0.0,0.0,0.0,0.0,0.0,0.0,0.0,0.0,0.0,0.0,0.0,0.0,0.0,0.0,0.0,0.0,-1.2851,-1.3445,-1.3486,-1.2808,-1.285,-1.3015,-1.3294,-1.3294,-1.3329,-1.3396,-1.3396,-1.3462,-1.354,-1.354,-1.3634,-1.3771,-1.3813,-1.3913,-1.4024,-1.3941,-1.4419,-1.5187,-1.5121,-1.5189,-1.5517,-1.6841,-1.7368,-1.7406,-1.7766,-1.7789,0.0,0.0,-1.9279,-2.0507,-2.2667,-2.3694,-2.419,0.0,0.0,0.0,0.0,0.0,0.0,0.0,0.0,-2.4145,-2.3465,0.0,-2.213,-2.1931,-1.9888,-1.8556,0.0,-1.7252,-1.6238,-1.5211,-1.494,-1.4794,-1.4737,-1.4109,-1.381,-1.384,-1.4468,-1.5169,-1.5873,-1.6428,-1.7399,-1.8642,-1.8642,-1.9564,-2.0799,0.0,-2.0368,-2.0847,-1.9813,0.0,0.0,-1.7803,-1.7308,0.0,0.0,0.0,0.0,0.0,0.0,0.0,0.0,0.0,0.0,-1.5485,0.0,0.0,0.0,0.0,-1.3053,0.0,0.0,0.0,0.0,0.0,0.0,0.0,0.0,0.0,0.0,0.0,0.0,0.0,0.0,0.0,0.0,0.0,0.0,0.0,0.0,0.0,-1.1176,-1.2177,-1.2599,-1.2241,-1.2475,-1.2741,-1.3013,-1.3013,-1.3138,-1.3396,-1.3396,-1.3396,-1.3413,-1.3413,-1.3413,-1.343,-1.3556,-1.36,-1.363,-1.381,-1.3913,-1.3977,-1.4172,-1.4132,-1.4238,-1.6405,-1.7283,-1.7406,0.0,0.0,0.0,0.0,0.0,-1.9661,-2.1586,-2.3022,-2.3876,0.0,0.0,0.0,0.0,-2.419,-2.4228,0.0,0.0,-2.421,-2.3967,-2.3303,0.0,0.0,0.0,-2.0107,0.0,0.0,-1.6517,-1.5795,-1.5128,-1.4797,-1.4797,-1.5007,-1.4872,-1.4483,0.0,-1.6054,0.0,0.0,0.0,0.0,0.0,-1.9299,-2.0158,0.0,0.0,-2.0192,-1.9108,-1.8238,0.0,-1.6591,-1.6317,-1.6287,-1.6185,-1.6136,-1.6136,-1.6136,-1.6136,0.0,0.0,0.0,-1.6003,-1.5355,0.0,0.0,0.0,0.0,0.0,0.0,0.0,0.0,0.0,0.0,0.0,0.0,0.0,0.0,0.0,0.0,0.0,0.0,0.0,0.0,0.0,0.0,0.0,0.0,0.0,0.0,0.0,-1.1838,-1.2258,-1.1873,-1.2159,-1.2455,-1.2741,-1.2741,-1.2778,-1.2871,-1.2871,-1.2962,-1.3138,-1.3138,-1.3138,-1.3156,-1.3362,-1.3445,-1.341,-1.3526,-1.3696,-1.3881,-1.3842,-1.3838,-1.4023,-1.505,-1.5372,-1.5316,-1.971,0.0,0.0,0.0,0.0,-1.9903,-2.1327,0.0,0.0,0.0,-2.3958,0.0,-2.419,0.0,-2.419,0.0,-2.419,-2.419,-2.419,-2.3546,0.0,-2.4153,-2.2162,0.0,0.0,-1.8632,-1.7192,-1.6302,0.0,-1.5366,-1.5184,-1.5604,-1.5439,-1.4812,0.0,-1.6368,-1.7339,0.0,-1.7817,0.0,0.0,-1.9391,0.0,0.0,-2.0202,-1.9941,0.0,-1.7792,-1.7167,-1.6128,-1.5799,-1.5799,-1.5799,-1.5799,-1.5799,-1.5799,-1.5799,-1.5827,-1.597,-1.5983,0.0,-1.5299,-1.5043,0.0,-1.385,0.0,0.0,0.0,0.0,0.0,0.0,0.0,0.0,0.0,0.0,0.0,0.0,0.0,0.0,0.0,0.0,0.0,0.0,0.0,-0.9074,-0.888,0.0,0.0,0.0,0.0,-1.1589,-1.1556,-1.1867,-1.219,-1.2455,-1.2455,-1.2514,-1.261,-1.261,-1.2687,-1.2869,-1.2869,-1.2869,-1.2869,-1.3051,-1.3087,-1.3054,-1.3087,-1.3295,-1.3553,-1.3409,-1.3506,-1.3771,-1.4149,-1.4201,-1.4118,0.0,0.0,0.0,0.0,-2.0267,0.0,0.0,0.0,-2.3459,0.0,-2.3896,-2.419,-2.4151,-2.4113,-2.4132,-2.417,-2.417,-2.417,-2.417,-2.3474,0.0,0.0,-2.2129,-2.1015,-2.1037,-1.9624,-1.8183,0.0,0.0,0.0,-1.577,-1.5799,-1.5469,-1.4872,-1.5529,0.0,-1.6801,-1.7428,-1.8478,-1.969,-1.969,-1.9945,-2.028,-2.028,-2.0265,-1.9996,-1.8329,-1.7988,-1.8053,-1.6365,-1.5799,-1.5799,-1.5799,-1.5799,-1.5799,-1.5799,-1.5799,-1.5885,-1.6191,-1.6243,-1.6061,-1.5275,0.0,0.0,0.0,0.0,-1.6075,0.0,0.0,0.0,0.0,0.0,0.0,0.0,0.0,0.0,0.0,0.0,0.0,0.0,0.0,0.0,0.0,0.0,-0.842,-0.8381,-0.8357,0.0,0.0,0.0,-1.0575,-1.1227,-1.1579,-1.1876,-1.2128,-1.2149,-1.2276,-1.2553,-1.2553,-1.2572,-1.2572,-1.2572,-1.2572,-1.2591,-1.2591,-1.2591,-1.2591,-1.2591,-1.2759,-1.2979,-1.2913,-1.3089,-1.3396,-1.3771,-1.3867,-1.3881,-2.1236,-2.1045,-2.1017,0.0,-2.1293,-2.124,0.0,0.0,0.0,0.0,-2.3732,-2.4016,-2.3522,-2.3049,-2.3042,-2.3628,-2.3671,0.0,0.0,0.0,0.0,-2.3816,-2.3062,-2.2216,-2.1387,-1.9805,0.0,-1.699,0.0,0.0,-1.5285,-1.5639,-1.5709,0.0,0.0,0.0,-1.7443,-1.7623,-1.8478,-1.969,-1.969,-1.9747,0.0,0.0,-1.9537,-1.9027,-1.842,-1.7746,-1.7015,-1.6098,-1.5799,-1.5799,-1.5799,-1.5799,-1.5799,-1.5799,-1.5799,-1.5827,-1.5898,-1.5563,-1.5175,-1.5193,-1.4578,-1.3943,0.0,0.0,0.0,0.0,0.0,0.0,0.0,0.0,0.0,0.0,0.0,0.0,0.0,0.0,0.0,0.0,0.0,0.0,0.0,0.0,-0.8574,-0.7939,0.0,0.0,0.0,0.0,0.0,-1.0616,-1.0963,-1.1164,-1.1233,-1.1423,-1.1564,-1.1637,-1.1882,-1.2107,-1.2312,-1.2312,-1.2312,-1.2312,-1.2514,-1.2494,-1.2312,-1.2514,-1.263,-1.2687,-1.2689,-1.2727,-1.2873,-1.3458,-1.3641,-1.3636,-2.1996,0.0,0.0,-2.2243,0.0,0.0,-2.1831,0.0,0.0,-2.2651,-2.3049,0.0,-2.2849,-2.2508,-2.2497,-2.2925,-2.3129,0.0,-2.3459,0.0,0.0,-2.3477,-2.3165,-2.2591,-2.1778,-2.0521,0.0,-1.767,0.0,0.0,-1.5418,-1.5668,0.0,0.0,0.0,-1.6503,-1.7727,-1.8343,-1.9016,-1.969,-1.969,0.0,0.0,-1.969,-1.9091,-1.8257,-1.8125,-1.7484,-1.6622,-1.5994,-1.5799,-1.5799,-1.5799,-1.5799,-1.5799,-1.5799,-1.5799,-1.5799,-1.5799,-1.543,-1.5025,-1.4956,-1.4498,-1.4053,-1.4014,-1.4238,-1.4583,0.0,0.0,0.0,0.0,0.0,0.0,0.0,0.0,0.0,0.0,0.0,0.0,0.0,0.0,0.0,0.0,0.0,0.0,0.0,0.0,0.0,0.0,0.0,0.0,-1.0121,-1.0629,-1.0897,-1.0897,-1.1048,-1.1141,-1.1141,-1.1324,-1.1482,-1.1623,-1.1623,-1.1623,-1.1645,-1.1788,-1.1781,-1.1645,-1.1788,-1.1999,-1.2229,-1.2498,-1.238,-1.2107,-1.272,-1.3007,-1.3126,0.0,0.0,0.0,0.0,0.0,0.0,0.0,-2.231,0.0,-2.231,0.0,-2.231,-2.231,-2.231,-2.231,-2.231,0.0,-2.2908,-2.3117,-2.3141,-2.3141,-2.3141,-2.2873,-2.2468,-2.1984,-2.1238,0.0,0.0,0.0,-1.6936,-1.5712,-1.577,0.0,0.0,0.0,0.0,0.0,-1.9031,-1.9615,-1.969,-1.969,-1.969,-1.969,-1.969,-1.8867,-1.7697,-1.7697,-1.7219,-1.6502,-1.5964,-1.5799,-1.5799,-1.5799,-1.5799,-1.5799,-1.5799,-1.5799,-1.5799,-1.5799,-1.5525,-1.5149,-1.4703,-1.481,-1.4866,-1.4456,-1.4851,-1.5341,-1.5443,-1.5228,-1.514,0.0,0.0,0.0,0.0,0.0,0.0,0.0,0.0,0.0,0.0,0.0,0.0,0.0,0.0,0.0,0.0,0.0,0.0,0.0,0.0,0.0,-0.9741,-1.0371,0.0,-1.0777,0.0,-1.0825,-1.0849,-1.0873,-1.0897,-1.0897,-1.0897,-1.0897,-1.0897,-1.0897,-1.0897,-1.0897,-1.0849,-1.1098,-1.1577,-1.2148,-1.1915,-1.1296,-1.1764,-1.2133,-1.24,0.0,0.0,0.0,0.0,0.0,-2.231,-2.231,-2.231,-2.231,-2.231,-2.231,-2.231,-2.231,-2.231,-2.231,-2.231,-2.2349,0.0,0.0,0.0,0.0,-2.2797,-2.2721,-2.2224,-2.1228,-2.0508,-1.9233,0.0,-1.7003,-1.632,-1.5225,0.0,0.0,0.0,0.0,0.0,-1.7742,-1.8553,0.0,-1.969,-1.969,-1.969,-1.969,-1.969,-1.8867,-1.7697,-1.7697,-1.6952,-1.5948,-1.5844,-1.5799,-1.5799,-1.5799,-1.5799,-1.5799,-1.5799,-1.5799,-1.5799,-1.5799,-1.5347,-1.4856,-1.4656,-1.4227,-1.3832,-1.3647,-1.3701,-1.3972,-1.458,-1.4643,-1.473,-1.5124,0.0,0.0,0.0,0.0,0.0,0.0,0.0,0.0,0.0,0.0,0.0,0.0,0.0,0.0,0.0,0.0,0.0,0.0,0.0,0.0,0.0,-0.9595,0.0,0.0,0.0,-1.0483,-1.0483,-1.0777,-1.0897,-1.0897,-1.0897,-1.0897,-1.0897,-1.0897,-1.0897,-1.0873,-1.053,-1.0454,-1.0586,-1.1029,-1.1094,-1.0991,-1.1094,-1.115,-1.125,0.0,0.0,0.0,0.0,0.0,0.0,0.0,-2.231,0.0,-2.231,-2.231,-2.231,-2.231,-2.231,-2.231,-2.231,-2.2003,-2.194,-2.2102,-2.1943,-2.1811,-2.1811,-2.1811,0.0,-2.0991,-2.0464,-1.9525,-1.8293,-1.7565,-1.6782,-1.5933,0.0,0.0,0.0,0.0,-1.659,0.0,0.0,0.0,-1.8893,-1.9169,-1.9281,-1.9332,-1.9603,-1.9076,-1.8194,-1.7817,-1.707,-1.6219,-1.5918,-1.5799,-1.5799,-1.5799,-1.5799,-1.5799,-1.5799,-1.5799,-1.5799,-1.5799,-1.5052,-1.4302,-1.4357,-1.3731,-1.3106,-1.3186,-1.3311,-1.3498,-1.3853,-1.3921,-1.3997,-1.4267,-1.4759,0.0,0.0,0.0,0.0,0.0,0.0,0.0,0.0,0.0,0.0,0.0,0.0,0.0,0.0,0.0,0.0,0.0,0.0,0.0,0.0,0.0,0.0,0.0,0.0,0.0,-0.9571,-0.9727,-0.9804,-0.9804,-0.9804,-0.9804,-0.9804,-0.9804,-0.9804,-0.9804,-0.9792,-0.9689,-0.9572,-1.012,-1.0233,-1.0058,-1.0058,-1.0183,-1.0392,0.0,-2.231,0.0,0.0,-2.231,0.0,-2.1781,-2.1751,-2.1886,-2.2254,-2.231,-2.2225,-2.2049,-2.202,-2.202,-2.202,-2.1584,-2.1368,-2.146,-2.1181,-2.0991,-2.0991,-2.0991,-2.0959,-2.0862,-2.0483,-1.9971,0.0,0.0,0.0,0.0,0.0,0.0,0.0,0.0,0.0,0.0,0.0,-1.7981,-1.8145,-1.8574,-1.8727,-1.8779,-1.9207,-1.8882,-1.8131,-1.7581,-1.6905,-1.6154,-1.5787,-1.5712,-1.5799,-1.5799,-1.5799,-1.5799,-1.5799,-1.5799,-1.5799,-1.5799,-1.5049,-1.4231,-1.4212,-1.3568,-1.2939,-1.2915,-1.3069,-1.3226,-1.3226,-1.3294,-1.3372,-1.3581,-1.4514,0.0,0.0,0.0,0.0,0.0,0.0,0.0,0.0,0.0,0.0,0.0,0.0,0.0,0.0,0.0,0.0,-0.7564,-0.7926,0.0,0.0,0.0,-0.8679,-0.8668,0.0,-0.8789,0.0,-0.8789,-0.8789,-0.8789,-0.8789,-0.8789,-0.8789,-0.8789,-0.8706,-0.8584,-0.8923,-0.8881,-0.8601,-0.9118,-0.9224,-0.9047,-0.8955,-0.9092,-0.9357,0.0,0.0,0.0,0.0,0.0,0.0,-2.0174,-1.9945,-2.0514,-2.2077,-2.231,-2.1991,-2.1197,-2.1134,-2.1134,-2.1134,-2.1055,-2.1023,-2.1071,-2.1023,-2.0991,-2.0991,-2.0991,-2.0797,-2.0382,-2.0314,-1.9802,0.0,0.0,0.0,0.0,0.0,0.0,0.0,0.0,0.0,0.0,-1.716,-1.7518,-1.8106,-1.8145,-1.8185,-1.8185,-1.8224,-1.7539,-1.6522,-1.6466,-1.57,-1.476,-1.5058,-1.5448,-1.5799,-1.5799,-1.5799,-1.5799,-1.5799,-1.5799,-1.5799,-1.5799,-1.5709,-1.5375,-1.4443,-1.4123,-1.3797,-1.284,-1.2649,-1.2668,-1.2668,-1.2871,-1.3172,-1.3617,-1.3759,-1.4107,0.0,0.0,0.0,0.0,0.0,0.0,0.0,0.0,0.0,0.0,0.0,0.0,0.0,0.0,0.0,-0.7752,-0.7643,-0.7633,-0.7753,0.0,-0.8315,-0.8245,-0.8601,-0.8789,-0.8789,-0.8789,-0.8789,-0.8789,-0.8789,-0.8789,-0.8789,-0.8789,-0.8417,-0.782,-0.8161,-0.8114,-0.7791,-0.7799,-0.8017,-0.8263,-0.7903,-0.7779,-0.7769,0.0,0.0,0.0,0.0,0.0,0.0,0.0,-1.969,-1.9945,-2.0648,-2.0731,-2.0599,-2.0243,-2.0548,-2.0747,-2.0747,-2.0665,-2.0583,-2.0583,-2.033,-2.0208,-2.0208,-2.0208,-1.9984,-1.9456,-1.9456,-1.9082,0.0,0.0,-1.7379,-1.732,0.0,0.0,0.0,0.0,-1.623,-1.6283,-1.6582,-1.6896,-1.7146,-1.7504,-1.7626,-1.7666,-1.7987,-1.7802,-1.7332,-1.6936,-1.6403,-1.5891,-1.5698,-1.5513,-1.5418,-1.5712,-1.5799,-1.5799,-1.5799,-1.5799,-1.5799,-1.5799,-1.5514,-1.5016,-1.4172,-1.3772,-1.3388,-1.2551,-1.2475,-1.261,-1.261,-1.2703,-1.2764,-1.2794,-1.3104,-1.347,0.0,0.0,0.0,0.0,0.0,0.0,0.0,0.0,0.0,0.0,0.0,0.0,0.0,0.0,0.0,0.0,-0.689,0.0,-0.6969,0.0,-0.7559,-0.754,-0.7685,-0.7907,-0.8138,-0.7907,-0.7772,-0.7772,-0.7772,-0.7656,-0.7414,-0.7414,-0.7248,-0.699,-0.7121,-0.71,-0.6961,-0.6943,-0.7032,-0.715,-0.7002,-0.6943,-0.694,-2.231,0.0,-2.2772,0.0,-1.969,-1.969,-1.969,-1.969,-1.969,-1.969,-1.969,-1.969,-1.969,-2.0085,-2.0326,-2.0326,-2.0208,-2.0124,-2.0124,-1.9874,-1.9639,-1.9479,-1.9442,0.0,-1.8688,-1.865,-1.8496,-1.8106,-1.7484,0.0,-1.738,0.0,0.0,0.0,-1.6256,-1.6207,-1.5969,-1.6358,-1.6522,-1.6522,-1.6909,-1.7076,-1.7118,-1.7504,-1.7518,-1.7316,-1.6861,-1.6525,-1.6263,-1.5951,-1.5525,-1.5241,-1.5669,-1.5799,-1.5799,-1.5799,-1.5799,-1.5799,-1.5799,-1.5454,-1.4917,-1.4259,-1.3733,-1.3214,-1.2525,-1.237,-1.2376,-1.2376,-1.2435,-1.2396,-1.2128,-1.2528,-1.2908,-1.293,0.0,0.0,0.0,0.0,0.0,0.0,-1.0818,-0.9687,-0.8434,0.0,0.0,0.0,0.0,0.0,0.0,0.0,0.0,0.0,0.0,0.0,0.0,-0.6871,-0.7068,-0.7353,-0.7059,-0.6931,-0.6931,-0.6931,-0.676,-0.6488,-0.6488,-0.6427,-0.6305,-0.6175,-0.6114,-0.6106,-0.5991,-0.5952,-0.5952,-0.5929,-0.5867,-0.5787,-2.231,-2.2995,-2.2772,-2.0154,-1.969,-1.969,-1.969,-1.969,-1.969,-1.969,-1.969,-1.969,-1.969,-1.9726,-1.9726,-1.9726,-1.9726,-1.9726,-1.9726,-1.969,-1.9442,0.0,0.0,-1.865,-1.8145,-1.8106,-1.8106,-1.8106,0.0,0.0,-1.8092,0.0,-1.7286,-1.7244,-1.674,-1.6509,-1.6509,-1.6522,-1.6522,-1.6522,-1.6522,-1.6522,-1.6522,-1.6522,-1.6183,-1.5746,-1.5734,-1.5381,-1.498,-1.5359,-1.5403,-1.5355,-1.5683,-1.5799,-1.5799,-1.5799,-1.5799,-1.5799,-1.5799,-1.5799,-1.5634,-1.4974,-1.4288,-1.3615,-1.2951,-1.2291,-1.1826,-1.1826,-1.2024,-1.2107,-1.1854,-1.2039,-1.2423,-1.3084,0.0,0.0,0.0,0.0,0.0,0.0,-1.0568,-0.9478,-0.8663,0.0,0.0,0.0,0.0,0.0,0.0,0.0,0.0,-0.5928,-0.6305,0.0,-0.5913,-0.6305,-0.6518,-0.651,-0.6518,-0.6518,-0.6518,-0.6518,-0.6518,-0.6488,-0.6488,-0.6275,-0.5882,-0.5401,-0.5206,-0.5174,-0.4782,-0.4622,-0.4636,-0.4628,-0.4377,-0.4057,-2.318,-2.3412,-2.2772,-2.0154,-1.969,-1.969,-1.969,-1.969,-1.969,-1.969,-1.969,-1.9132,-1.7666,-1.8817,-1.969,0.0,-1.969,-1.953,0.0,-1.9169,-1.893,-1.838,-1.8341,-1.8106,-1.7585,-1.7544,-1.7394,-1.6993,0.0,0.0,0.0,-1.6837,-1.6752,-1.6752,-1.6595,-1.6522,-1.6522,-1.6522,-1.6522,-1.6522,-1.6522,-1.6522,-1.6522,-1.6522,-1.6409,-1.6258,-1.6258,-1.6087,-1.588,-1.5984,-1.5968,-1.5874,-1.5957,-1.592,-1.5799,-1.5799,-1.5799,-1.5799,-1.5799,-1.5799,-1.5649,-1.4989,-1.4303,-1.363,-1.2966,-1.2269,-1.1805,-1.1805,-1.1703,-1.1564,-1.1468,-1.1678,-1.2081,-1.2758,-1.3164,0.0,0.0,0.0,0.0,0.0,0.0,-1.0116,0.0,-0.8144,0.0,0.0,0.0,0.0,0.0,0.0,0.0,0.0,-0.6067,0.0,-0.5913,-0.6195,-0.6411,-0.6488,-0.6213,-0.5929,-0.5612,-0.5338,-0.5188,-0.5188,-0.4903,-0.4877,-0.4973,-0.4558,-0.4366,-0.4371,-0.4248,-0.424,-0.4332,-0.4337,-0.4302,-0.4323,-2.3595,-2.3595,-2.2772,-2.0154,-1.969,-1.969,-1.969,-1.969,-1.969,-1.969,-1.969,-1.9043,-1.7312,-1.7947,0.0,-1.8893,-1.9043,-1.8968,-1.8612,-1.8612,-1.838,-1.7827,-1.7787,-1.7544,-1.6993,0.0,0.0,-1.6522,-1.6522,-1.6522,-1.6522,-1.6522,-1.6522,-1.6522,-1.6522,-1.6522,-1.6522,-1.6522,-1.6522,-1.6522,-1.6522,-1.6522,-1.6522,-1.6522,-1.6522,-1.6522,-1.6522,-1.6452,-1.6393,-1.6393,-1.6284,-1.6163,-1.6163,-1.6035,-1.586,-1.569,-1.5618,-1.556,-1.5357,-1.5329,-1.5257,-1.4977,-1.4306,-1.3484,-1.2746,-1.2087,-1.1689,-1.1917,-1.1669,-1.1513,-1.1714,-1.1901,-1.2157,-1.2684,-1.2884,-1.3074,-1.3344,0.0,0.0,0.0,0.0,0.0,0.0,-0.8619,0.0,0.0,0.0,0.0,0.0,0.0,0.0,-0.5645,-0.5806,0.0,-0.5692,-0.5753,-0.5825,-0.5887,-0.5557,-0.5188,-0.4738,-0.45,-0.4377,-0.4377,-0.4118,-0.4151,-0.4344,-0.3918,-0.3771,-0.3846,-0.3846,-0.383,-0.378,-0.3735,-0.3812,-0.391,-2.3595,-2.3595,0.0,0.0,-1.9959,0.0,-1.972,-1.969,-1.969,-1.969,-1.9566,-1.9095,-1.8106,-1.7183,-1.6842,-1.7476,0.0,0.0,0.0,-1.8054,-1.7882,-1.7337,-1.7295,-1.7057,-1.6572,-1.6534,-1.6522,-1.6522,-1.6522,-1.6522,-1.6522,-1.6522,-1.6522,-1.6522,-1.6522,-1.6522,-1.6522,-1.6522,-1.6522,-1.6522,-1.6522,-1.6522,-1.6522,-1.6522,-1.6522,-1.6522,-1.6522,-1.6522,-1.6522,-1.6522,-1.6408,-1.6323,-1.6323,-1.6214,-1.601,-1.5524,-1.5339,-1.5174,-1.4676,-1.4529,-1.4596,-1.4968,-1.4258,-1.3271,-1.2413,-1.1799,-1.1527,-1.2092,-1.1952,-1.1857,-1.2319,-1.2427,-1.2499,-1.2719,-1.2386,-1.2158,-1.2425,0.0,0.0,0.0,0.0,0.0,0.0,-0.8933,-0.8177,0.0,0.0,0.0,0.0,0.0,-0.5786,-0.6072,-0.5539,-0.5276,-0.5222,-0.5031,-0.4899,-0.486,-0.4653,-0.4344,-0.3961,-0.3961,-0.3961,-0.3961,-0.3928,-0.3928,-0.3928,-0.3475,-0.3382,-0.3543,-0.3556,-0.3376,-0.3056,-0.2927,-0.2937,-0.2972,0.0,0.0,-2.34,-2.2772,-2.2682,-2.1994,-1.9989,-1.969,-1.969,-1.969,-1.8263,-1.7146,-1.6909,-1.7409,-1.7541,-1.6829,-1.7585,-1.7947,-1.7504,-1.7902,-1.7925,-1.7384,-1.7384,-1.7295,-1.7174,-1.6748,-1.6522,-1.6522,-1.6522,-1.6522,-1.6522,-1.6522,-1.6522,-1.6522,-1.6522,-1.6522,-1.6522,-1.6522,-1.6522,-1.6522,-1.6522,-1.6522,-1.6522,-1.6522,-1.6522,-1.6522,-1.6522,-1.6522,-1.6522,-1.6522,-1.6464,-1.6435,-1.6435,-1.643,-1.6357,-1.6009,-1.562,-1.527,-1.5167,-1.4814,-1.4533,-1.4627,-1.4076,-1.3308,-1.2595,-1.2306,-1.2264,-1.2389,-1.2155,-1.1843,-1.1627,-1.1746,-1.1773,-1.1419,-1.1641,-1.1881,-1.1982,-1.1884,0.0,0.0,-1.0733,-0.9992,-0.8981,-0.839,-0.778,0.0,0.0,0.0,0.0,-0.5693,-0.4999,-0.484,-0.493,-0.4857,-0.4613,-0.4801,-0.4721,-0.4372,-0.4228,-0.3891,-0.3458,-0.3458,-0.3458,-0.3458,-0.3138,-0.3171,-0.3438,-0.3113,-0.3015,-0.3061,-0.3175,-0.2962,-0.2637,-0.2593,-0.2398,-0.208,-2.337,-2.3595,-2.3595,-2.3595,-2.2607,-2.1335,-1.9899,-1.8855,-1.8263,-1.8263,-1.7229,-1.6522,-1.6522,-1.7965,-1.8417,-1.7137,-1.7722,-1.7925,-1.7377,-1.7661,-1.7721,-1.742,-1.7137,-1.7112,-1.7375,-1.681,-1.6522,-1.6522,-1.6522,-1.6522,-1.6522,-1.6522,-1.6522,-1.6522,-1.6522,-1.6522,-1.6522,-1.6522,-1.6522,-1.6522,-1.6522,-1.6522,-1.6522,-1.6522,-1.6522,-1.6522,-1.6522,-1.6522,-1.6522,-1.6522,-1.6522,-1.6522,-1.6522,-1.6522,-1.6481,-1.6335,-1.589,-1.5362,-1.4871,-1.4536,-1.4265,-1.3954,-1.3704,-1.3359,-1.2826,-1.2472,-1.2352,-1.2633,-1.2432,-1.2114,-1.1895,-1.1967,-1.1908,-1.1395,-1.1366,-1.1431,-1.1431,-1.1255,0.0,-1.037,-1.005,-0.9451,-0.8439,-0.8077,-0.7655,-0.7063,0.0,0.0,-0.6592,-0.5397,-0.4822,-0.5196,-0.4859,-0.4569,-0.4419,-0.4391,-0.4237,-0.392,-0.3756,-0.3462,-0.3035,-0.3035,-0.3035,-0.3003,-0.2812,-0.2851,-0.3094,-0.2944,-0.284,-0.2728,-0.2796,-0.2571,-0.2158,-0.1857,-0.1795,-0.1739,-2.2527,-2.3024,-2.3024,-2.3024,-2.1184,-1.9701,-1.9701,-1.815,-1.7011,-1.7011,-1.7011,-1.7011,-1.7011,-1.8681,-1.9208,-1.7739,-1.8129,-1.8141,-1.7438,-1.7539,-1.7626,-1.7626,-1.7162,-1.7124,-1.7614,-1.7061,-1.6735,-1.6647,-1.6647,-1.6609,-1.6522,-1.6522,-1.6522,-1.6522,-1.6522,-1.6522,-1.6522,-1.6522,-1.6522,-1.6522,-1.6522,-1.6522,-1.6522,-1.6522,-1.6522,-1.6522,-1.6522,-1.6522,-1.6522,-1.6522,-1.6522,-1.6522,-1.6522,-1.6522,-1.6522,-1.6522,-1.6183,-1.558,-1.4513,-1.4085,-1.3846,-1.3311,-1.335,-1.3377,-1.3017,-1.2563,-1.2342,-1.2849,-1.2679,-1.2427,-1.2484,-1.2435,-1.2217,-1.1726,-1.1276,-1.094,-1.0916,0.0,-1.0,-0.9558,-0.9359,-0.8918,-0.7995,-0.7829,-0.753,-0.6937,-0.6386,-0.605,0.0,-0.4913,-0.4783,-0.5873,-0.487,-0.4264,-0.4264,-0.3874,-0.3625,-0.3509,-0.3326,-0.3062,-0.2712,-0.2706,-0.2717,-0.2717,-0.2717,-0.2767,-0.2795,-0.2817,-0.2656,-0.2349,-0.2406,-0.2076,-0.1607,-0.1073,-0.1163,-0.1474,-1.993,-2.037,-2.037,-2.037,-2.0036,-1.9804,-1.9804,-1.952,-1.9296,-1.9296,-1.9296,-1.9296,-1.9296,-1.9597,-1.9208,-1.7739,-1.8807,-1.8932,-1.7476,-1.8254,-1.8769,-1.8769,-1.8632,-1.8681,-1.8769,-1.8229,-1.7714,-1.725,-1.725,-1.6999,-1.6522,-1.6522,-1.6522,-1.6522,-1.6522,-1.6522,-1.6522,-1.6522,-1.6522,-1.6522,-1.6522,-1.6522,-1.6522,-1.6522,-1.6522,-1.6522,-1.6522,-1.6522,-1.6522,-1.6522,-1.6522,-1.6522,-1.6522,-1.6522,-1.6522,-1.6522,-1.6459,-1.6145,-1.5079,-1.4061,-1.3311,-1.3223,-1.3238,-1.323,-1.3162,-1.3065,-1.3028,-1.3116,-1.2808,-1.2461,-1.2404,-1.2107,-1.1646,-1.1126,-1.0964,-1.0804,-1.0449,0.0,-0.9597,-0.9518,-0.8716,-0.8077,-0.7912,-0.7447,-0.6901,-0.6349,-0.5787,-0.5437,-0.5437,-0.436,-0.4008,-0.4648,-0.4052,-0.3707,-0.3707,-0.3394,-0.3187,-0.3159,-0.3013,-0.2874,-0.2716,-0.2815,-0.2873,-0.2873,-0.2873,-0.2658,-0.2325,-0.2502,-0.2236,-0.1769,-0.1875,-0.1554,-0.1029,-0.094,-0.0627,-0.0269,-1.9597,-1.9798,-1.9798,-1.9798,-1.9798,-1.9798,-1.9798,-1.9798,-1.9798,-1.9798,-1.9798,-1.9798,-1.9798,-1.9798,-1.9371,-1.8292,-1.9183,-1.9359,-1.8342,-1.8744,-1.8983,-1.8983,-1.8744,-1.8581,-1.8581,-1.8342,-1.794,-1.7388,-1.7074,-1.6773,-1.6466,-1.6194,-1.6008,-1.6008,-1.6008,-1.6008,-1.6051,-1.638,-1.6522,-1.6466,-1.6151,-1.6008,-1.5964,-1.5644,-1.5732,-1.6008,-1.6008,-1.6238,-1.6522,-1.6522,-1.6522,-1.6522,-1.6522,-1.6522,-1.6423,-1.6095,-1.6028,-1.5906,-1.509,-1.4088,-1.3192,-1.2911,-1.2838,-1.2768,-1.2508,-1.265,-1.2756,-1.2508,-1.2282,-1.2105,-1.2051,-1.1831,-1.1511,-1.0818,-1.0592,0.0,0.0,-0.9331,-0.8958,-0.8675,-0.8201,-0.7787,-0.7447,-0.7154,-0.6894,-0.6641,-0.5825,-0.5437,-0.5787,-0.4403,-0.3836,-0.4391,-0.388,-0.3581,-0.3581,-0.3358,-0.3242,-0.3242,-0.3093,-0.2988,-0.292,-0.2991,-0.3022,-0.2984,-0.2682,-0.2446,-0.2356,-0.2119,-0.1702,-0.122,-0.1287,-0.0939,-0.0403,-0.0403,-0.0224,0.0,-1.9798,-1.9798,-1.9798,-1.9798,-1.9798,-1.9798,-1.9798,-1.9798,-1.9798,-1.9798,-1.9798,-1.9798,-1.9798,-1.9798,-1.9522,-1.8844,-1.9409,-1.9572,-1.907,-1.9145,-1.9208,-1.9208,-1.8807,-1.8581,-1.8581,-1.8581,-1.8304,-1.7765,-1.7119,-1.6744,-1.6621,-1.6001,-1.5671,-1.5671,-1.5671,-1.5671,-1.5717,-1.6061,-1.6203,-1.6191,-1.5603,-1.541,-1.532,-1.488,-1.4971,-1.541,-1.541,-1.5688,-1.6064,-1.6064,-1.6064,-1.6064,-1.6064,-1.6064,-1.5964,-1.5543,-1.5444,-1.533,-1.4792,-1.3886,-1.2986,-1.2599,-1.2412,-1.2246,-1.1884,-1.2066,-1.2246,-1.1884,-1.179,-1.1795,-1.1825,-1.184,-1.1649,-1.1064,0.0,0.0,0.0,-0.8856,-0.8357,-0.7961,-0.7787,-0.7489,-0.7063,-0.6979,-0.6937,-0.681,-0.5867,-0.5437,-0.5744,-0.4403,-0.3796,-0.422,-0.3796,-0.3581,-0.3581,-0.3383,-0.3351,-0.3392,-0.3229,-0.3115,-0.3085,-0.3001,-0.2978,-0.2935,-0.2342,-0.208,-0.2086,-0.1619,-0.1131,-0.0672,-0.0672,-0.0403,0.0,0.0,0.0,0.0,-1.9798,-1.9798,-1.9798,-1.9798,-1.9798,-1.9798,-1.9798,-1.9798,-1.9798,-1.9798,-1.9798,-1.9798,-1.9798,-1.9798,-1.9585,-1.9045,-1.9497,-1.9572,-1.907,-1.9472,-1.9748,-1.9748,-1.971,-1.9685,-1.9685,-1.9685,-1.9422,-1.8907,-1.8163,-1.7514,-1.7038,-1.6303,-1.5953,-1.5953,-1.5953,-1.5953,-1.592,-1.556,-1.5407,-1.5373,-1.4923,-1.4744,-1.4744,-1.4709,-1.4744,-1.4744,-1.4744,-1.4789,-1.4835,-1.4835,-1.4835,-1.4835,-1.4835,-1.4835,-1.4835,-1.4789,-1.4767,-1.4677,-1.4136,-1.326,-1.2441,-1.2407,-1.2148,-1.1847,-1.1811,-1.1811,-1.1847,-1.1811,-1.1752,-1.1806,-1.2173,-1.2192,-1.2148,-1.2076,0.0,0.0,-1.011,-0.8823,-0.7953,-0.7919,-0.7405,-0.7063,-0.7021,-0.6979,-0.681,-0.6307,-0.5653,-0.5087,-0.4561,-0.3924,-0.3622,-0.3667,-0.3622,-0.3581,-0.3581,-0.3383,-0.3351,-0.3392,-0.3337,-0.3216,-0.3085,-0.2696,-0.2542,-0.2501,-0.192,-0.1413,-0.1025,-0.098,-0.0581,-0.0045,-0.0045,-0.0045,0.0,0.0,0.0,0.009,-1.9798,-1.9798,-1.9798,-1.9798,-1.9798,-1.9798,-1.9798,-1.9798,-1.9798,-1.9798,-1.9798,-1.9798,-1.9798,-1.9798,-1.9723,-1.9522,-1.9685,-1.971,-1.9522,-1.9698,-1.9798,-1.9798,-1.9798,-1.9798,-1.9798,-1.9039,-1.8503,-1.8321,-1.7256,-1.6598,-1.6416,-1.5771,-1.5423,-1.5423,-1.5423,-1.5423,-1.5464,-1.5664,-1.5725,-1.5643,-1.4855,-1.4516,-1.4446,-1.3809,-1.3836,-1.4143,-1.4143,-1.4376,-1.4698,-1.4698,-1.4698,-1.4698,-1.4698,-1.4698,-1.4606,-1.4236,-1.3884,-1.3532,-1.3356,-1.3055,-1.2733,-1.2402,-1.224,-1.2031,-1.1757,-1.1699,-1.173,-1.1664,-1.143,-1.1326,-1.1767,-1.1866,-1.1583,-1.0785,0.0,-0.9535,-0.8612,-0.7845,-0.7321,-0.7321,-0.7147,-0.6979,-0.6979,-0.6979,-0.6768,-0.6221,-0.5653,-0.5043,-0.443,-0.388,-0.3581,-0.3581,-0.3581,-0.3581,-0.3581,-0.352,-0.3493,-0.3537,-0.3493,-0.3285,-0.2845,-0.2679,-0.244,-0.2049,-0.1441,-0.1058,-0.0851,-0.0493,-0.0225,0.0,0.0,0.0,0.0,0.0,0.0224,0.0583,-1.9798,-1.9798,-1.9798,-1.9798,-1.9798,-1.9798,-1.9798,-1.9798,-1.9798,-1.9798,-1.9798,-1.9798,-1.9798,-1.9798,-1.9798,-1.9798,-1.9579,-1.9475,-1.9475,-1.9254,-1.9202,-1.9423,-1.9254,-1.9097,-1.9097,-1.8253,-1.7816,-1.7816,-1.6688,-1.6166,-1.6166,-1.5498,-1.5185,-1.5185,-1.5185,-1.5185,-1.5229,-1.549,-1.5626,-1.5531,-1.4656,-1.4328,-1.4246,-1.352,-1.3471,-1.3721,-1.3721,-1.3905,-1.4107,-1.4107,-1.4107,-1.4107,-1.4107,-1.4107,-1.4061,-1.3647,-1.3238,-1.2881,-1.2881,-1.2969,-1.2929,-1.2389,-1.2164,-1.2019,-1.1683,-1.1626,-1.1653,-1.1624,-1.1436,-1.1377,-1.1577,-1.1582,-1.121,-1.0211,-0.9487,-0.8779,-0.7951,-0.7337,-0.6979,-0.6979,-0.6979,-0.6937,-0.6768,-0.6768,-0.6513,-0.5959,-0.5351,-0.4783,-0.418,-0.3796,-0.3581,-0.3581,-0.3398,-0.3306,-0.3306,-0.349,-0.349,-0.3306,-0.3306,-0.299,-0.2406,-0.2228,-0.1919,-0.1474,-0.0895,-0.0627,-0.0583,-0.018,0.009,0.0269,0.0269,0.0404,0.0583,0.0583,0.0806,0.1207,-1.9798,-1.9798,-1.9798,-1.9798,-1.9798,-1.9798,-1.9798,-1.9798,-1.9798,-1.9798,-1.9798,-1.9798,-1.9798,-1.9798,-1.9798,-1.9798,-1.9097,-1.8715,-1.8715,-1.8015,-1.7907,-1.8661,-1.8015,-1.7578,-1.7578,-1.7567,-1.7578,-1.7578,-1.6866,-1.6492,-1.6492,-1.5748,-1.541,-1.541,-1.541,-1.541,-1.5381,-1.4971,-1.4785,-1.4746,-1.4316,-1.4087,-1.4087,-1.4077,-1.3877,-1.3506,-1.3506,-1.3242,-1.2881,-1.2881,-1.2881,-1.2881,-1.2881,-1.2881,-1.2881,-1.2881,-1.2881,-1.2881,-1.2881,-1.2881,-1.2773,-1.2344,-1.1904,-1.1616,-1.1616,-1.1606,-1.1606,-1.1616,-1.1924,-1.2044,-1.1694,-1.1488,-1.125,-1.0858,-0.9495,-0.8488,-0.8488,-0.7638,-0.6985,-0.6985,-0.6985,-0.6768,-0.6264,-0.6179,-0.5964,-0.5346,-0.4739,-0.4176,-0.3622,-0.3581,-0.3581,-0.3581,-0.299,-0.2672,-0.2672,-0.3306,-0.3306,-0.2672,-0.2672,-0.2361,-0.1784,-0.1163,-0.0895,-0.0851,-0.0269,0.0,0.0,0.0,0.0359,0.0895,0.0895,0.1252,0.1786,0.1786,0.1786,0.1873,-1.915,-1.9423,-1.9643,-1.9097,-1.9044,-1.9044,-1.9044,-1.8608,-1.8447,-1.898,-1.9044,-1.9044,-1.9044,-1.9044,-1.8821,-1.8286,-1.807,-1.7961,-1.7961,-1.7246,-1.6922,-1.7146,-1.7413,-1.7578,-1.7578,-1.709,-1.681,-1.681,-1.6083,-1.5748,-1.569,-1.5526,-1.541,-1.541,-1.541,-1.541,-1.54,-1.5283,-1.5225,-1.5186,-1.4766,-1.459,-1.4561,-1.4248,-1.3877,-1.3506,-1.3506,-1.3242,-1.2881,-1.2881,-1.2881,-1.2881,-1.2881,-1.2881,-1.2881,-1.2881,-1.2881,-1.2881,-1.2881,-1.2881,-1.2852,-1.2725,-1.2588,-1.2528,-1.2528,-1.2246,-1.2119,-1.2422,-1.195,-1.1444,-1.1325,-1.0921,-1.0303,-0.9438,-0.8936,-0.8516,-0.8115,-0.7664,-0.7335,-0.7335,-0.681,-0.6392,-0.6221,-0.583,-0.5308,-0.4696,-0.4136,-0.3751,-0.3626,-0.3214,-0.2987,-0.2987,-0.2364,-0.2051,-0.2051,-0.223,-0.223,-0.2051,-0.2051,-0.1741,-0.1163,-0.0984,-0.0672,-0.0269,-0.009,0.0224,0.0627,0.0627,0.0984,0.1518,0.1518,0.1652,0.1786,0.1786,0.2051,0.245,-1.8797,-1.8838,-1.8839,-1.8608,-1.836,-1.8286,-1.8286,-1.7907,-1.7731,-1.8232,-1.8286,-1.8356,-1.851,-1.8533,-1.8449,-1.8136,-1.7698,-1.7316,-1.7031,-1.6415,-1.6175,-1.6348,-1.6566,-1.6743,-1.6743,-1.6312,-1.6036,-1.6036,-1.5642,-1.541,-1.541,-1.541,-1.541,-1.541,-1.541,-1.541,-1.541,-1.541,-1.541,-1.5391,-1.5137,-1.5039,-1.501,-1.4736,-1.4375,-1.4014,-1.4014,-1.3633,-1.3135,-1.3135,-1.3018,-1.2881,-1.2881,-1.2881,-1.2881,-1.2881,-1.2666,-1.2452,-1.2452,-1.2255,-1.2058,-1.2058,-1.2471,-1.2822,-1.255,-1.2253,-1.2053,-1.2052,-1.1496,-1.0985,-1.0837,-1.0285,-0.9603,-0.8848,-0.8522,-0.8294,-0.7929,-0.7523,-0.7224,-0.716,-0.6425,-0.5804,-0.5534,-0.5173,-0.4696,-0.4136,-0.3796,-0.349,-0.3262,-0.2898,-0.2583,-0.2361,-0.1739,-0.1429,-0.1429,-0.1207,-0.1207,-0.1429,-0.1429,-0.1118,-0.0538,-0.0538,-0.0224,0.0359,0.0359,0.0716,0.1252,0.1252,0.1607,0.214,0.214,0.2319,0.2499,0.2499,0.2721,0.3078,-1.8685,-1.82,-1.7846,-1.8189,-1.7889,-1.7601,-1.7601,-1.7501,-1.749,-1.759,-1.7612,-1.7723,-1.8211,-1.8267,-1.8386,-1.8698,-1.7733,-1.6847,-1.6174,-1.5713,-1.5664,-1.6103,-1.5703,-1.5469,-1.5469,-1.543,-1.541,-1.541,-1.541,-1.541,-1.541,-1.541,-1.541,-1.541,-1.541,-1.541,-1.541,-1.541,-1.541,-1.541,-1.541,-1.541,-1.541,-1.541,-1.5146,-1.4785,-1.4785,-1.4258,-1.3555,-1.3413,-1.3152,-1.2832,-1.2735,-1.2725,-1.2725,-1.2725,-1.2246,-1.1715,-1.1715,-1.1266,-1.0813,-1.0813,-1.1742,-1.2559,-1.1873,-1.1715,-1.1566,-1.0914,-1.0762,-1.0622,-1.0246,-0.9709,-0.9227,-0.8787,-0.8283,-0.7961,-0.7913,-0.7279,-0.6782,-0.6608,-0.5918,-0.5171,-0.4477,-0.4355,-0.4136,-0.3622,-0.3534,-0.3262,-0.2719,-0.2583,-0.2273,-0.1741,-0.1118,-0.0806,-0.0806,-0.0269,-0.0269,-0.0806,-0.0806,-0.0493,0.009,0.009,0.0403,0.0984,0.0984,0.134,0.1873,0.1873,0.223,0.2763,0.2763,0.3126,0.3626,0.3667,0.3667,0.3751,-1.8105,-1.8338,-1.8467,-1.7988,-1.7804,-1.773,-1.773,-1.7018,-1.6736,-1.7627,-1.7482,-1.744,-1.7835,-1.7888,-1.7686,-1.7191,-1.6677,-1.6394,-1.6562,-1.6172,-1.6113,-1.6572,-1.6162,-1.5918,-1.5918,-1.5586,-1.541,-1.541,-1.541,-1.541,-1.541,-1.541,-1.541,-1.541,-1.541,-1.541,-1.541,-1.541,-1.541,-1.541,-1.541,-1.541,-1.541,-1.541,-1.5146,-1.4785,-1.4785,-1.4443,-1.384,-1.2982,-1.266,-1.2428,-1.153,-1.1275,-1.1275,-1.1275,-1.1124,-1.1015,-1.1015,-1.0914,-1.0813,-1.0813,-1.1023,-1.1225,-1.1065,-1.1015,-1.0965,-1.0813,-1.0364,-0.999,-0.9921,-0.9364,-0.8892,-0.8772,-0.8662,-0.8404,-0.782,-0.7434,-0.6974,-0.6357,-0.5564,-0.4914,-0.4675,-0.4133,-0.3707,-0.3626,-0.317,-0.2851,-0.2719,-0.1786,-0.1251,-0.1118,-0.0493,-0.018,-0.018,-0.0045,-0.0045,-0.018,-0.018,0.0135,0.0716,0.0716,0.1029,0.1607,0.1607,0.1962,0.2495,0.2495,0.2854,0.3398,0.3398,0.349,0.3667,0.4092,0.422,0.4308,-1.7873,-1.7852,-1.7802,-1.761,-1.7405,-1.7264,-1.7264,-1.6763,-1.6579,-1.7171,-1.7062,-1.7154,-1.7536,-1.7587,-1.755,-1.7324,-1.6943,-1.6797,-1.7031,-1.6631,-1.6582,-1.7021,-1.6621,-1.6484,-1.6689,-1.6055,-1.5615,-1.541,-1.541,-1.541,-1.541,-1.541,-1.541,-1.541,-1.541,-1.541,-1.541,-1.541,-1.541,-1.541,-1.541,-1.5167,-1.4815,-1.4815,-1.4683,-1.4438,-1.4081,-1.3654,-1.3146,-1.2356,-1.2118,-1.2029,-1.1444,-1.1157,-1.1025,-1.1025,-1.0697,-1.0312,-1.0312,-1.0064,-0.9865,-0.9865,-0.9865,-0.9917,-1.0261,-1.0312,-1.021,-0.9909,-0.9562,-0.9309,-0.9309,-0.9061,-0.8699,-0.8321,-0.8262,-0.799,-0.7289,-0.6749,-0.6263,-0.585,-0.5038,-0.4485,-0.4283,-0.3674,-0.3239,-0.3176,-0.263,-0.214,-0.1873,-0.1251,-0.0761,-0.0493,-0.018,0.0,0.0,0.0,0.0,0.0,0.0,0.018,0.0493,0.0761,0.1251,0.183,0.2095,0.2586,0.3126,0.3126,0.3306,0.3581,0.3581,0.3581,0.3622,0.3921,0.4351,0.4913,-1.7871,-1.7441,-1.7061,-1.7422,-1.7187,-1.6953,-1.6953,-1.6885,-1.6865,-1.6943,-1.6885,-1.7012,-1.7441,-1.749,-1.7627,-1.7978,-1.7627,-1.7412,-1.749,-1.708,-1.7041,-1.7471,-1.707,-1.7012,-1.7373,-1.6592,-1.5967,-1.5527,-1.5449,-1.541,-1.541,-1.5488,-1.5527,-1.5527,-1.5605,-1.5635,-1.5635,-1.5557,-1.5459,-1.5332,-1.5254,-1.4688,-1.3965,-1.3965,-1.3965,-1.3914,-1.3252,-1.2759,-1.2388,-1.1841,-1.1648,-1.1583,-1.1415,-1.1202,-1.1018,-1.0955,-1.0371,-0.968,-0.9629,-0.9211,-0.8804,-0.8804,-0.8699,-0.8745,-0.9295,-0.9555,-0.9458,-0.891,-0.8804,-0.8752,-0.8639,-0.8593,-0.8374,-0.7616,-0.7503,-0.7235,-0.6529,-0.5873,-0.5433,-0.5185,-0.4572,-0.4045,-0.3697,-0.322,-0.278,-0.2575,-0.1984,-0.144,-0.094,-0.0806,-0.0538,0.0,0.0,0.0,0.0,0.009,0.0135,0.0135,0.0269,0.0314,0.0314,0.094,0.1518,0.2142,0.263,0.3126,0.3581,0.3581,0.3581,0.3626,0.3707,0.3751,0.3751,0.3972,0.4705,0.5647,-1.7988,-1.792,-1.7852,-1.791,-1.7881,-1.7832,-1.7832,-1.7529,-1.7422,-1.7793,-1.7519,-1.7451,-1.7881,-1.793,-1.7949,-1.8008,-1.7627,-1.7539,-1.79,-1.7529,-1.748,-1.791,-1.7519,-1.7324,-1.7383,-1.6894,-1.6426,-1.6037,-1.5596,-1.541,-1.542,-1.5801,-1.6037,-1.5986,-1.6377,-1.649,-1.6523,-1.6143,-1.5594,-1.4946,-1.4538,-1.3906,-1.3191,-1.3191,-1.3191,-1.313,-1.307,-1.2984,-1.2756,-1.1732,-1.1381,-1.1218,-1.0263,-0.9935,-0.9852,-0.9584,-0.937,-0.9228,-0.8977,-0.8857,-0.8804,-0.8804,-0.8321,-0.7883,-0.7984,-0.8474,-0.891,-0.8804,-0.8804,-0.8586,-0.7943,-0.783,-0.7616,-0.6858,-0.675,-0.6475,-0.576,-0.5542,-0.5261,-0.4707,-0.4378,-0.3915,-0.3245,-0.2998,-0.2649,-0.1982,-0.1367,-0.0976,-0.0897,-0.0403,-0.009,0.0,0.0,0.0,0.0,0.0538,0.0761,0.0806,0.1295,0.1563,0.1563,0.2184,0.2765,0.3353,0.3442,0.3534,0.3581,0.3581,0.3581,0.3667,0.4092,0.4303,0.4434,0.5486,0.6258,0.6768,-1.8008,-1.8008,-1.8008,-1.8008,-1.8008,-1.8008,-1.8008,-1.7852,-1.7803,-1.7988,-1.7852,-1.7803,-1.7988,-1.8008,-1.8008,-1.8008,-1.7842,-1.7812,-1.7998,-1.7842,-1.7812,-1.8008,-1.7832,-1.7734,-1.7734,-1.7314,-1.7002,-1.6797,-1.6367,-1.6152,-1.6152,-1.6348,-1.6436,-1.6445,-1.6641,-1.6392,-1.5918,-1.5722,-1.5133,-1.435,-1.4124,-1.3548,-1.2858,-1.2858,-1.2726,-1.2523,-1.239,-1.2027,-1.1578,-1.1069,-1.0904,-1.0814,-1.0329,-1.006,-0.99,-0.9766,-0.9613,-0.9459,-0.9332,-0.8944,-0.8565,-0.8477,-0.788,-0.723,-0.7101,-0.7343,-0.7563,-0.7563,-0.7563,-0.745,-0.7128,-0.7074,-0.6853,-0.6091,-0.5982,-0.5764,-0.5058,-0.4948,-0.4673,-0.3956,-0.3413,-0.2925,-0.2501,-0.2144,-0.1735,-0.1329,-0.0737,-0.0391,-0.0384,-0.0144,0.0,0.0,0.0384,0.057,0.0511,0.1157,0.1463,0.1429,0.2008,0.214,0.183,0.2406,0.2854,0.3126,0.3442,0.3581,0.3622,0.3924,0.4049,0.4092,0.4696,0.4913,0.5,0.5873,0.6349,0.6605]},{"header":{"parameterUnit":"m.s-1","parameterCategory":1,"la1":30.6,"la2":28.766,"lo1":-90.7593,"lo2":-88.6598,"dy":0.0162,"dx":0.0183,"nx":116,"ny":114,"refTime":"2024-05-19T12:00:00:Z","depth":0,"parameterNumber":3,"parameterNumberName":"V-component_of_WINDS"},"data":[0.0,0.0,0.0,0.0,0.0,0.0,0.0,0.0,0.0,0.0,0.0,0.0,0.0,0.0,0.0,0.0,0.0,0.0,0.0,0.0,0.0,0.0,0.0,0.0,0.0,0.0,0.0,0.0,0.0,0.0,0.0,0.0,0.0,0.0,0.0,0.0,0.0,0.0,0.0,0.0,0.0,0.0,0.0,0.0,0.0,0.0,0.0,0.0,0.0,0.0,0.0,0.0,0.0,0.0,0.0,0.0,0.0,0.0,0.0,0.0,0.0,0.0,0.0,0.0,0.0,0.0,0.0,0.0,0.0,0.0,0.0,0.0,0.0,0.0,0.0,0.0,0.0,0.0,0.0,0.0,0.0,0.0,0.0,0.0,0.0,0.0,0.0,0.0,0.0,0.0,0.0,0.0,0.0,0.0,0.0,0.0,0.0,0.0,0.0,0.0,0.0,0.0,0.0,0.0,0.0,0.0,0.0,0.0,0.0,0.0,0.0,0.0,0.0,0.0,0.0,0.0,0.0,0.0,0.0,0.0,0.0,0.0,0.0,0.0,0.0,0.0,0.0,0.0,0.0,0.0,0.0,0.0,0.0,0.0,0.0,0.0,0.0,0.0,0.0,0.0,0.0,0.0,0.0,0.0,0.0,0.0,0.0,0.0,0.0,0.0,0.0,0.0,0.0,0.0,0.0,0.0,0.0,0.0,0.0,0.0,0.0,0.0,0.0,0.0,0.0,0.0,0.0,0.0,0.0,0.0,0.0,0.0,0.0,0.0,0.0,0.0,0.0,0.0,0.0,0.0,0.0,0.0,0.0,0.0,0.0,0.0,0.0,0.0,0.0,0.0,0.0,0.0,0.0,0.0,0.0,0.0,0.0,0.0,0.0,0.0,0.0,0.0,0.0,0.0,0.0,0.0,0.0,0.0,0.0,0.0,0.0,0.0,0.0,0.0,0.0,0.0,0.0,0.0,0.0,0.0,0.0,0.0,0.0,0.0,0.0,0.0,0.0,0.0,0.0,0.0,0.0,0.0,0.0,0.0,0.0,0.0,0.0,0.0,0.0,0.0,0.0,0.0,0.0,0.0,0.0,0.0,0.0,0.0,0.0,0.0,0.0,0.0,0.0,0.0,0.0,0.0,0.0,0.0,0.0,0.0,0.0,0.0,0.0,0.0,0.0,0.0,0.0,0.0,0.0,0.0,0.0,0.0,0.0,0.0,0.0,0.0,0.0,0.0,0.0,0.0,0.0,0.0,0.0,0.0,0.0,0.0,0.0,0.0,0.0,0.0,0.0,0.0,0.0,0.0,0.0,0.0,0.0,0.0,0.0,0.0,0.0,0.0,0.0,0.0,0.0,0.0,0.0,0.0,0.0,0.0,0.0,0.0,0.0,0.0,0.0,0.0,0.0,0.0,0.0,0.0,0.0,0.0,0.0,0.0,0.0,0.0,0.0,0.0,0.0,0.0,0.0,0.0,0.0,0.0,0.0,0.0,0.0,0.0,0.0,0.0,0.0,0.0,0.0,0.0,0.0,0.0,0.0,0.0,0.0,0.0,0.0,0.0,0.0,0.0,0.0,0.0,0.0,0.0,0.0,0.0,0.0,0.0,0.0,0.0,0.0,0.0,0.0,0.0,0.0,0.0,0.0,0.0,0.0,0.0,0.0,0.0,0.0,0.0,0.0,0.0,0.0,0.0,0.0,0.0,0.0,0.0,0.0,0.0,0.0,0.0,0.0,0.0,0.0,0.0,0.0,0.0,0.0,0.0,0.0,0.0,0.0,0.0,0.0,0.0,0.0,0.0,0.0,0.0,0.0,0.0,0.0,0.0,0.0,0.0,0.0,0.0,0.0,0.0,0.0,0.0,0.0,0.0,0.0,0.0,0.0,0.0,0.0,0.0,0.0,0.0,0.0,0.0,0.0,0.0,0.0,0.0,0.0,0.0,0.0,0.0,0.0,0.0,0.0,0.0,0.0,0.0,0.0,0.0,0.0,0.0,0.0,0.0,0.0,0.0,0.0,0.0,0.0,0.0,0.0,0.0,0.0,0.0,0.0,0.0,0.0,0.0,0.0,0.0,0.0,0.0,0.0,0.0,0.0,0.0,0.0,0.0,0.0,0.0,0.0,0.0,0.0,0.0,0.0,0.0,0.0,0.0,0.0,0.0,0.0,0.0,0.0,0.0,0.0,0.0,0.0,0.0,0.0,0.0,0.0,0.0,0.0,0.0,0.0,0.0,0.0,0.0,0.0,0.0,0.0,0.0,0.0,0.0,0.0,0.0,0.0,0.0,0.0,0.0,0.0,0.0,0.0,0.0,0.0,0.0,0.0,0.0,0.0,0.0,0.0,0.0,0.0,0.0,0.0,0.0,0.0,0.0,0.0,0.0,0.0,0.0,0.0,0.0,0.0,0.0,0.0,0.0,0.0,0.0,0.0,0.0,0.0,0.0,0.0,0.0,0.0,0.0,0.0,0.0,0.0,0.0,0.0,0.0,0.0,0.0,0.0,0.0,0.0,0.0,0.0,0.0,0.0,0.0,0.0,0.0,0.0,0.0,0.0,0.0,0.0,0.0,0.0,0.0,0.0,0.0,0.0,0.0,0.0,0.0,0.0,0.0,0.0,0.0,0.0,0.0,0.0,0.0,0.0,0.0,0.0,0.0,0.0,0.0,0.0,0.0,0.0,0.0,0.0,0.0,0.0,0.0,0.0,0.0,0.0,0.0,0.0,0.0,0.0,0.0,0.0,0.0,0.0,0.0,0.0,0.0,0.0,0.0,0.0,0.0,0.0,0.0,0.0,0.0,0.0,0.0,0.0,0.0,0.0,0.0,0.0,0.0,0.0,0.0,0.0,0.0,0.0,0.0,0.0,0.0,0.0,0.0,0.0,0.0,0.0,0.0,0.0,0.0,0.0,0.0,0.0,0.0,0.0,0.0,0.0,0.0,0.0,0.0,0.0,0.0,0.0,0.0,0.0,0.0,0.0,0.0,0.0,0.0,0.0,0.0,0.0,0.0,0.0,0.0,0.0,0.0,0.0,0.0,0.0,0.0,0.0,0.0,0.0,0.0,0.0,0.0,0.0,0.0,0.0,0.0,0.0,0.0,0.0,0.0,0.0,0.0,0.0,0.0,0.0,0.0,0.0,0.0,0.0,0.0,0.0,0.0,0.0,0.0,0.0,0.0,0.0,0.0,0.0,0.0,0.0,0.0,0.0,0.0,0.0,0.0,0.0,0.0,0.0,0.0,0.0,0.0,0.0,0.0,0.0,0.0,0.0,0.0,0.0,0.0,0.0,0.0,0.0,0.0,0.0,0.0,0.0,0.0,0.0,0.0,0.0,0.0,0.0,0.0,0.0,0.0,0.0,0.0,0.0,0.0,0.0,0.0,0.0,0.0,0.0,0.0,0.0,0.0,0.0,0.0,0.0,0.0,0.0,0.0,0.0,0.0,0.0,0.0,0.0,0.0,0.0,0.0,0.0,0.0,0.0,0.0,0.0,0.0,0.0,0.0,0.0,0.0,0.0,0.0,0.0,0.0,0.0,0.0,0.0,0.0,0.0,0.0,0.0,0.0,0.0,0.0,0.0,0.0,0.0,0.0,0.0,0.0,0.0,0.0,0.0,0.0,0.0,0.0,0.0,0.0,0.0,0.0,0.0,0.0,0.0,0.0,0.0,0.0,0.0,0.0,0.0,0.0,0.0,0.0,0.0,0.0,0.0,0.0,0.0,0.0,0.0,0.0,0.0,0.0,0.0,0.0,0.0,0.0,0.0,0.0,0.0,0.0,0.0,0.0,0.0,0.0,0.0,0.0,0.0,0.0,0.0,0.0,0.0,0.0,0.0,0.0,0.0,0.0,0.0,0.0,0.0,0.0,0.0,0.0,0.0,0.0,0.0,0.0,0.0,0.0,0.0,0.0,0.0,0.0,0.0,0.0,0.0,0.0,0.0,0.0,0.0,0.0,0.0,0.0,0.0,0.0,0.0,0.0,0.0,0.0,0.0,0.0,0.0,0.0,0.0,0.0,0.0,0.0,0.0,0.0,0.0,0.0,0.0,0.0,0.0,0.0,0.0,0.0,0.0,0.0,0.0,0.0,0.0,0.0,0.0,0.0,0.0,0.0,0.0,0.0,0.0,0.0,0.0,0.0,0.0,0.0,0.0,0.0,0.0,0.0,0.0,0.0,0.0,0.0,0.0,0.0,0.0,0.0,0.0,0.0,0.0,0.0,0.0,0.0,0.0,0.0,0.0,0.0,0.0,0.0,0.0,0.0,0.0,0.0,0.0,0.0,0.0,0.0,0.0,0.0,0.0,0.0,0.0,0.0,0.0,0.0,0.0,0.0,0.0,0.0,0.0,0.0,0.0,0.0,0.0,0.0,0.0,0.0,0.0,0.0,0.0,0.0,0.0,0.0,0.0,0.0,0.0,0.0,0.0,0.0,0.0,0.0,0.0,0.0,0.0,0.0,0.0,0.0,0.0,0.0,0.0,0.0,0.0,0.0,0.0,0.0,0.0,0.0,0.0,0.0,0.0,0.0,0.0,0.0,0.0,0.0,0.0,0.0,0.0,0.0,0.0,0.0,0.0,0.0,0.0,0.0,0.0,0.0,0.0,0.0,0.0,0.0,0.0,0.0,0.0,0.0,0.0,0.0,0.0,0.0,0.0,0.0,0.0,0.0,0.0,0.0,0.0,0.0,0.0,0.0,0.0,0.0,0.0,0.0,0.0,0.0,0.0,0.0,0.0,0.0,0.0,0.0,0.0,0.0,0.0,0.0,0.0,0.0,0.0,0.0,0.0,0.0,0.0,0.0,0.0,0.0,0.0,0.0,0.0,0.0,0.0,0.0,0.0,0.0,0.0,0.0,0.0,0.0,0.0,0.0,0.0,0.0,0.0,0.0,0.0,0.0,0.0,0.0,0.0,0.0,0.0,0.0,0.0,0.0,0.0,0.0,0.0,0.0,0.0,0.0,0.0,0.0,0.0,0.0,0.0,0.0,0.0,0.0,0.0,0.0,0.0,0.0,0.0,0.0,0.0,0.0,0.0,0.0,0.0,0.0,0.0,0.0,0.0,0.0,0.0,0.0,0.0,0.0,0.0,0.0,0.0,0.0,0.0,0.0,0.0,0.0,0.0,0.0,0.0,0.0,0.0,0.0,0.0,0.0,0.0,0.0,0.0,0.0,0.0,0.0,0.0,0.0,0.0,0.0,0.0,0.0,0.0,0.0,0.0,0.0,0.0,0.0,0.0,0.0,0.0,0.0,0.0,0.0,0.0,0.0,0.0,0.0,0.0,0.0,0.0,0.0,0.0,0.0,0.0,0.0,0.0,0.0,0.0,0.0,0.0,0.0,0.0,0.0,0.0,0.0,0.0,0.0,0.0,0.0,0.0,0.0,0.0,0.0,0.0,0.0,0.0,0.0,0.0,0.0,0.0,0.0,0.0,0.0,0.0,0.0,0.0,0.0,0.0,0.0,0.0,0.0,0.0,0.0,0.0,0.0,0.0,0.0,0.0,0.0,0.0,0.0,0.0,0.0,0.0,0.0,0.0,0.0,0.0,0.0,0.0,0.0,0.0,0.0,0.0,0.0,0.0,0.0,0.0,0.0,0.0,0.0,0.0,0.0,0.0,0.0,0.0,0.0,0.0,0.0,0.0,0.0,0.0,0.0,0.0,0.0,0.0,0.0,0.0,0.0,0.0,0.0,0.0,0.0,0.0,0.0,0.0,0.0,0.0,0.0,0.0,0.0,0.0,0.0,0.0,0.0,0.0,0.0,0.0,0.0,0.0,0.0,0.0,0.0,0.0,0.0,0.0,0.0,0.0,0.0,0.0,0.0,0.0,0.0,0.0,0.0,0.0,0.0,0.0,0.0,0.0,0.0,0.0,0.0,0.0,0.0,0.0,0.0,0.0,0.0,0.0,0.0,0.0,0.0,0.0,0.0,0.0,0.0,0.0,0.0,0.0,0.0,0.0,0.0,0.0,0.0,0.0,0.0,0.0,0.0,0.0,0.0,0.0,0.0,0.0,0.0,0.0,0.0,0.0,0.0,0.0,0.0,0.0,0.0,0.0,0.0,0.0,0.0,0.0,0.0,0.0,0.0,0.0,0.0,-0.722,0.0,0.0,0.0,0.0,0.0,0.0,0.0,0.0,0.0,0.0,0.0,0.0,0.0,0.0,0.0,0.0,0.0,0.0,0.0,0.0,0.0,0.0,0.0,0.0,0.404,0.4389,0.4668,0.4933,0.5117,0.5212,0.0,0.0,0.0,0.0,0.0,0.7116,0.7011,0.6534,0.569,0.4669,0.2949,0.0646,0.0488,0.0569,0.0803,0.0,0.0,0.0,0.0,0.0,0.0,0.0,0.0,0.0,0.0,0.0,0.0,0.0,0.0,0.0,0.0,0.0,0.0,0.0,0.0,0.0,0.0,0.0,0.0,0.0,0.0,0.0,0.0,0.0,0.0,0.0,0.0,0.0,0.0,0.0,0.0,0.0,0.0,0.0,0.0,0.0,0.0,0.0,0.0,0.0,0.0,0.0,0.0,0.0,0.0,0.0,0.0,0.0,0.0,0.0,0.0,0.0,0.0,0.0,0.0,0.0,0.0,0.0,0.0,0.0,0.0,0.0,0.0,0.0,0.0,0.0,-0.8258,0.0,0.0,0.0,0.0,0.0,0.0,0.0,0.0,0.0,0.0,0.0,0.0,0.0,0.0,0.0,0.0,0.0,0.0,0.0,0.0,0.0,0.43,0.4204,0.4705,0.5167,0.5416,0.5711,0.5955,0.6108,0.633,0.0,0.0,0.0,0.7573,0.7781,0.7172,0.6129,0.4665,0.3374,0.0815,-0.289,-0.4173,-0.4245,-0.3289,-0.3168,0.0,0.0,0.0,0.0,0.0,0.0,0.0,0.0,0.0,0.0,0.0,0.0,0.0,0.0,0.0,0.0,0.0,0.0,0.0,0.0,0.0,0.0,0.0,0.0,0.0,0.0,0.0,0.0,0.0,0.0,0.0,0.0,0.0,0.0,0.0,0.0,0.0,0.0,0.0,0.0,0.0,0.0,0.0,0.0,0.0,0.0,0.0,0.0,0.0,0.0,0.0,0.0,0.0,0.0,0.0,0.0,0.0,0.0,0.0,0.0,0.0,0.0,0.0,-0.8262,-0.875,-0.9839,-0.9343,-0.983,-1.0947,-0.9314,-0.9067,-0.9852,0.0,0.0,0.0,0.0,0.0,0.0,0.0,0.0,0.0,0.0,0.0,0.0,0.0,0.0,0.0,0.0,0.0,0.0,0.0,0.0,0.4744,0.5233,0.5976,0.6539,0.682,0.7194,0.7395,0.736,0.7448,0.0,0.0,0.7782,0.7733,0.7719,0.6502,0.5439,0.4521,0.0197,-0.3409,-0.6285,-0.7617,-0.8453,-0.8734,-0.6285,-0.5582,-0.6055,0.0,0.0,0.0,0.0,0.0,0.0,0.0,0.0,0.0,0.0,0.0,0.0,0.0,0.0,0.0,0.0,0.0,0.0,0.0,0.0,0.0,0.0,0.0,0.0,0.0,0.0,0.0,0.0,0.0,0.0,0.0,0.0,0.0,0.0,0.0,0.0,0.0,0.0,0.0,0.0,0.0,0.4971,0.3382,0.0,0.0,0.0,0.0,0.0,0.0,0.0,0.0,0.0,0.0,0.0,0.0,0.0,-1.0364,-0.9976,-1.0761,-1.0884,-1.0277,-1.0789,-1.0841,-1.0498,-1.0974,-1.1324,-1.1498,-1.124,0.0,-1.0681,-1.1082,0.0,0.0,0.0,0.0,0.0,0.0,0.0,0.0,0.0,0.0,0.0,0.0,0.0,0.0,0.0,0.0,0.0,0.0,0.0,0.0,0.0,0.6541,0.6718,0.6611,0.6506,0.6492,0.6576,0.6756,0.7046,0.7473,0.7395,0.7263,0.7078,0.5471,0.3062,-0.0158,-0.3967,-0.6826,-0.877,-0.944,-1.0112,-1.0747,-0.9277,-0.8566,-0.8473,-0.8296,0.0,0.0,0.0,0.0,0.0,0.0,0.0,0.0,0.0,0.0,0.0,0.0,0.0,0.0,0.0,0.0,0.0,0.0,0.0,0.0,0.0,0.0,0.0,0.0,0.0,0.0,0.0,0.0,0.0,0.0,0.0,0.0,0.0,0.0,0.0,0.0,0.0,0.0,0.0,0.4836,0.3647,0.2128,-0.0099,-0.1567,0.0,0.0,0.0,0.0,0.0,0.0,0.0,0.0,0.0,-0.8937,-0.9794,-1.0091,-0.9814,-1.0219,-1.0317,-1.0157,-1.0617,-1.0962,-1.1262,-1.1593,-1.194,-1.2351,-1.2351,-1.2033,-1.1594,-1.1808,-1.1866,-1.192,0.0,0.0,0.0,0.0,-1.2268,-1.2072,0.0,0.0,0.0,0.0,0.0,0.0,0.0,0.0,0.0,0.0,0.0,0.0,0.6964,0.6995,0.684,0.6467,0.6072,0.5875,0.0,0.6071,0.6355,0.6802,0.6662,0.6378,0.589,0.3385,-0.018,-0.482,-0.7266,-0.912,-1.039,-1.0549,-1.0975,-1.1555,-1.1514,-1.1139,-1.0584,-1.1343,-0.9856,0.0,0.0,0.0,0.0,0.0,0.0,0.0,0.0,0.0,0.0,0.0,0.0,0.0,0.0,0.0,0.0,0.0,0.0,0.0,0.0,0.0,0.0,0.0,0.0,0.0,0.0,0.0,0.0,0.0,0.0,0.0,0.0,0.0,0.0,0.0,0.0,0.0,0.0,0.3963,0.2438,0.1074,-0.0682,-0.1916,0.0,0.0,0.0,0.0,0.0,0.0,-0.7536,-0.8288,-0.8956,-0.944,-0.9785,-0.9907,-0.9745,-0.9819,-0.9809,-0.9814,-1.0153,-1.0754,-1.1566,-1.1715,-1.2187,-1.2881,-1.2881,-1.2695,-1.2363,-1.2297,-1.2425,-1.2597,-1.2544,-1.2723,-1.3044,-1.3044,-1.278,-1.2542,0.0,0.0,0.0,0.0,0.0,0.0,0.0,0.0,0.0,0.0,0.0,0.6762,0.7482,0.7498,0.7352,0.709,0.6919,0.6673,0.0,0.0,0.6027,0.6056,0.5689,0.5003,0.3956,-0.0333,-0.4208,-0.7593,-0.8644,-0.9731,-1.0879,-1.113,-1.1402,-1.1725,-1.2475,-1.2822,-1.2756,-1.1544,-1.084,-1.0322,0.0,0.0,0.0,0.0,0.0,0.0,0.0,0.0,0.0,0.0,0.0,0.0,0.0,0.0,0.0,0.0,0.0,0.0,0.0,0.0,0.0,0.0,0.0,0.0,0.0,0.0,0.0,0.0,0.0,0.0,0.0,0.0,0.0,0.0,0.0,0.0,0.0,0.0,0.0,0.0041,-0.1121,0.0,0.0,0.0,0.0,-0.5214,-0.6179,-0.6962,-0.7466,-0.8689,-0.9381,-0.9422,-1.0284,-1.0721,-1.0738,-1.0721,-1.0426,-0.9814,-1.045,-1.0797,-1.0864,-1.1516,-1.2187,-1.2881,-1.2881,-1.2871,-1.2812,-1.2373,-1.2573,-1.3144,-1.3163,-1.3828,-1.4777,-1.4777,-1.4765,-1.4752,0.0,0.0,0.0,0.0,0.0,0.4797,0.4709,0.5391,0.6111,0.6709,0.7069,0.7463,0.0,0.7304,0.6639,0.6116,0.5603,0.5135,0.478,0.0,0.4909,0.4907,0.4229,0.2587,-0.0126,-0.2559,-0.5299,-0.837,-0.9192,-1.0005,-1.0864,-1.138,-1.164,-1.1684,-1.2651,-1.3325,-1.3654,-1.2825,-1.223,-1.1672,-0.9805,-0.8612,0.0,0.0,0.0,0.0,0.0,0.0,0.0,0.0,0.0,0.0,0.0,0.0,0.0,0.0,0.0,0.0,0.0,0.0,0.0,0.0,0.0,0.0,0.0,0.0,0.0,0.0,0.0,0.0,0.0,0.0,0.0,0.0,0.0,0.0,0.0,0.0,0.0,-0.0043,-0.1205,0.0,-0.2219,-0.4266,-0.5597,-0.5737,-0.7056,-0.8091,-0.8699,-0.9303,-0.9837,-1.0282,-1.0199,-1.0167,-1.0167,-0.9718,-0.9413,-0.9159,-0.9814,-1.0364,-1.0813,-1.1516,-1.2187,-1.2881,-1.2881,-1.2881,-1.2871,-1.2715,-1.3,-1.3604,-1.3608,-1.4136,-1.4829,-1.4885,-1.4916,-1.4916,0.0,0.0,0.0,0.0,0.5465,0.5518,0.5391,0.6224,0.7036,0.751,0.7593,0.7686,0.7906,0.6893,0.5916,0.5199,0.469,0.4216,0.3801,0.0,0.3933,0.3727,0.2435,0.0257,-0.2877,-0.4251,-0.62,-0.8724,-0.9651,-1.038,-1.0931,-1.1703,-1.2066,-1.2084,-1.2908,-1.3601,-1.4118,-1.3919,-1.3468,-1.2772,-1.1541,-1.0865,-1.0332,0.0,0.0,0.0,0.0,0.0,0.0,0.0,0.0,0.0,0.0,0.0,0.0,0.0,0.0,0.0,0.0,0.0,0.0,0.0,0.0,0.0,0.0,0.0,0.0,0.0,0.0,0.0,0.0,0.0,0.0,0.0,0.0,0.0,0.0,0.0,0.0218,-0.0692,-0.1576,-0.215,-0.2356,-0.4473,-0.5945,-0.6203,-0.7422,-0.8453,-0.9156,-0.935,-0.9666,-1.0115,-0.971,-0.9465,-0.9465,-0.9008,-0.8804,-0.8811,-0.9465,-1.0167,-1.0813,-1.1516,-1.2187,-1.2881,-1.2881,-1.2881,-1.2881,-1.2881,-1.3152,-1.3521,-1.398,-1.4525,-1.5107,-1.5352,-1.5429,-1.5392,0.0,0.0,0.0,0.5911,0.6246,0.6595,0.6719,0.7358,0.8038,0.8627,0.7937,0.7414,0.7401,0.6319,0.5282,0.4493,0.441,0.4164,0.3576,0.3536,0.3231,0.2576,0.0364,-0.1844,-0.4,-0.5463,-0.7066,-0.8812,-1.0069,-1.0829,-1.1097,-1.2123,-1.2711,-1.2901,-1.3323,-1.3736,-1.419,-1.469,-1.4471,-1.3749,-1.3034,-1.2382,-1.1708,0.0,0.0,0.0,0.0,0.0,0.0,0.0,0.0,0.0,0.0,0.0,0.0,0.0,0.0,0.0,0.0,0.0,0.0,0.0,0.0,0.0,0.0,0.0,0.0,0.0,0.0,0.0,0.0,0.0,0.0,0.0,0.0,0.0,-0.1279,-0.1072,-0.1157,-0.1899,-0.2078,-0.2387,-0.3031,-0.4523,-0.576,-0.6534,-0.7289,-0.8049,-0.8752,-0.8818,-0.8818,-0.8804,-0.8818,-0.8818,-0.8804,-0.8804,-0.8804,-0.8811,-0.9465,-1.0115,-1.0813,-1.1466,-1.2187,-1.2881,-1.2881,-1.2881,-1.2881,-1.2881,-1.2881,-1.3017,-1.4201,-1.5005,-1.5632,-1.6238,-1.6479,-1.6391,0.0,0.0,0.7032,0.7157,0.7442,0.7636,0.7581,0.8159,0.8596,0.8561,0.8008,0.7627,0.7617,0.6372,0.5421,0.5151,0.4845,0.4609,0.4386,0.0,0.3249,0.1377,-0.0651,-0.272,-0.482,-0.5978,-0.7366,-0.9008,-1.0048,-1.0601,-1.0699,-1.1997,-1.247,-1.2274,-1.3117,-1.3443,-1.3409,-1.4457,-1.451,-1.3854,-1.371,-1.3545,-1.327,0.0,0.0,0.0,0.0,0.0,0.0,0.0,0.0,0.0,0.0,0.0,0.0,0.0,0.0,0.0,0.0,0.0,0.0,0.0,0.0,0.0,0.0,0.0,0.0,0.0,0.0,0.0,0.0,0.0,0.0,0.0,0.0,-0.2284,-0.2443,-0.1645,-0.1293,-0.1928,-0.1672,-0.1652,-0.2366,-0.3808,-0.5257,-0.6529,-0.7289,-0.8049,-0.8752,-0.9005,-0.9025,-0.8811,-0.9011,-0.9018,-0.8811,-0.8804,-0.8804,-0.8804,-0.9008,-0.9666,-1.0813,-1.1015,-1.1733,-1.2881,-1.2881,-1.2881,-1.2881,-1.2881,-1.2881,-1.2968,-1.3742,-1.4143,-1.4365,-1.4971,-1.5466,-1.5896,0.0,0.7002,0.7822,0.8043,0.8225,0.8354,0.8359,0.8761,0.8915,0.8474,0.806,0.7698,0.7407,0.6244,0.5447,0.5286,0.5079,0.4933,0.4874,0.0,0.2881,0.0559,-0.1443,-0.3498,-0.5588,-0.6608,-0.7687,-0.8844,-0.9748,-1.0346,-1.0654,-1.1891,-1.2522,-1.2633,-1.2996,-1.316,-1.319,-1.3661,-1.3857,-1.3863,-1.3957,-1.4217,-1.4434,-1.3524,-1.2904,-1.2486,-1.209,-1.1196,-1.0248,-1.0525,0.0,0.0,0.0,0.0,0.0,0.0,0.0,0.0,0.0,0.0,0.0,0.0,0.0,0.0,0.0,0.0,0.0,0.0,0.0,0.0,0.0,0.0,0.0,0.0,-0.263,-0.3173,-0.3417,-0.2303,-0.162,-0.2052,-0.149,-0.1396,-0.212,-0.3279,-0.471,-0.6475,-0.7111,-0.7882,-0.8931,-0.9265,-0.9352,-0.9178,-0.9218,-0.9103,-0.8991,-0.8871,-0.8804,-0.8804,-0.9061,-0.9762,-1.0813,-1.1116,-1.1832,0.0,-1.2881,-1.2881,-1.2881,-1.2881,-1.2881,0.0,0.0,0.0,0.0,0.0,-1.5466,-1.6008,0.0,0.7494,0.8524,0.8674,0.8736,0.8825,0.8992,0.9172,0.9083,0.8475,0.0,0.784,0.7212,0.6249,0.5578,0.5405,0.5371,0.5289,0.0,0.0,0.2351,0.002,-0.2077,-0.4167,-0.6236,-0.7241,-0.7995,-0.8493,-0.9426,-1.017,-1.0796,-1.1871,-1.2765,-1.3463,-1.2945,-1.2903,-1.3216,-1.2737,-1.2981,-1.371,-1.4021,-1.4613,-1.5235,-1.4526,-1.4151,-1.3925,-1.3245,-1.2929,-1.292,-1.3348,0.0,0.0,0.0,0.0,0.0,0.0,0.0,0.0,0.0,0.0,0.0,0.0,0.0,0.0,0.0,0.0,0.0,0.0,0.0,0.0,0.0,0.0,0.0,0.0,-0.3301,-0.3606,-0.4161,-0.2936,-0.2052,-0.2168,-0.1452,-0.1286,-0.213,-0.2858,-0.42,-0.6385,-0.69,-0.7694,-0.9062,0.0,0.0,0.0,0.0,-0.925,-0.9183,-0.8985,-0.8838,-0.8811,-0.9413,-1.0064,-1.0813,-1.1416,-1.2138,-1.2881,-1.2881,-1.2881,-1.2881,-1.2881,-1.2881,-1.2978,-1.3505,-1.3684,-1.3826,-1.4994,-1.5732,-1.6194,0.0,0.7845,0.9045,0.9282,0.924,0.9162,0.9089,0.9161,0.9164,0.9038,0.8762,0.8566,0.8591,0.7359,0.6721,0.7149,0.6614,0.6058,0.0,0.0,0.2151,-0.0443,-0.2602,-0.4719,-0.6807,-0.762,-0.8156,-0.8422,-0.9737,-1.043,-1.0591,-1.2139,-1.3024,-1.331,-1.2892,-1.2544,-1.2317,-1.3054,-1.3195,-1.3046,-1.4462,-1.5171,-1.5357,-1.5202,-1.4698,-1.4142,-1.4626,-1.4343,-1.3849,-1.4459,-1.395,-1.3015,-1.2731,0.0,0.0,0.0,0.0,0.0,0.0,0.0,0.0,0.0,0.0,0.0,0.0,0.0,0.0,0.0,0.0,0.0,0.0,0.0,0.0,-0.3182,-0.3678,-0.4124,-0.4406,-0.3147,-0.2161,-0.2173,-0.1006,-0.0791,-0.2317,-0.2555,-0.3632,-0.5931,-0.6856,-0.764,-0.8521,-0.9504,0.0,-0.9693,-0.9853,-0.9719,-0.919,-0.913,-0.9038,-0.8804,0.0,0.0,-1.0813,-1.0914,-1.1683,-1.2881,-1.2881,-1.2881,-1.2881,-1.2881,-1.2881,-1.2929,-1.3017,-1.3055,-1.3152,-1.3862,-1.4226,-1.4457,0.6981,0.8207,0.9224,0.9332,0.8931,0.8704,0.9005,0.8684,0.8556,0.8985,0.8821,0.8605,0.8514,0.7822,0.7473,0.7778,0.7213,0.0,0.0,0.4026,0.194,-0.0629,-0.3006,-0.5102,-0.6958,-0.782,-0.8332,-0.8497,-0.9468,-1.0205,-1.0732,-1.1909,-1.2857,-1.3582,-1.3037,-1.28,-1.2813,-1.2972,-1.3175,-1.3431,-1.4309,-1.4683,-1.4808,-1.5238,-1.5126,-1.4798,-1.5164,-1.4734,-1.4057,-1.4361,-1.4206,-1.3871,-1.378,-1.3545,-1.3015,0.0,0.0,0.0,0.0,0.0,0.0,0.0,0.0,0.0,0.0,0.0,0.0,0.0,0.0,-0.2556,0.0,0.0,-0.3275,-0.3827,-0.386,-0.3941,-0.4453,-0.3178,-0.2174,-0.2174,-0.0895,-0.062,-0.217,-0.2439,-0.3472,-0.5726,-0.6916,-0.7814,-0.8543,-0.9733,-1.0274,-1.0127,-1.012,-0.9907,-0.9466,-0.9256,-0.9044,-0.8804,-0.8804,-0.9309,-1.0312,-1.0669,-1.1375,-1.2344,-1.2725,-1.2881,-1.2881,-1.2881,-1.2881,-1.2881,-1.2881,-1.3055,-1.3372,-1.3684,-1.4003,-1.4376,0.7436,0.8408,0.9125,0.91,0.8422,0.8046,0.853,0.7952,0.771,0.8443,0.8438,0.829,0.8098,0.7963,0.793,0.0,0.0,0.0,0.0,0.4102,0.1904,-0.0739,-0.3118,-0.5208,-0.6971,-0.7763,-0.8248,-0.844,-0.9017,-0.9792,-1.0793,-1.1563,-1.2629,-1.3825,-1.322,-1.3219,-1.361,-1.3017,-1.3254,-1.3995,-1.4002,-1.4046,-1.4153,-1.4716,-1.4805,-1.4687,-1.4783,-1.4253,-1.3532,-1.3629,-1.3723,-1.3823,-1.3869,-1.4463,-1.4888,-1.3593,-1.2868,0.0,0.0,0.0,0.0,0.0,0.0,0.0,0.0,0.0,-0.1073,-0.2277,-0.2711,-0.3036,-0.3512,-0.3245,-0.3243,-0.4106,-0.379,-0.3624,-0.4405,-0.3287,-0.2343,-0.2232,-0.0895,-0.0619,-0.2159,-0.2448,-0.3443,-0.5573,-0.6899,-0.7949,-0.8618,-0.9794,-1.0501,-1.0624,-1.0274,-0.9973,-0.9686,-0.9385,-0.9044,-0.8804,-0.8804,-0.9159,-0.9814,-1.0364,-1.1065,-1.1814,-1.2559,-1.2881,-1.2881,-1.2881,-1.2881,-1.2881,-1.2881,-1.32,-1.3647,-1.3647,-1.392,-1.4468,0.0,0.8175,0.8558,0.8727,0.8237,0.7673,0.7286,0.7031,0.6982,0.7263,0.7427,0.7745,0.8304,0.8028,0.8026,0.0,0.0,0.0,0.69,0.4925,0.2341,-0.0921,-0.2713,-0.4707,-0.704,-0.7191,-0.746,-0.7896,-0.8545,-0.9355,-1.03,-1.1512,-1.2665,-1.3715,-1.3333,-1.3384,-1.3778,-1.3755,-1.3848,-1.4005,-1.4052,-1.4089,-1.4021,-1.3418,-1.2695,-1.2129,-1.2832,-1.2519,-1.1889,-1.2595,-1.3294,-1.3878,-1.3827,-1.4492,-1.5214,-1.4868,0.0,-1.4314,-1.3168,-1.0523,-0.7534,-0.5169,-0.3694,-0.2596,0.0,0.0,-0.1853,-0.1888,-0.2415,-0.2763,-0.2304,-0.2279,-0.2554,-0.3287,-0.3345,-0.3566,-0.4405,-0.3732,-0.2954,-0.2286,-0.0895,-0.0688,-0.2481,-0.2686,-0.3437,-0.5329,-0.6705,-0.7714,-0.804,-0.9401,-1.0287,-1.0618,-1.0274,-0.9973,-0.9686,-0.9385,-0.9044,-0.8804,-0.8804,-0.9159,-0.9814,-0.9865,-1.0618,-1.1814,-1.2559,-1.2881,-1.2881,-1.2881,-1.2881,-1.2881,-1.2881,-1.2929,-1.3017,-1.3017,-1.3065,-1.3248,0.0,0.7767,0.809,0.8217,0.7743,0.7184,0.6785,0.6536,0.6536,0.6926,0.7084,0.7362,0.7881,0.8247,0.8628,0.9117,0.0,0.0,0.7355,0.5276,0.2853,0.0116,-0.2013,-0.4001,-0.5838,-0.6564,-0.7157,-0.7621,-0.853,-0.9372,-1.0151,-1.1082,-1.1977,-1.2795,-1.318,-1.3527,-1.3831,-1.4441,-1.4446,-1.4,-1.4024,-1.3489,-1.2617,-1.2266,-1.1602,-1.1015,-1.2337,-1.2207,0.0,0.0,-1.2051,-1.2319,-1.2247,-1.2884,-1.3752,-1.4227,-1.4189,0.0,-1.156,-0.9303,-0.7037,0.0,-0.4141,-0.3704,-0.3426,-0.3117,-0.2876,-0.2934,-0.2926,-0.2762,-0.2219,-0.1825,-0.1786,0.0,-0.2286,-0.2471,-0.3778,-0.3217,-0.2583,-0.2407,-0.1356,-0.1139,-0.2443,-0.2572,-0.329,-0.4958,-0.6511,-0.7527,-0.7812,-0.9242,-1.0254,-1.0611,-1.0441,-1.0154,-0.9686,-0.9559,-0.9265,-0.8804,-0.8804,-0.8962,-0.9211,-0.9614,-1.0517,-1.1814,-1.2559,-1.2881,-1.2881,-1.2881,-1.2881,-1.2881,-1.2881,-1.2881,-1.2881,-1.2881,-1.2881,-1.3017,0.0,0.7577,0.7897,0.7899,0.7577,0.7119,0.6587,0.6298,0.6224,0.6481,0.6621,0.6872,0.7329,0.8124,0.8815,0.9301,0.9196,0.8755,0.0,0.5944,0.3752,0.14,-0.1174,-0.3309,-0.4932,-0.6308,-0.7233,-0.7694,-0.8621,-0.9441,-1.0196,-1.0802,-1.1439,-1.2128,-1.2885,-1.3317,-1.3495,-1.4246,-1.4193,-1.3599,-1.3362,-1.2574,-1.152,-1.128,-1.0765,-1.0355,-1.1605,-1.156,0.0,0.0,-1.0778,-1.0919,-1.084,-1.1524,-1.2485,-1.3149,-1.2788,-1.1654,-0.9329,-0.7634,0.0,-0.4678,-0.4491,-0.469,-0.4808,-0.4396,-0.3973,-0.3965,-0.3372,-0.2556,-0.1686,-0.0943,-0.0726,-0.1448,-0.1171,-0.135,-0.2996,-0.2604,-0.2196,-0.2136,-0.153,-0.1472,-0.2397,-0.2521,-0.3148,-0.4783,-0.6296,-0.7294,-0.7578,-0.8999,-1.0013,-1.0369,-1.0241,-0.9993,-0.9566,-0.9479,-0.9225,-0.8804,-0.8804,-0.8804,-0.8804,-0.951,-1.0415,-1.1566,-1.2295,-1.2715,-1.2881,-1.2881,-1.2881,-1.2881,-1.2881,-1.2881,-1.2881,-1.2881,-1.2881,-1.2968,0.0,0.0,0.8049,0.7913,0.7996,0.7707,0.6661,0.6328,0.6046,0.5601,0.5778,0.6153,0.6753,0.7474,0.8192,0.8868,0.9205,0.9206,0.8792,0.7235,0.5203,0.2657,-0.0138,-0.2673,-0.4854,-0.6597,-0.7706,-0.8183,-0.8738,-0.9467,-1.0398,-1.0808,-1.1401,-1.2106,-1.2398,-1.2535,-1.2559,-1.2631,-1.2664,-1.2569,-1.1782,-1.1453,-1.1309,-1.0476,-1.0044,-0.9941,-1.0126,0.0,0.0,0.0,-0.9742,-1.0302,-1.0101,-1.0946,0.0,-1.1972,-1.0567,-0.8767,-0.7502,0.0,-0.5376,-0.4753,-0.4946,-0.5323,-0.543,-0.5367,-0.5091,-0.4488,-0.3483,-0.2125,-0.0211,0.0601,0.0781,0.0056,-0.0056,-0.0556,-0.2009,-0.2233,-0.1953,-0.1231,-0.1118,-0.1472,0.0,-0.2521,-0.3148,-0.4783,-0.6173,-0.7009,-0.7284,-0.8549,-0.9399,-0.9699,-0.9432,-0.9216,-0.9196,-0.8971,-0.8824,-0.8804,-0.8804,-0.8804,-0.8804,-0.951,-1.0167,-1.0864,-1.1566,-1.2236,-1.2881,-1.2881,-1.2881,-1.2881,-1.2881,-1.2881,-1.2881,-1.2881,-1.2881,-1.2968,0.0,0.0,0.0,0.7913,0.8121,0.8007,0.7105,0.6646,0.6247,0.5815,0.5689,0.0,0.0,0.0,0.0,0.0,0.9129,0.9267,0.8944,0.7847,0.6412,0.4663,0.2922,0.1151,-0.0615,-0.2672,-0.417,-0.5075,-0.6687,-0.7865,-0.8616,-0.9058,-0.9545,-1.0073,-1.087,-1.1285,-1.1402,-1.2019,-1.1984,-1.1504,-1.1242,-1.072,-1.0117,-0.9809,-0.9473,-0.9151,0.0,0.0,0.0,-0.856,-0.8599,-0.8868,-0.8964,0.0,0.0,-0.923,-0.8159,-0.7006,-0.6508,0.0,-0.4991,-0.5373,-0.5717,-0.6194,-0.7158,-0.7183,-0.6747,-0.5694,-0.4504,-0.2891,-0.0261,0.0696,0.1034,0.0778,0.0726,0.0169,-0.1381,-0.15,-0.1386,-0.1271,-0.1558,0.0,0.0,0.0,0.0,-0.4637,-0.5523,-0.6337,-0.713,-0.8039,-0.8921,-0.9673,-0.9586,-0.9439,-0.919,-0.909,-0.8998,-0.8804,-0.8804,-0.8804,-0.8804,-0.951,-1.0167,-1.0864,-1.1516,-1.2236,-1.2881,-1.2881,-1.2881,-1.2881,-1.2881,-1.2881,-1.2881,-1.2881,-1.2881,-1.2929,0.0,0.0,0.0,0.0,0.0,0.0,0.0,0.0,0.0,0.0,0.0,0.0,0.0,0.0,0.0,0.0,0.0,0.927,0.916,0.0,0.7335,0.609,0.4398,0.2829,0.1465,-0.0835,-0.2414,-0.3257,-0.4875,-0.6178,-0.716,-0.7303,-0.7779,-0.8559,-0.9239,-0.9563,-0.9666,-1.0323,-1.0327,-0.9879,-0.978,-0.9418,-0.8912,-0.8826,-0.8504,0.0,0.0,0.0,0.0,-0.7586,-0.7332,-0.6959,-0.7179,-0.7292,-0.726,-0.6792,-0.6104,-0.5472,-0.5371,-0.4913,-0.4739,-0.5848,-0.6451,-0.7204,-0.8711,-0.8973,-0.86,-0.7412,-0.5534,-0.3166,-0.0152,0.1358,0.2191,0.2268,0.2062,0.1354,-0.0234,-0.0349,-0.0464,-0.0822,-0.1175,-0.1629,0.0,0.0,0.0,-0.4495,-0.5233,-0.6003,-0.6855,-0.7723,-0.854,-0.9365,-0.9472,-0.9379,-0.903,-0.903,-0.8991,-0.8804,-0.8804,-0.8804,-0.8804,-0.9263,-0.9814,-1.0466,-1.1166,-1.1832,-1.251,-1.2774,-1.2881,-1.2881,-1.2881,-1.2881,-1.2881,-1.2881,-1.2881,-1.2881,0.0,0.0,0.0,0.0,0.0,0.0,0.0,0.0,0.0,0.0,0.0,0.0,0.0,0.0,0.0,0.0,0.0,0.0,0.0,0.0,0.0,0.6915,0.4464,0.2633,0.1556,-0.0862,-0.2254,-0.2565,-0.3291,-0.4431,-0.5929,-0.5524,-0.6096,-0.7433,-0.7463,-0.744,-0.7398,-0.7665,-0.7755,-0.7755,-0.749,-0.7543,-0.7743,-0.7477,0.0,0.0,0.0,0.0,0.0,0.0,0.0,0.0,0.0,0.0,-0.5111,-0.4786,-0.4403,-0.4104,-0.4154,-0.4211,-0.4612,-0.6171,-0.7196,-0.8279,-1.0122,-1.0712,-1.0493,-0.9327,-0.6284,-0.2887,0.0,0.0,0.419,0.4389,0.3883,0.2876,0.1344,0.1088,0.0853,0.0,0.0,0.0,0.0,0.0,0.0,-0.434,0.0,-0.5993,-0.6524,-0.7589,-0.8331,-0.8732,-0.903,-0.903,-0.8811,-0.8804,-0.8804,-0.8804,-0.8804,-0.8804,-0.8804,-0.8804,-0.9159,-0.9865,-1.0517,-1.1216,-1.1922,-1.2608,-1.2881,-1.2881,-1.2881,-1.2881,-1.2881,-1.2881,-1.2881,-1.2881,0.0,0.0,0.0,0.0,0.0,0.0,0.0,0.0,0.0,0.0,0.0,0.0,0.0,0.0,0.0,0.0,0.0,0.0,0.0,0.0,0.0,0.0,0.0,0.5802,0.4673,0.2801,0.144,0.0633,-0.0854,-0.1881,-0.2484,-0.2917,-0.3394,-0.3944,-0.5143,-0.5731,-0.5866,-0.5929,-0.5972,-0.5973,0.0,-0.5994,-0.5954,0.0,0.0,0.0,0.0,0.0,0.0,0.0,0.0,0.0,0.0,-0.3424,-0.3529,0.0,0.0,-0.2825,-0.3375,-0.4212,-0.5372,-0.7095,-0.8415,-0.981,-1.1877,-1.1879,-1.0664,-0.7911,-0.5262,-0.2005,0.0,0.0,0.0,0.4792,0.4402,0.0,0.1401,0.1071,0.0,0.0061,0.0,-0.0999,-0.1402,-0.2682,0.0,0.0,-0.465,-0.5434,-0.6091,-0.6855,-0.7504,-0.811,-0.8654,-0.8884,-0.8804,-0.8804,-0.8804,-0.8804,-0.8804,-0.8804,-0.8804,-0.8804,-0.9465,-1.0559,-1.072,-1.1484,-1.2618,-1.2822,-1.2881,-1.2881,-1.2881,-1.2881,-1.2881,-1.2881,-1.2881,-1.2881,0.0,0.0,0.0,0.0,0.0,0.0,0.0,0.0,0.0,0.0,0.0,0.0,0.0,0.0,0.0,0.0,0.0,0.0,0.0,0.0,0.0,0.0,0.7128,0.6398,0.5647,0.4279,0.3227,0.0,0.0,0.0,0.0575,-0.018,-0.0865,-0.1467,-0.2756,-0.3472,-0.3755,-0.4228,0.0,0.0,0.0,0.0,0.0,0.0,0.0,0.0,0.0,0.0,0.0,0.0,0.0,0.0746,-0.0738,-0.1467,-0.1821,-0.2037,0.0,-0.2244,-0.333,-0.4359,-0.5681,-0.79,-0.9609,-1.1193,-1.3075,-1.2659,-1.0825,-0.7169,-0.3708,0.0,0.4573,0.0,0.0,0.0,0.0,0.0,0.1867,0.1609,0.1205,0.0,-0.0377,0.0,-0.1174,-0.2106,-0.2986,0.0,-0.4543,-0.5287,-0.5936,-0.671,-0.7344,-0.7863,-0.8574,-0.8938,-0.8804,-0.8804,-0.8804,-0.8804,-0.8804,-0.8804,-0.8804,-0.8804,-0.9211,-0.9961,0.0,-1.1225,-1.2049,-1.2676,-1.2881,-1.2881,-1.2881,-1.2881,-1.2881,-1.2881,-1.2881,-1.2881,0.0,0.0,0.0,0.0,0.0,0.0,0.0,0.0,0.0,0.0,0.0,0.0,0.0,0.0,0.0,0.0,0.0,0.0,0.0,0.0,0.0,0.0,0.6359,0.5647,0.5322,0.4381,0.3779,0.0,0.0,0.0,0.0,0.0,0.0,0.0,0.0,0.0,0.0,0.0,0.0,0.0,0.0,0.0,0.0,0.0,0.0,0.0,0.0,0.0,0.0,0.0,0.4865,0.3457,0.1611,0.0595,-0.0084,-0.104,-0.1553,-0.2107,-0.3598,-0.4694,-0.6036,-0.8656,-1.0748,-1.2511,-1.3809,-1.2852,-1.0508,-0.6274,0.0,0.2756,0.6331,0.7947,0.8404,0.7468,0.0,0.5069,0.2791,0.2399,0.1819,0.0296,0.0062,-0.0319,-0.1056,-0.1236,-0.2009,-0.368,-0.4496,-0.5196,-0.5856,-0.6653,-0.7348,-0.7879,-0.8724,-0.901,-0.8811,-0.8804,-0.8804,-0.8804,-0.8804,-0.8804,-0.8804,-0.8804,-0.8857,-0.9008,0.0,0.0,-1.1015,-1.2363,-1.2881,-1.2881,-1.2881,-1.2881,-1.2881,-1.2881,-1.2881,-1.2881,0.0,0.0,0.0,0.0,0.0,0.0,0.0,0.0,0.0,0.0,0.6787,0.663,0.0,0.0,0.0,0.0,0.0,0.0,0.0,0.0,0.0,0.0,0.6136,0.5492,0.4837,0.0,0.0,0.0,0.0,0.0,0.0,0.0,0.0,0.0,0.0,0.0,0.0,0.0,0.0,0.0,0.0,0.0,0.0,0.0,0.0,0.0,0.0,0.0,0.0,0.0,0.6936,0.586,0.3508,0.2237,0.1365,0.0119,-0.1002,-0.2115,-0.3547,-0.5463,-0.7528,-0.9325,-1.1671,-1.365,-1.4015,-1.1723,0.0,0.0,0.1317,0.5786,0.9984,1.0525,0.9994,0.8975,0.0,0.0,0.0,0.0,0.2591,0.0,0.0,0.0,0.0,0.0,0.0,0.0,0.0,-0.4411,-0.5217,-0.5888,-0.6706,-0.7692,-0.8498,-0.8858,-0.8804,-0.8804,-0.8804,-0.8804,-0.8804,-0.8804,-0.8804,-0.8804,-0.9113,-0.9658,-1.0466,0.0,-1.1665,-1.2559,-1.2881,-1.2881,-1.2881,-1.2881,-1.2881,-1.2881,-1.2881,-1.2881,0.0,0.0,0.0,0.0,0.0,0.0,0.0,0.7104,0.7299,0.7664,0.7666,0.7721,0.7898,0.7914,0.7927,0.0,0.0,0.0,0.0,0.0,0.0,0.0,0.0,0.4992,0.0,0.0,0.0,0.0,0.0,0.0,0.0,0.0,0.0,0.0,0.0,0.0,0.0,0.0,0.0,0.0,0.0,0.0,0.0,0.0,0.0,0.0,0.0,0.0,0.0,0.0,0.8318,0.7341,0.5068,0.3851,0.3031,0.1752,0.0316,-0.1242,-0.3045,-0.5536,-0.8217,-1.057,-1.2609,-1.387,-1.3172,0.0,0.0,0.0,0.4816,0.8901,1.1888,1.1852,0.0,0.0,0.0,0.0,0.0,0.0,0.0,0.0,0.0,0.0,0.0,0.0,0.0,0.0,0.0,-0.3723,-0.4998,-0.5996,-0.6862,-0.7681,-0.8427,-0.8804,-0.8804,-0.8804,-0.8804,-0.8804,-0.8804,-0.8804,-0.8804,-0.8804,-0.8956,-0.9309,-0.9969,0.0,-1.1316,-1.203,-1.2559,-1.2881,-1.2881,-1.2881,-1.2881,-1.2881,-1.2881,-1.2881,0.0,0.0,0.0,0.0,0.0,0.0,0.0,0.7296,0.7618,0.7981,0.8458,0.8869,0.9057,0.8494,0.8109,0.0,0.0,0.0,0.0,0.0,0.0,0.0,0.0,0.0,0.0,0.0,0.0,0.0,0.0,0.0,0.0,0.0,0.0,0.0,0.0,0.0,0.0,0.0,0.0,0.0,0.0,0.0,0.0,0.0,0.0,0.0,0.0,0.0,0.0,0.0,0.9277,0.8423,0.663,0.5511,0.4605,0.3125,0.1421,-0.0524,-0.2867,-0.5773,-0.8852,-1.164,-1.3289,-1.3744,-1.201,-0.7663,0.0,0.0,0.7684,1.1492,1.3108,0.0,1.1662,0.0,0.9167,0.0,0.0,0.0,0.0,0.0,0.0,0.0,0.0,0.0,0.0,0.0,0.0,0.0,-0.4905,-0.6002,-0.687,-0.7456,-0.8156,-0.8646,-0.8804,-0.8804,-0.8804,-0.8804,-0.8804,-0.8804,-0.8804,-0.8804,-0.8804,-0.8857,-0.9666,0.0,0.0,-1.1674,-1.2393,-1.2881,-1.2881,-1.2881,-1.2881,-1.2881,-1.2881,-1.2881,0.0,0.0,0.0,0.0,0.0,0.0,0.0,0.7234,0.7939,0.8391,0.8806,0.9447,1.0481,0.9531,0.8815,0.0,0.0,0.0,0.0,0.0,0.0,0.0,0.0,0.0,0.0,0.0,0.0,0.0,0.0,0.0,0.0,0.0,0.0,0.0,0.0,0.0,0.0,0.0,0.0,0.0,0.0,0.0,0.0,0.0,0.0,0.0,0.0,0.0,0.0,0.0,0.0,0.9355,0.8487,0.7252,0.5717,0.3596,0.0,0.0,-0.3672,-0.685,-0.9843,-1.1964,-1.3388,-1.3597,-1.096,0.0,0.0,0.3796,0.8807,1.2737,1.411,1.3281,1.2256,0.0,0.0,0.8901,0.0,0.0,0.0,0.0,0.0,0.0,0.0,0.0,0.0,0.0,0.0,0.0,-0.4673,-0.5293,-0.5941,-0.6696,-0.7402,-0.8103,-0.8804,-0.8804,-0.8804,-0.8804,-0.8804,-0.8804,-0.8804,-0.8804,-0.8804,-0.8857,-1.0167,0.0,0.0,-1.2255,-1.2822,-1.2881,-1.2881,-1.2881,-1.2881,-1.2881,-1.2881,-1.2881,0.0,0.0,0.0,0.0,0.0,0.0,0.6591,0.7025,0.7706,0.8618,0.9261,1.0087,1.1264,1.0593,0.9743,0.8965,0.0,0.0,0.0,0.0,0.0,0.0,0.0,0.0,0.0,0.0,0.0,0.0,0.0,0.0,0.0,0.0,0.0,0.0,0.0,0.0,0.0,0.0,0.0,0.0,0.0,0.0,0.0,0.0,0.0,0.0,0.0,0.0,0.0,0.0,0.0,0.0,0.9864,0.9275,0.0,0.0,0.3062,0.0091,-0.2332,-0.6292,-1.0285,-1.2524,-1.343,-1.2942,-0.9826,0.0,0.0748,0.5686,1.02,1.3512,1.4351,1.3565,1.2449,1.1485,0.9952,0.845,0.7171,0.0,0.0,0.0,0.0,0.0,0.0,0.0,0.0,0.0,0.0,0.0,-0.3868,-0.4919,-0.5651,-0.5928,-0.6637,-0.7182,-0.745,-0.745,-0.745,-0.7509,-0.7937,-0.8156,-0.8156,-0.8593,-0.8804,-0.8804,-0.9361,0.0,0.0,-1.1384,-1.2157,-1.2881,-1.2881,-1.2881,-1.2881,-1.2881,-1.2881,-1.2881,0.0,0.0,0.0,0.0,0.0,0.6293,0.6438,0.6858,0.7568,0.8625,0.9487,1.042,1.1542,1.1323,1.0614,0.944,0.8813,0.0,0.0,0.0,0.0,0.0,0.0,0.0,0.0,0.0,0.0,0.0,0.0,0.0,0.0,0.0,0.0,0.0,0.0,0.0,0.0,0.0,0.0,0.0,0.0,0.0,0.0,0.0,0.0,0.0,0.0,0.0,0.0,0.0,0.0,0.0,0.0,0.0,0.0,0.0,0.4591,0.1366,-0.0682,-0.4859,-0.9139,-1.1333,-1.1967,-1.1141,0.0,-0.3071,0.2001,0.6755,1.0739,1.3506,1.3998,1.348,1.2568,1.1324,0.9727,0.8255,0.6964,0.5575,0.0,0.0,0.0,0.0,0.0,0.0,0.0,0.0,0.0,0.0,0.0,-0.4165,-0.5046,-0.5483,-0.5982,-0.6367,-0.6588,-0.6588,-0.6588,-0.6588,-0.7128,-0.7509,-0.7723,-0.8262,-0.8593,-0.8804,0.0,0.0,0.0,-1.0712,-1.1484,-1.2559,-1.2559,-1.2715,-1.2881,-1.2881,-1.2881,-1.2881,0.0,0.0,0.0,0.0,0.0,0.0,0.6153,0.684,0.764,0.8324,0.9346,1.0333,1.1216,1.1601,1.1414,1.0469,0.9226,0.0,0.0,0.0,0.0,0.0,0.0,0.0,0.0,0.0,0.0,0.0,0.0,0.0,0.0,0.0,0.0,0.0,0.0,0.0,0.0,0.0,0.0,0.0,0.0,0.0,0.0,0.0,0.0,0.0,0.0,0.0,0.0,0.0,0.0,0.0,0.0,0.0,0.0,0.0,0.583,0.3184,0.0895,-0.2567,-0.5965,-0.7729,-0.8439,-0.7891,-0.4695,-0.1291,0.2371,0.6544,1.0019,1.248,1.3014,1.3035,1.2709,1.1747,1.0212,0.8658,0.7372,0.6202,0.0,0.0,0.0,0.0,0.0,0.0,0.0,0.0,0.0,0.0,0.0,-0.2899,-0.4003,-0.5433,-0.5487,-0.5869,-0.6588,-0.6588,-0.6588,-0.6588,-0.6588,-0.702,-0.7723,-0.7723,-0.8103,0.0,0.0,0.0,0.0,-1.0517,-1.1216,-1.1814,-1.1814,-1.2236,-1.2881,-1.2881,-1.2881,-1.2881,0.0,0.0,0.0,0.0,0.0,0.0,0.0,0.6403,0.7006,0.8252,0.9016,0.9932,1.1158,1.1601,1.1408,1.0483,0.9531,0.0,0.0,0.0,0.0,0.0,0.0,0.0,0.0,0.0,0.3898,0.3992,0.4193,0.4315,0.0,0.0,0.0,0.0,0.0,0.0,0.0,0.0,0.0,0.0,0.0,0.0,0.0,0.0,0.0,0.0,0.0,0.0,0.0,0.0,0.0,0.0,0.0,0.0,0.0,1.1562,0.8545,0.0,0.3514,0.0209,-0.3236,-0.5159,-0.5746,-0.5293,-0.3335,-0.0342,0.2939,0.6192,0.9232,1.1439,1.1989,1.2102,1.1881,1.1247,0.9748,0.0,0.0,0.0,0.0,0.0,0.0,0.0,0.0,0.0,0.0,0.0,0.0,0.0,0.0,-0.2899,-0.3788,-0.4787,-0.4842,-0.4952,-0.5171,-0.5171,-0.5171,-0.5171,-0.5655,-0.6253,-0.6966,-0.745,0.0,0.0,0.0,0.0,0.0,-1.0517,-1.1216,-1.1864,-1.2344,-1.2715,-1.2881,-1.2881,-1.2881,-1.2881,0.0,0.0,0.0,0.0,0.0,0.0,0.0,0.6354,0.6784,0.8004,0.8777,0.9602,1.066,1.1388,1.1432,1.0479,0.9856,0.0,0.0,0.0,0.0,0.0,0.0,0.0,0.0,0.3876,0.3773,0.388,0.401,0.4137,0.4244,0.4244,0.0,0.0,0.0,0.0,0.0,0.0,0.0,0.0,0.0,0.0,0.0,0.0,0.0,0.0,0.0,0.0,0.0,0.0,0.0,0.0,0.0,0.0,0.0,0.0,1.1145,0.8378,0.0,0.346,0.0433,-0.1286,-0.1987,-0.1888,-0.0611,0.1363,0.3703,0.6216,0.8452,1.0146,1.0675,1.0926,1.0853,1.0298,0.9199,0.0,0.0,0.0,0.0,0.0,0.0,0.0,0.0,0.0,0.0,0.0,0.0,0.0,0.0,-0.2508,-0.3234,-0.407,-0.4349,-0.4519,-0.4519,-0.4519,-0.4519,-0.4519,-0.4948,-0.5492,-0.6199,-0.6961,0.0,0.0,0.0,0.0,0.0,-0.9865,-1.0415,-1.1116,-1.1841,-1.2255,-1.251,-1.2774,-1.2881,-1.2881,0.0,0.0,0.0,0.0,0.0,0.0,0.0,0.6599,0.6893,0.7701,0.8616,0.9381,0.9888,1.1046,1.1423,1.0519,0.0,0.0,0.0,0.0,0.0,0.0,0.0,0.0,0.0,0.3599,0.3526,0.378,0.3646,0.374,0.4026,0.4026,0.4072,0.4216,0.0,0.0,0.0,0.0,0.0,0.0,0.0,0.0,0.0,0.0,0.0,0.0,0.0,0.0,0.0,0.0,0.0,0.0,0.0,0.0,0.0,0.0,0.0,0.0,0.0,0.6971,0.464,0.3419,0.2449,0.2067,0.3,0.3647,0.0,0.6502,0.7773,0.8721,0.9213,0.9676,0.9767,0.9177,0.8638,0.0,0.0,0.0,0.0,0.0,0.0,0.0,0.0,0.0,0.0,0.0,0.0,0.0,0.0,-0.173,-0.2508,-0.3345,-0.407,-0.446,-0.4519,-0.4519,-0.4519,-0.4519,-0.4519,-0.4838,-0.5542,-0.6258,0.0,0.0,0.0,0.0,0.0,-0.8857,-0.9263,-0.9865,-1.0517,-1.1166,-1.1814,-1.2559,-1.2822,-1.2832,0.0,0.0,0.0,0.0,0.0,0.0,0.0,0.0,0.0,0.0,0.8616,0.9475,1.0193,1.1189,1.1527,0.0,0.0,0.0,0.0,0.0,0.0,0.0,0.0,0.0,0.0,0.4388,0.4467,0.4531,0.4411,0.4379,0.4441,0.4151,0.4189,0.4509,0.484,0.0,0.0,0.0,0.0,0.0,0.0,0.0,0.0,0.0,0.0,0.0,0.0,1.4304,0.0,0.0,0.0,0.0,0.0,0.0,0.0,0.0,1.2786,1.1897,1.0288,0.0,0.7025,0.5505,0.496,0.4724,0.0,0.5024,0.5667,0.5935,0.71,0.8172,0.852,0.8966,0.9464,0.9837,0.8943,0.7923,0.0,0.0,0.0,0.0,0.0,0.0,0.0,0.0,0.0,0.0,0.0,0.0,0.0,-0.1285,-0.1952,-0.3287,-0.3511,-0.3901,-0.4519,-0.4519,-0.4519,-0.4519,-0.4519,-0.4838,-0.5542,-0.6258,0.0,0.0,0.0,0.0,-0.8857,-0.9361,-0.9666,-0.9865,-1.0517,-1.0914,-1.1116,-1.1823,-1.208,-1.2138,0.0,0.0,0.0,0.0,0.0,0.0,0.0,0.0,0.0,0.0,0.0,0.948,0.9896,1.0929,0.0,0.0,0.0,0.0,0.0,0.0,0.0,0.0,0.0,0.0,0.441,0.4492,0.4422,0.4205,0.4135,0.3973,0.3725,0.3515,0.3515,0.3813,0.5293,0.0,0.0,0.0,0.0,0.0,0.0,0.0,0.0,0.0,0.0,0.0,1.4672,1.4606,0.0,1.4675,1.4669,1.4544,0.0,0.0,0.0,0.0,1.2272,1.1606,1.0358,0.965,0.8965,0.7567,0.7112,0.6932,0.6717,0.6746,0.6841,0.7046,0.0,0.0,0.8145,0.8468,0.0,0.0,0.8125,0.0,0.0,0.0,0.0,0.0,0.0,0.0,0.0,0.0,0.0,0.0,0.0,0.0,0.0,-0.0895,-0.1619,-0.2732,-0.3176,-0.3735,-0.4519,-0.4519,-0.4519,-0.4519,-0.4519,-0.4677,-0.5058,-0.5764,-0.6475,0.0,0.0,0.0,-0.8804,-0.9211,-0.9361,-0.9413,-1.0064,-1.0364,-1.0415,-1.1116,-1.1366,-1.1416,0.0,0.0,0.0,0.0,0.0,0.0,0.0,0.0,0.0,0.0,0.0,0.0,0.0,0.0,0.0,0.0,0.0,0.0,0.0,0.0,0.0,0.0,0.0,0.5184,0.4563,0.4431,0.4173,0.3741,0.3667,0.3261,0.257,0.2361,0.2518,0.3062,0.577,0.7781,0.0,0.0,0.0,0.0,0.0,0.0,0.0,0.0,0.0,0.0,0.0,0.0,0.0,1.4821,1.4725,1.4494,1.4172,0.0,0.0,0.0,0.0,0.0,1.0135,1.0283,1.0417,0.921,0.8692,0.8514,0.8768,0.0,0.0,0.0,0.0,0.0,0.0,0.8201,0.0,0.0,0.0,0.0,0.0,0.0,0.0,0.0,0.0,0.0,0.0,0.0,0.0,0.0,0.0,0.0,0.0,-0.0616,-0.1284,-0.2009,-0.2676,-0.3456,-0.4294,-0.4463,-0.4519,-0.4519,-0.4519,-0.4519,-0.4515,-0.5218,-0.5814,0.0,0.0,0.0,-0.8646,-0.8752,-0.8804,-0.8857,-0.9413,-0.9666,-0.9718,-1.0415,-1.0712,-1.0914,0.0,0.0,0.0,0.0,0.0,0.0,0.0,0.0,0.0,0.0,0.0,0.0,0.0,0.0,0.0,0.0,0.0,0.0,0.0,0.0,0.0,0.0,0.6203,0.562,0.5168,0.5159,0.5042,0.4864,0.444,0.3467,0.1933,0.0891,0.1741,0.4247,0.6423,0.8619,1.0782,0.0,0.0,0.0,0.0,0.0,0.0,0.0,0.0,0.0,0.0,0.0,0.0,1.4637,1.468,1.4619,1.3768,0.0,0.0,0.0,0.0,0.0,1.0296,1.0711,1.0886,0.9318,0.8804,0.8702,0.8532,0.8202,0.0,0.0,0.0,0.0,0.0,0.8592,0.859,0.0,0.0,0.0,0.0,0.0,0.0,0.0,0.0,0.0,0.0,0.0,0.0,0.0,0.0,0.0,0.0,-0.0112,-0.0504,-0.1229,-0.1396,-0.212,-0.3456,-0.4181,-0.4519,-0.4519,-0.4519,-0.4519,-0.4515,-0.5218,-0.5542,0.0,0.0,-0.7777,-0.7937,-0.8533,-0.8804,-0.8804,-0.891,-0.8956,-0.9061,-0.9718,-1.0312,-1.0973,0.0,0.0,0.0,0.0,0.0,0.0,0.0,0.0,0.0,0.0,0.0,0.0,0.0,0.0,0.0,0.0,0.0,0.0,0.0,0.0,0.0,0.7484,0.7324,0.6945,0.6273,0.5989,0.5665,0.5306,0.4556,0.2991,0.066,0.0418,0.2228,0.5687,0.6872,0.8794,1.1259,0.0,0.0,0.0,0.0,0.0,0.0,0.0,0.0,0.0,0.0,0.0,0.0,0.0,1.4239,1.4144,1.3208,0.0,0.0,0.0,0.0,0.0,1.0194,1.0732,1.1296,1.0585,1.035,1.0218,0.9967,0.945,0.0,0.0,0.0,0.0,0.0,0.0,0.0,0.0,0.0,0.0,0.0,0.0,0.0,0.0,0.0,0.0,0.0,0.0,0.0,0.0,0.0,0.0,0.0,0.0,-0.0336,-0.1062,-0.1118,-0.1619,-0.2674,-0.3511,-0.4125,-0.4519,-0.4519,-0.4519,-0.4519,-0.4842,-0.5164,-0.5542,0.0,-0.7343,-0.7777,-0.848,-0.8711,-0.8591,-0.8744,-0.8711,-0.8642,-0.9103,-0.9666,-1.0415,0.0,0.0,0.0,0.0,0.0,0.0,0.0,0.0,0.0,0.0,0.0,0.0,0.0,0.0,0.0,0.0,0.0,0.0,0.0,0.0,0.9074,0.8086,0.8451,0.8282,0.7382,0.6757,0.6166,0.5535,0.4573,0.2317,-0.1026,0.0764,0.3115,0.5975,0.7557,0.9313,1.1151,1.2431,1.2454,0.0,0.0,0.0,0.0,0.0,0.0,0.0,0.0,0.0,0.0,0.0,0.0,0.0,0.0,0.0,0.0,1.1613,1.1079,1.0804,1.0328,1.0833,1.1533,1.1623,1.155,1.146,1.1507,1.0596,0.9658,0.0,0.0,0.0,0.0,0.0,0.0,0.0,0.0,0.0,0.0,0.0,0.0,0.0,0.0,0.0,0.0,0.0,0.0,0.0,0.0,0.0,0.0,0.0,-0.028,-0.0839,-0.0838,-0.1174,-0.1952,-0.2565,-0.3345,-0.4236,-0.4405,-0.4519,-0.4519,-0.4519,-0.4787,-0.5328,-0.6036,-0.6714,-0.7412,-0.8168,-0.8377,-0.8297,-0.8591,-0.8611,-0.8555,-0.8926,-0.9361,-0.9917,0.0,0.0,0.0,0.0,0.0,0.0,0.0,0.0,0.0,0.0,0.0,0.0,0.0,0.0,0.0,0.0,0.0,0.0,0.0,0.0,0.9357,0.9003,0.9403,0.9131,0.8152,0.7347,0.6528,0.5695,0.4819,0.1734,-0.3243,0.2032,0.4158,0.3758,0.8849,1.0838,1.0411,1.0881,1.102,0.0,0.0,0.0,0.0,0.0,0.0,0.0,0.0,0.0,0.0,0.0,0.0,0.0,0.0,0.0,1.2739,1.2308,1.1593,1.0924,1.1071,1.1282,1.1499,1.1499,1.1244,1.1192,1.2161,1.0732,0.0,1.0312,0.0,0.0,0.0,0.0,0.0,0.0,0.0,0.0,0.0,0.0,0.0,0.0,0.0,0.0,0.0,0.0,0.0,0.0,0.0,0.0,0.0,0.0,0.0,-0.0056,-0.0056,-0.0448,-0.1174,-0.1229,-0.1953,-0.34,-0.4125,-0.4519,-0.4519,-0.4519,-0.4515,-0.4625,-0.5273,-0.5868,-0.637,-0.7104,-0.7623,-0.7948,-0.829,-0.8557,-0.883,-0.9503,-0.9762,-0.9917,0.0,0.0,0.0,0.0,0.0,0.0,0.0,0.0,0.0,0.0,0.0,0.0,0.0,0.0,0.0,0.0,0.0,0.0,0.0,0.0,1.0159,0.9859,1.0223,1.0265,0.9894,0.8529,0.7448,0.6746,0.4631,0.3304,0.2824,0.3524,0.5088,0.7326,0.8298,0.9067,0.9626,0.9689,0.9442,0.9024,0.0,0.0,0.0,0.0,0.0,0.0,0.0,0.0,0.0,0.0,1.2686,1.2887,0.0,1.2539,1.2641,1.1887,1.1325,1.0866,1.0749,1.1112,1.1638,1.1981,1.1742,0.0,0.0,1.0964,1.0283,0.992,0.9612,0.0,0.0,0.0,0.0,0.0,0.0,0.0,0.0,0.0,0.0,0.0,0.0,0.0,0.0,0.0,0.0,0.0,0.0,0.0,0.0,0.0,0.0,0.0,0.0,-0.0112,-0.0392,-0.0876,-0.1406,-0.1946,-0.3144,-0.4015,-0.4519,-0.4519,-0.4412,-0.4328,-0.5063,-0.5629,-0.6146,-0.6892,-0.7379,-0.7655,-0.7815,-0.811,-0.8588,-0.883,-0.905,-0.9256,0.0,0.0,0.0,0.0,0.0,0.0,0.0,0.0,0.0,0.0,0.0,0.0,0.0,0.0,0.0,0.0,0.0,0.0,0.0,1.0338,1.0672,1.0569,1.0854,1.1087,1.1174,0.968,0.8354,0.7274,0.5347,0.539,0.7311,0.6945,0.7762,0.9481,0.8605,0.8413,0.8756,0.852,0.8114,0.7632,0.8056,0.0,0.0,0.0,0.0,0.0,0.0,0.0,0.0,0.0,1.2096,1.2304,0.0,0.0,0.0,0.0,1.1471,1.1113,1.0863,1.1209,1.1676,1.2065,0.0,0.0,1.15,1.1233,1.0839,1.0262,0.9826,0.0,0.0,0.0,0.0,0.0,0.0,0.0,0.0,0.0,0.0,0.0,0.0,0.0,0.0,0.0,0.0,0.0,0.0,0.0,0.0,0.0,0.0,0.0,0.0111,0.0,0.0,-0.0479,-0.0889,-0.1098,-0.2138,-0.3133,-0.4053,-0.4053,-0.4108,-0.4175,-0.4683,-0.5131,-0.563,-0.6303,-0.6951,-0.7513,-0.7513,-0.7782,-0.8237,-0.8237,-0.8417,-0.8723,0.0,0.0,0.0,0.0,0.0,0.0,0.0,0.0,0.0,0.0,0.0,0.0,0.0,0.0,0.0,0.0,0.0,0.0,1.0332,1.0439,1.0676,1.1097,1.1235,1.1462,1.1787,1.0673,0.9071,0.7014,0.7146,0.7733,0.8796,1.2506,1.2405,0.9154,1.013,0.952,0.7763,0.7347,0.711,0.6952,0.6713,0.7386,0.0,0.0,0.0,0.0,0.0,0.0,0.0,0.0,1.1296,1.1479,0.0,0.0,0.0,1.2606,1.2283,1.1691,1.1691,1.1648,1.1618,1.1588,0.0,0.0,1.2141,1.137,1.0831,1.1652,1.0762,0.9614,0.8956,0.0,0.0,0.0,0.0,0.0,0.0,0.0,0.0,0.0,0.0,0.0,0.0,0.0,0.0,0.0,0.0,0.0,0.0,0.0,0.0,0.0,0.0379,0.0,0.0,0.0,-0.0353,-0.1109,-0.1109,-0.1811,-0.3116,-0.3116,-0.3415,-0.3969,-0.4019,-0.4267,-0.4718,-0.5273,-0.6276,-0.7506,-0.7506,-0.7649,-0.7882,-0.7882,-0.8116,-0.837,0.0,0.0,0.0,0.0,0.0,0.0,0.0,0.0,0.0,0.0,0.0,0.0,0.0,0.0,0.0,0.0,0.0,0.0,1.0726,1.1106,1.1402,1.152,1.1562,1.1642,1.1724,1.0789,0.9451,0.7696,0.7981,0.8825,1.0163,1.0048,0.994,0.9754,0.8567,0.7749,0.7209,0.6722,0.6481,0.6428,0.6349,0.6591,0.0,0.0,0.0,0.0,0.0,0.0,0.0,0.0,0.0,0.0,0.0,0.0,0.0,1.2164,1.2103,1.1986,1.1332,1.1241,0.0,1.1534,0.0,0.0,0.0,1.2613,0.0,0.0,1.1116,1.0312,0.9614,0.0,0.0,0.0,0.0,0.0,0.0,0.0,0.0,0.0,0.0,0.0,0.0,0.0,0.0,0.0,0.0,0.0,0.0,0.0,0.0,0.0,0.0721,0.041,0.0,0.0,-0.0097,-0.034,-0.033,-0.11,-0.2465,-0.2916,-0.3169,-0.3232,-0.3665,-0.4094,-0.4563,-0.5585,-0.6247,-0.6637,-0.6983,-0.7335,-0.7602,-0.7602,-0.7796,-0.8063,0.0,0.0,0.0,0.0,0.0,0.0,0.0,0.0,0.0,0.0,0.0,0.0,0.0,0.0,0.0,0.0,0.0,0.0,0.0,0.0,1.1913,1.2053,1.1936,1.2047,1.2464,1.2322,1.1703,1.0616,0.9939,1.0015,1.0725,0.9468,0.9115,0.9469,0.7743,0.6979,0.6979,0.6647,0.6392,0.6221,0.6435,0.6464,0.6481,0.0,0.0,0.0,0.0,0.0,0.0,0.0,0.0,0.0,1.149,0.0,1.2396,1.2224,1.2408,1.2553,1.2054,1.1912,0.0,1.2184,1.2497,1.2987,1.3767,0.0,0.0,0.0,0.0,0.0,0.0,0.0,0.0,0.0,0.0,0.0,0.0,0.0,0.0,0.0,0.0,0.0,0.0,0.0,0.0,0.0,0.0,0.0,0.0,0.0,0.0,0.0,0.1192,0.0739,0.0345,0.0143,0.0,0.0,0.0,-0.0461,-0.1349,-0.1972,-0.2465,-0.2868,-0.3474,-0.3965,-0.4478,-0.5173,-0.561,-0.5873,-0.6209,-0.6434,-0.6617,-0.6617,-0.6935,-0.737,0.0,0.0,0.0,0.0,0.0,0.0,0.0,0.0,0.0,0.0,0.0,0.0,0.0,0.0,0.0,0.0,0.0,0.0,0.0,0.0,1.2344,1.2676,1.2466,1.2799,1.3768,1.465,1.4956,1.4645,1.2545,1.126,1.0768,1.0162,0.9442,0.8602,0.7474,0.6965,0.6939,0.6897,0.659,0.6156,0.6649,0.6645,0.6441,0.7053,0.0,0.0,0.0,0.0,0.0,0.0,0.0,0.0,1.1219,1.1578,1.1999,1.2561,1.2952,1.3283,1.3358,1.3185,1.3006,1.3162,1.3232,0.0,1.38,1.3837,1.3361,1.2104,0.0,0.0,0.0,0.0,0.0,0.0,0.0,0.0,0.0,0.0,0.0,0.0,0.0,0.0,0.0,0.0,0.0,0.0,0.0,0.0,0.0,0.0,0.0,0.2884,0.1684,0.1041,0.0994,0.0366,0.009,0.0,0.0045,0.0,0.0,-0.0672,-0.1652,-0.2807,-0.3353,-0.388,-0.4347,-0.4391,-0.4739,-0.5216,-0.526,-0.5303,-0.5303,-0.5303,-0.5793,-0.648,0.0,0.0,0.0,0.0,0.0,0.0,0.0,0.0,0.0,0.0,0.0,0.0,0.0,0.0,0.0,0.0,0.0,0.0,0.0,0.0,1.3118,1.33,1.39,1.4576,1.5318,1.5687,1.554,1.4917,1.3792,1.2639,1.1366,1.0315,0.9213,0.8036,0.7314,0.6894,0.664,0.6197,0.5795,0.5502,0.5612,0.5615,0.5645,0.6286,0.6824,0.0,0.0,0.0,0.0,0.0,0.0,0.0,1.1219,1.1886,1.2516,1.2119,1.2781,1.3502,1.2762,1.2648,0.0,0.0,1.3467,1.3927,1.3986,1.3644,1.3097,1.2266,0.0,0.0,0.0,0.0,0.0,0.0,0.0,0.0,0.0,0.0,0.0,0.0,0.0,0.0,0.0,0.0,0.0,0.0,0.0,0.0,0.0,0.0,0.0,0.2746,0.2452,0.208,0.1629,0.0989,0.0716,0.0,0.0224,0.0,-0.0045,-0.1118,-0.2277,-0.3398,-0.3534,-0.3667,-0.3792,-0.422,-0.4474,-0.4652,-0.513,-0.5303,-0.5303,-0.5303,-0.542,-0.5597,0.0,0.0,0.0,0.0,0.0,0.0,0.0,0.0,0.0,0.0,0.0,0.0,0.0,0.0,0.0,0.0,0.0,0.0,0.0,0.0,1.3743,1.3877,1.5069,1.5908,1.6324,1.6923,1.6813,1.5917,1.5072,1.37,1.1804,1.053,0.9487,0.8635,0.8054,0.7499,0.6966,0.6645,0.6059,0.5334,0.5602,0.548,0.5198,0.5985,0.6337,0.6538,0.7417,0.0,0.0,0.0,0.0,0.0,0.0,0.0,1.2125,1.2402,1.2878,1.3312,1.3348,0.0,0.0,1.3441,0.0,1.4076,1.4038,1.3426,1.2718,0.0,0.0,0.0,0.0,0.0,0.0,0.0,0.0,0.0,0.0,0.0,0.0,0.0,0.0,0.0,0.0,0.0,0.0,0.0,0.0,0.0,0.0,0.388,0.3442,0.3126,0.2854,0.2541,0.2228,0.1652,0.134,0.134,0.0716,0.0134,-0.0448,-0.1385,-0.2142,-0.2771,-0.3353,-0.3581,-0.3622,-0.3924,-0.4005,-0.4052,-0.436,-0.4487,-0.4487,-0.4487,-0.4657,-0.4913,0.0,0.0,0.0,0.0,0.0,0.0,0.0,0.0,0.0,0.0,0.0,0.0,0.0,0.0,0.0,0.0,0.0,0.0,0.0,1.3816,1.4176,1.4484,1.5815,1.6653,1.6892,1.7637,1.7584,1.6691,1.5683,1.424,1.2392,1.0931,0.9975,0.9478,0.8958,0.823,0.7418,0.7372,0.6593,0.5456,0.5861,0.5599,0.5042,0.5819,0.6025,0.6014,0.6798,0.7351,0.784,0.8637,0.0,0.0,0.0,0.0,1.1525,1.2569,1.2849,1.3017,1.3946,0.0,1.3591,1.395,1.4006,0.0,1.3864,1.3151,0.0,0.0,0.0,0.0,0.0,0.0,0.0,0.0,0.0,0.0,0.0,0.0,0.0,0.0,0.0,0.0,0.0,0.0,0.0,0.0,0.0,0.0,0.4739,0.4096,0.3751,0.3751,0.3167,0.2854,0.2854,0.2275,0.1962,0.1962,0.1251,0.0358,-0.0626,-0.134,-0.1697,-0.1875,-0.2948,-0.3442,-0.3442,-0.3578,-0.3581,-0.3581,-0.3581,-0.3581,-0.3581,-0.3581,-0.388,-0.4351,0.0,0.0,0.0,0.0,0.0,0.0,0.0,0.0,0.0,0.0,0.0,1.3666,1.3349,1.2813,0.0,0.0,0.0,0.0,1.2709,0.0,0.0,1.5214,1.5674,1.6222,1.6895,1.6413,1.6049,1.5854,1.4289,1.3595,1.372,1.1726,1.0338,0.9478,0.8958,0.8265,0.756,0.722,0.657,0.5794,0.552,0.5339,0.5267,0.5401,0.5621,0.6013,0.6803,0.7368,0.789,0.9017,0.9591,0.0,0.0,0.0,0.0,1.1487,1.2154,1.2846,1.2987,0.0,1.3588,0.0,1.3629,1.3323,0.0,0.0,0.0,0.0,0.0,0.0,0.0,0.0,0.0,0.0,0.0,0.0,0.0,0.0,0.0,0.0,0.0,0.0,0.0,0.0,0.0,0.0,0.0,0.0,0.5959,0.4913,0.4303,0.4303,0.3748,0.349,0.349,0.2898,0.2583,0.2583,0.1429,0.0805,0.0626,-0.0492,-0.1295,-0.183,-0.2541,-0.2807,-0.2854,-0.3398,-0.3581,-0.3581,-0.3581,-0.3581,-0.3581,-0.3581,-0.3667,-0.3711,0.0,0.0,0.0,0.0,0.0,0.0,0.0,0.0,0.0,0.0,0.0,1.257,1.2441,1.1712,0.0,0.0,0.0,0.0,1.1541,1.2214,0.0,0.0,1.4698,1.5112,1.5329,1.4988,1.4622,1.424,1.3176,1.2816,1.3143,1.2232,1.1567,1.1122,1.0315,0.9487,0.8712,0.7832,0.6972,0.6169,0.5561,0.551,0.5773,0.5437,0.5609,0.6142,0.6586,0.6889,0.7196,0.8402,0.9012,0.9336,0.9881,0.0,0.0,0.0,1.1733,1.2121,1.2829,1.3424,1.3847,0.0,1.3735,1.3514,1.3267,0.0,0.0,0.0,0.0,0.0,0.0,0.0,0.0,0.0,0.0,0.0,0.0,0.0,0.0,0.0,0.0,0.0,0.0,0.0,0.0,0.0,0.0,0.6184,0.6184,0.5389,0.4913,0.4913,0.4351,0.4049,0.4049,0.348,0.3034,0.2672,0.214,0.1741,0.1385,0.0492,-0.0402,-0.134,-0.1919,-0.2184,-0.2228,-0.2857,-0.3078,-0.3126,-0.3486,-0.3581,-0.3581,-0.3581,-0.3581,-0.3622,0.0,0.0,0.0,0.0,0.0,0.0,0.0,0.0,0.0,0.0,0.0,0.0,1.1117,0.0,0.0,0.0,0.0,0.0,0.9796,0.0,0.0,0.0,0.0,1.341,1.326,1.3193,1.3029,1.2737,1.2198,1.2319,1.3044,1.277,1.2896,1.3226,1.1891,1.0771,0.9797,0.8592,0.7617,0.6778,0.6175,0.6033,0.6199,0.6048,0.6178,0.6406,0.6528,0.6633,0.0,0.0,0.0,0.0,0.0,0.0,0.0,0.0,0.0,0.0,0.0,0.0,1.3643,1.3763,1.3709,1.3566,0.0,0.0,0.0,0.0,0.0,0.0,0.0,0.0,0.0,0.0,0.0,0.0,0.0,0.0,0.0,0.0,0.0,0.0,0.0,0.0,0.0,0.0,0.0,0.6647,0.6647,0.591,0.5524,0.5524,0.4957,0.4565,0.4387,0.388,0.3353,0.2943,0.2763,0.2453,0.2008,0.1385,0.0536,-0.0492,-0.1251,-0.1563,-0.1607,-0.2228,-0.2453,-0.2497,-0.2948,-0.3129,-0.3173,-0.3309,-0.3353,-0.3439,0.0,0.0,0.0,0.0,0.0,0.0,0.0,0.0,0.0,0.0,0.0,0.0,0.0,0.0,0.0,0.0,0.0,0.0,0.0,0.0,0.0,0.0,0.0,0.0,1.0979,1.0909,1.1182,1.1769,1.1415,1.2397,1.4581,1.3545,1.391,1.5369,1.3313,1.1624,1.0215,0.0,0.0,0.0,0.7685,0.7062,0.6324,0.7502,0.7534,0.6942,0.6825,0.0,0.0,0.0,0.0,0.0,0.0,0.0,1.0396,0.0,0.0,0.0,0.0,1.2565,0.0,1.3326,1.3222,0.0,0.0,0.0,0.0,0.0,0.0,0.0,0.0,0.0,0.0,0.0,0.0,0.0,0.0,0.0,0.0,0.0,0.0,0.0,0.0,0.0,0.0,0.0,0.0,0.7829,0.7829,0.6774,0.6136,0.6136,0.5567,0.5,0.4391,0.388,0.3578,0.3534,0.2987,0.2672,0.263,0.2006,0.1429,0.076,-0.0447,-0.0939,-0.0984,-0.1607,-0.1828,-0.1828,-0.1873,-0.1873,-0.1964,-0.2539,-0.2763,-0.2851,0.0,0.0,0.0,0.0,0.0,0.0,0.0,0.0,0.0,0.0,0.0,0.0,0.0,0.6502,0.5669,0.5076,0.0,0.0,0.0,0.0,0.0,0.0,0.0,0.0,0.0,0.8925,0.9336,0.9833,0.9973,1.096,1.2724,1.2672,1.2974,1.3575,1.282,1.2226,1.1603,0.9763,0.0,0.0,0.0,0.7593,0.766,0.7474,0.7731,0.8128,0.0,0.0,0.0,0.0,0.0,0.0,0.9414,0.974,1.011,1.0322,1.0831,0.0,0.0,0.0,0.0,1.3175,1.3501,1.3542,0.0,0.0,0.0,0.0,0.0,0.0,0.0,0.0,0.0,0.0,0.0,0.0,0.0,0.0,0.0,0.0,0.0,0.0,0.0,0.0,0.0,0.0,0.0,0.0,0.7919,0.7154,0.6732,0.6732,0.5967,0.5095,0.4131,0.4121,0.3921,0.3581,0.3398,0.3262,0.3262,0.2674,0.2273,0.2006,0.1204,0.0402,-0.0359,-0.0984,-0.1206,-0.1252,-0.1652,-0.1786,-0.183,-0.2051,-0.214,-0.223,0.0,0.0,0.0,0.0,0.0,0.0,0.0,0.0,0.0,0.7694,0.0,0.0,0.0,0.0,0.4363,0.3402,0.2829,0.0,0.3504,0.0,0.0,0.0,0.0,0.0,0.0,0.7338,0.7928,0.8596,0.9197,1.0208,1.16,1.2153,1.2527,1.2709,1.2393,1.2243,0.0,0.0,0.0,0.8708,0.0,0.0,0.8751,0.8409,0.8682,0.9059,0.0,0.0,0.0,0.0,0.0,0.0,0.0,0.9803,0.997,1.031,1.076,0.0,1.1813,0.0,0.0,0.0,0.0,1.3389,0.0,0.0,0.0,0.0,0.0,0.0,0.0,0.0,0.0,0.0,0.0,0.0,0.0,0.0,0.0,0.0,0.0,0.0,0.0,0.0,0.0,0.0,0.0,0.0,0.8439,0.7889,0.7425,0.7154,0.6197,0.5343,0.4568,0.4572,0.4418,0.4188,0.3968,0.388,0.3836,0.3255,0.2898,0.2672,0.2273,0.1429,0.0269,-0.0134,-0.0403,-0.0627,-0.1029,-0.1207,-0.1206,-0.1429,-0.1518,-0.1563,0.0,0.0,0.0,0.0,0.0,0.0,0.0,0.0,0.7421,0.6612,0.0,0.0,0.0,0.0,0.0,0.192,0.1284,0.1039,0.1288,0.2333,0.0,0.0,0.0,0.0,0.0,0.618,0.6987,0.8217,0.9116,1.0251,1.155,1.2102,1.2622,1.3064,1.2094,1.1658,1.1588,0.0,1.006,0.9771,0.0,1.0233,0.9483,0.0,0.0,0.0,0.8129,0.8445,0.0,0.8583,0.0,0.0,0.0,1.0003,0.9944,1.0285,1.0605,0.0,0.0,0.0,0.0,0.0,0.0,0.0,0.0,0.0,0.0,0.0,0.0,0.0,0.0,0.0,0.0,0.0,0.0,0.0,0.0,0.0,0.0,0.0,0.0,0.0,0.0,0.0,0.0,0.0,0.0,0.9518,0.9518,0.899,0.8278,0.7402,0.6317,0.5699,0.5688,0.5166,0.5034,0.5288,0.4678,0.4413,0.4374,0.3869,0.33,0.2758,0.2716,0.2051,0.0939,0.094,0.0583,0.0045,0.0045,0.0045,-0.0045,-0.0672,-0.0895,-0.0939,0.0,0.0,0.0,0.0,0.0,1.1009,0.9821,0.8493,0.7416,0.0,0.0,0.0,0.4683,0.3768,0.2885,0.2152,0.1849,0.1599,0.1309,0.1828,0.2206,0.2402,0.3644,0.4515,0.4916,0.5929,0.7051,0.8217,0.875,0.9485,1.0383,1.0935,1.1245,1.1365,1.1159,1.0906,1.0661,1.005,0.0,0.9967,0.9794,1.0188,0.0,0.0,0.0,0.0,0.0,1.026,1.0696,0.0,1.0574,1.0718,0.0,0.0,0.9607,0.9944,1.0285,0.0,1.093,0.0,0.0,0.0,0.0,0.0,0.0,0.0,0.0,0.0,0.0,0.0,0.0,0.0,0.0,0.0,0.0,0.0,0.0,0.0,0.0,0.0,0.0,0.0,0.0,0.0,0.0,0.0,1.0379,0.9845,0.9518,0.8663,0.769,0.6652,0.6549,0.6042,0.5113,0.5152,0.5005,0.4631,0.4473,0.4394,0.4398,0.4057,0.378,0.3612,0.3433,0.2901,0.2184,0.1741,0.1474,0.1252,0.0806,0.0672,0.0583,-0.0045,-0.0269,-0.0314,0.0,0.0,0.0,0.0,1.2035,1.0924,0.9526,0.8488,0.7431,0.0,0.0,0.0,0.3957,0.3176,0.2624,0.2358,0.2037,0.17,0.1455,0.1714,0.1913,0.2011,0.3101,0.3973,0.4605,0.5506,0.6629,0.8001,0.8197,0.8775,0.9698,1.0017,1.0247,1.0368,1.04,1.0333,1.0125,0.9524,0.0,0.0,1.0155,0.0,0.0,1.1011,1.1274,0.0,0.0,0.0,1.1454,1.1338,1.1209,0.0,0.0,0.0,0.0,0.0,0.0,0.0,0.0,0.0,0.0,0.0,0.0,0.0,0.0,1.2719,0.0,0.0,0.0,0.0,0.0,0.0,0.0,0.0,0.0,0.0,0.0,0.0,0.0,0.0,0.0,0.0,0.0,0.0,0.0,1.1653,1.1148,1.0575,0.9915,0.8887,0.7901,0.6966,0.6864,0.6417,0.548,0.5654,0.5511,0.5135,0.4915,0.4764,0.4769,0.4348,0.4165,0.4129,0.3843,0.3469,0.3127,0.263,0.2196,0.1784,0.1429,0.1297,0.1207,0.0583,0.0359,0.0269,0.0,0.0,1.3518,1.2594,1.2057,1.113,0.9264,0.8565,0.7563,0.0,0.5055,0.4322,0.3289,0.2805,0.2562,0.2523,0.2036,0.1681,0.1599,0.1866,0.2014,0.2014,0.29,0.3774,0.4662,0.5119,0.6133,0.7772,0.7698,0.8271,0.9408,0.9408,0.9593,0.9905,0.9905,0.9917,0.988,0.9232,0.0,0.9763,1.092,1.1498,0.0,0.0,1.1877,1.1828,1.0993,1.1235,1.1859,1.161,1.1499,0.0,0.0,0.0,0.0,0.0,1.0353,0.0,0.0,0.0,0.0,0.0,0.0,0.0,1.2637,1.249,0.0,0.0,0.0,0.0,0.0,0.0,0.0,0.0,0.0,0.0,0.0,0.0,0.0,0.0,0.0,0.0,0.0,1.2896,1.2603,1.2508,1.1993,1.1311,1.0365,0.936,0.8495,0.7739,0.7202,0.673,0.6308,0.6282,0.6233,0.6168,0.5578,0.529,0.529,0.4712,0.4455,0.4422,0.4038,0.3859,0.3795,0.3472,0.2814,0.1951,0.1916,0.1917,0.183,0.1206,0.0984,0.0895,0.0,1.3052,1.3138,1.2517,1.1912,1.1024,0.9741,0.8846,0.8063,0.7465,0.6186,0.4871,0.3616,0.3294,0.3017,0.2689,0.2457,0.2123,0.1639,0.1866,0.2014,0.2014,0.32,0.4258,0.5054,0.5846,0.6881,0.8195,0.8168,0.8601,0.9408,0.9408,0.9593,0.9905,0.9905,0.9747,0.9544,0.0,0.0,1.0072,1.0014,0.0,1.2073,1.2089,1.2368,1.2657,1.2473,1.255,1.2599,1.2176,1.182,1.1482,0.0,0.0,0.0,0.0,0.0,1.1564,1.1668,0.0,0.0,0.0,0.0,0.0,1.2194,1.2521,0.0,0.0,0.0,0.0,0.0,0.0,0.0,0.0,0.0,0.0,0.0,0.0,0.0,0.0,0.0,0.0,0.0,1.3669,1.3319,1.2579,1.1689,1.0761,0.989,0.9283,0.8422,0.7263,0.7106,0.6863,0.6463,0.6129,0.5978,0.5948,0.5509,0.5287,0.5294,0.4958,0.4798,0.4774,0.4416,0.408,0.3782,0.3742,0.3457,0.3061,0.2685,0.2539,0.245,0.1828,0.1607,0.1518,1.2814,1.2827,1.2818,1.2726,1.1954,1.1042,1.0178,0.9361,0.8515,0.7631,0.6138,0.4974,0.4311,0.377,0.3377,0.3166,0.3035,0.2778,0.2379,0.241,0.2518,0.2639,0.3528,0.4578,0.5812,0.6474,0.753,0.8993,0.8572,0.8861,0.9789,0.9325,0.9527,1.0295,1.0018,1.0113,1.0477,0.0,1.0254,1.0917,1.0671,0.0,1.2209,1.2471,1.2695,1.2881,1.2881,1.2881,1.2812,1.2383,1.1934,0.0,0.0,1.0888,1.0891,0.0,1.0852,1.1216,0.0,0.0,0.0,1.1676,0.0,0.0,0.0,0.0,1.2372,0.0,0.0,0.0,0.0,0.0,0.0,0.0,0.0,0.0,0.0,0.0,0.0,0.0,0.0,0.0,0.0,1.4019,1.3602,1.2896,1.2174,1.1266,1.0157,0.9621,0.8746,0.7431,0.7403,0.7216,0.6811,0.6601,0.6397,0.6183,0.6006,0.5797,0.5592,0.5476,0.528,0.5061,0.4682,0.4387,0.4186,0.404,0.4011,0.3922,0.3266,0.315,0.3239,0.2519,0.2228,0.214,1.2838,1.2615,1.2415,1.2582,1.1769,1.0921,1.0323,0.9622,0.8679,0.7272,0.6086,0.5321,0.519,0.0,0.0,0.0,0.3781,0.3538,0.0,0.3076,0.3101,0.3407,0.3971,0.4961,0.6423,0.7132,0.8187,0.9583,0.8941,0.9176,1.0171,0.9304,0.9548,1.0681,1.0257,0.0,0.0,0.0,0.0,1.1966,0.0,1.1983,1.2167,1.2691,1.285,1.2812,1.2987,1.3162,1.3178,1.255,0.0,1.1757,1.1116,1.1025,0.0,0.0,0.0,0.0,0.0,0.0,0.0,0.0,0.0,1.1562,0.0,0.0,0.0,1.2401,0.0,0.0,0.0,0.0,0.0,0.0,0.0,0.0,0.0,0.0,0.0,0.0,0.0,0.0,0.0,1.4156,1.3717,1.348,1.282,1.1926,1.0786,1.0069,0.9129,0.7871,0.7754,0.7539,0.7216,0.7148,0.6931,0.6601,0.6548,0.6336,0.6006,0.6006,0.5828,0.5522,0.5042,0.4788,0.4704,0.4408,0.4418,0.4539,0.3862,0.3817,0.3981,0.3293,0.2984,0.2721,1.1847,1.192,1.1707,1.1227,1.076,1.0197,0.9609,0.8955,0.8158,0.7224,0.7167,0.69,0.0,0.0,0.0,0.0,0.0,0.0,0.3581,0.0,0.3468,0.3905,0.4834,0.5631,0.6305,0.7981,0.8983,0.9169,0.9379,0.9704,1.02,0.9619,0.9806,1.0694,1.0631,0.0,0.0,0.0,1.2036,0.0,1.3024,1.2505,0.0,1.2658,1.269,1.24,1.3361,1.4061,1.4356,0.0,1.2955,1.2668,0.0,1.1237,1.1544,0.0,0.0,0.0,0.0,0.0,0.0,0.0,1.1758,0.0,0.0,0.0,1.1795,1.1534,0.0,0.0,0.0,0.0,0.0,0.0,0.0,0.0,0.0,0.0,0.0,0.0,0.0,0.0,0.0,0.0,1.3768,1.4301,1.2974,1.1969,1.1572,1.0389,0.9256,0.8265,0.7899,0.7666,0.7627,0.7275,0.708,0.7029,0.6661,0.6488,0.6427,0.6427,0.6397,0.6336,0.5937,0.5533,0.5086,0.4716,0.4557,0.4621,0.4698,0.4554,0.4362,0.4248,0.3917,0.3398,1.1627,1.1553,1.1232,1.0954,1.0164,0.9571,0.944,0.8954,0.8474,0.8139,0.7721,0.0,0.0,0.0,0.0,0.0,0.0,0.5452,0.0,0.0,0.0,0.5357,0.5444,0.6069,0.7256,0.8417,0.9412,1.0256,1.0096,1.0351,1.1018,1.0539,1.0639,1.1224,1.1224,0.0,1.2981,0.0,1.247,0.0,0.0,0.0,0.0,1.3256,1.3144,1.2766,1.3579,1.3817,1.3628,0.0,1.2685,0.0,0.0,0.0,0.0,0.0,0.0,0.0,0.0,0.0,0.0,0.0,0.0,0.0,1.0843,0.0,1.0868,0.0,0.0,0.0,0.0,0.0,0.0,0.0,0.0,0.0,0.0,0.0,0.0,0.0,0.0,0.0,0.0,0.0,0.0,0.0,0.0,1.2309,1.1721,1.0891,0.9786,0.834,0.8148,0.7947,0.7695,0.7539,0.7442,0.7432,0.7285,0.7068,0.685,0.685,0.6721,0.648,0.6336,0.5998,0.5626,0.5681,0.5518,0.5257,0.5592,0.5311,0.4659,0.4475,0.4239,0.3959,1.1255,0.0,0.0,1.0362,0.9639,0.9104,0.9141,0.892,0.8804,0.8804,0.0,0.0,0.7852,0.7265,0.0,0.0,0.6602,0.6455,0.0,0.0,0.5495,0.6561,0.6293,0.681,0.8293,0.9228,1.0233,1.1296,1.1006,1.1184,1.1814,1.1363,1.132,1.16,1.1738,1.2567,1.3785,0.0,1.3189,1.45,1.4108,1.3831,1.3697,1.3828,1.3729,1.3525,1.3971,1.3863,1.3403,1.2822,1.2657,0.0,1.2334,0.0,0.0,0.0,0.0,0.0,1.1627,0.0,0.0,0.0,0.0,0.0,0.0,0.0,0.0,0.0,0.0,0.0,0.0,0.0,0.0,0.0,0.0,0.0,0.0,0.0,0.0,0.0,0.0,0.0,0.0,0.0,0.0,0.0,0.0,0.0,1.1879,1.1232,1.0209,0.8639,0.8505,0.8251,0.787,0.787,0.7812,0.7695,0.7695,0.7539,0.7275,0.7275,0.7098,0.6829,0.67,0.6488,0.6244,0.6427,0.6269,0.5944,0.6109,0.583,0.5267,0.4829,0.4532,0.43,1.0361,1.0322,0.0,0.0,0.8939,0.897,0.8475,0.8624,0.8804,0.0,0.0,0.0,0.0,0.0,0.0,0.0,0.0,0.7267,0.6452,0.0,0.6294,0.702,0.7485,0.8165,0.0,1.0833,1.1743,1.1778,1.2152,1.2359,1.2366,1.1839,1.1588,1.1613,1.214,1.2672,1.3261,1.3785,1.4664,1.5643,1.5643,1.5217,1.4631,0.0,1.4328,1.4665,1.4728,0.0,0.0,1.3599,1.3281,0.0,0.0,0.0,0.0,0.0,0.0,0.0,0.0,0.0,0.0,1.0008,0.0,0.0,0.0,0.0,1.029,0.0,0.0,0.0,0.0,0.0,0.0,0.0,0.0,0.0,0.0,0.0,0.0,0.0,0.0,0.0,0.0,0.0,0.0,0.0,0.0,0.0,1.2197,1.1256,1.0294,0.9393,0.8981,0.8634,0.829,0.829,0.8091,0.7695,0.7695,0.7695,0.7666,0.7666,0.7666,0.7637,0.7246,0.708,0.702,0.6661,0.6488,0.6443,0.6052,0.6145,0.6339,0.5569,0.4915,0.438,0.0,0.0,0.0,0.0,0.0,0.8805,0.8721,0.9127,0.9465,0.0,0.0,0.0,0.0,0.8804,0.8699,0.0,0.0,0.8277,0.8019,0.7347,0.0,0.0,0.0,0.9005,0.0,0.0,1.189,1.2396,1.2415,1.2416,1.2416,1.2592,1.2479,1.2153,0.0,1.3471,0.0,0.0,0.0,0.0,0.0,1.5768,1.582,0.0,0.0,1.4204,1.4269,1.4313,0.0,1.3495,1.3213,1.3189,1.2816,1.272,1.272,1.272,1.272,0.0,0.0,0.0,1.2447,1.1362,0.0,0.0,0.0,0.0,0.0,0.0,0.0,0.0,0.0,0.0,0.0,0.0,0.0,0.0,0.0,0.0,0.0,0.0,0.0,0.0,0.0,0.0,0.0,0.0,0.0,0.0,0.0,1.1583,1.0609,0.9701,0.9372,0.9008,0.8634,0.8634,0.8578,0.8439,0.8439,0.8298,0.8091,0.8091,0.8091,0.8062,0.7676,0.7491,0.7472,0.7344,0.6978,0.651,0.6639,0.6601,0.639,0.559,0.533,0.5311,1.0315,0.0,0.0,0.0,0.0,0.9123,0.9384,0.0,0.0,0.0,0.9256,0.0,0.8804,0.0,0.8804,0.0,0.8804,0.8804,0.8804,0.8165,0.0,0.8791,0.9067,0.0,0.0,1.1756,1.249,1.3201,0.0,1.2893,1.2685,1.3035,1.2897,1.2429,0.0,1.3735,1.4614,0.0,1.5016,0.0,0.0,1.6056,0.0,0.0,1.5154,1.4488,0.0,1.4216,1.3964,1.3413,1.3198,1.3198,1.3198,1.3198,1.3198,1.3198,1.3198,1.3163,1.299,1.2943,0.0,1.1372,1.0929,0.0,0.9743,0.0,0.0,0.0,0.0,0.0,0.0,0.0,0.0,0.0,0.0,0.0,0.0,0.0,0.0,0.0,0.0,0.0,0.0,0.0,1.4735,1.4211,0.0,0.0,0.0,0.0,1.0855,1.0046,0.9739,0.9396,0.9008,0.9008,0.8926,0.8789,0.8789,0.8679,0.8477,0.8477,0.8477,0.8477,0.8195,0.8099,0.8078,0.8099,0.7715,0.7168,0.7394,0.7257,0.6829,0.6006,0.5882,0.6029,0.0,0.0,0.0,0.0,0.9995,0.0,0.0,0.0,1.0261,0.0,0.9413,0.8804,0.891,0.8956,0.8962,0.8857,0.8857,0.8857,0.8857,0.8602,0.0,0.0,0.945,1.0421,1.1842,1.2744,1.3516,0.0,0.0,0.0,1.3232,1.3198,1.2922,1.2479,1.2973,0.0,1.416,1.4689,1.5505,1.6522,1.6522,1.6151,1.5632,1.5632,1.562,1.5552,1.5042,1.4502,1.3915,1.3371,1.3198,1.3198,1.3198,1.3198,1.3198,1.3198,1.3198,1.3094,1.265,1.252,1.2048,1.0255,0.0,0.0,0.0,0.0,1.039,0.0,0.0,0.0,0.0,0.0,0.0,0.0,0.0,0.0,0.0,0.0,0.0,0.0,0.0,0.0,0.0,0.0,1.4511,1.4444,1.3571,0.0,0.0,0.0,1.1047,1.047,1.011,0.979,0.9475,0.9449,0.9251,0.8871,0.8871,0.8844,0.8844,0.8844,0.8844,0.8816,0.8816,0.8816,0.8816,0.8816,0.8606,0.8308,0.8266,0.8021,0.7656,0.6829,0.654,0.651,1.1232,1.1666,1.2073,0.0,1.1864,1.1473,0.0,0.0,0.0,0.0,0.9769,0.9159,1.0167,1.1242,1.1301,0.9969,0.9865,0.0,0.0,0.0,0.0,0.9562,1.0147,1.138,1.317,1.3108,0.0,1.5164,0.0,0.0,1.3702,1.3357,1.3123,0.0,0.0,0.0,1.4702,1.4853,1.5505,1.6522,1.6522,1.6423,0.0,0.0,1.6033,1.5546,1.4586,1.4179,1.3964,1.3388,1.3198,1.3198,1.3198,1.3198,1.3198,1.3198,1.3198,1.3163,1.3047,1.2716,1.2234,1.1449,1.0738,1.0084,0.0,0.0,0.0,0.0,0.0,0.0,0.0,0.0,0.0,0.0,0.0,0.0,0.0,0.0,0.0,0.0,0.0,0.0,0.0,0.0,1.4851,1.3752,0.0,0.0,0.0,0.0,0.0,1.1089,1.0774,1.0594,1.0521,1.0285,1.0097,0.9983,0.9751,0.9502,0.9235,0.9235,0.9235,0.9235,0.8926,0.8953,0.9235,0.8926,0.8761,0.8679,0.864,0.8584,0.84,0.7345,0.6913,0.6836,1.1634,0.0,0.0,1.2842,0.0,0.0,1.2101,0.0,0.0,1.2107,1.1242,0.0,1.1642,1.2412,1.2471,1.1493,1.1032,0.0,1.0261,0.0,0.0,1.0269,1.0864,1.1886,1.328,1.3583,0.0,1.4827,0.0,0.0,1.3581,1.3323,0.0,0.0,0.0,1.3848,1.4941,1.5392,1.5957,1.6522,1.6522,0.0,0.0,1.6522,1.6019,1.5251,1.4612,1.4285,1.4009,1.3421,1.3198,1.3198,1.3198,1.3198,1.3198,1.3198,1.3198,1.3198,1.3198,1.2663,1.1952,1.1373,1.0582,0.9794,0.9188,0.9202,0.9425,0.0,0.0,0.0,0.0,0.0,0.0,0.0,0.0,0.0,0.0,0.0,0.0,0.0,0.0,0.0,0.0,0.0,0.0,0.0,0.0,0.0,0.0,0.0,0.0,1.149,1.1103,1.0897,1.0897,1.0715,1.0619,1.0619,1.0422,1.0248,1.0059,1.0059,1.0059,1.0034,0.9804,0.9842,1.0034,0.9804,0.9544,0.9215,0.8915,0.9078,0.9375,0.8419,0.7932,0.7771,0.0,0.0,0.0,0.0,0.0,0.0,0.0,1.2881,0.0,1.2881,0.0,1.2881,1.2881,1.2881,1.2881,1.2881,0.0,1.1484,1.0965,1.0914,1.0914,1.0914,1.1466,1.2199,1.3014,1.4057,0.0,0.0,0.0,1.4274,1.3301,1.3232,0.0,0.0,0.0,0.0,0.0,1.5969,1.6459,1.6522,1.6522,1.6522,1.6522,1.6522,1.5831,1.4916,1.4916,1.4513,1.3909,1.3396,1.3198,1.3198,1.3198,1.3198,1.3198,1.3198,1.3198,1.3198,1.3198,1.2516,1.1571,1.0732,1.0037,0.938,0.8515,0.8574,0.8857,0.8916,0.9241,0.9785,0.0,0.0,0.0,0.0,0.0,0.0,0.0,0.0,0.0,0.0,0.0,0.0,0.0,0.0,0.0,0.0,0.0,0.0,0.0,0.0,0.0,1.1764,1.1318,0.0,1.1015,0.0,1.0968,1.0944,1.092,1.0897,1.0897,1.0897,1.0897,1.0897,1.0897,1.0897,1.0897,1.0944,1.0578,0.9932,0.9322,0.9649,1.0396,0.9741,0.931,0.905,0.0,0.0,0.0,0.0,0.0,1.2881,1.2881,1.2881,1.2881,1.2881,1.2881,1.2881,1.2881,1.2881,1.2881,1.2881,1.2774,0.0,0.0,0.0,0.0,1.1616,1.1765,1.2638,1.4318,1.4161,1.4427,0.0,1.4586,1.4062,1.3769,0.0,0.0,0.0,0.0,0.0,1.4953,1.5567,0.0,1.6522,1.6522,1.6522,1.6522,1.6522,1.5831,1.4916,1.4916,1.4224,1.3323,1.3235,1.3198,1.3198,1.3198,1.3198,1.3198,1.3198,1.3198,1.3198,1.3198,1.2764,1.1976,1.0796,1.0055,0.9286,0.8079,0.787,0.8026,0.8418,0.8582,0.8894,0.9775,0.0,0.0,0.0,0.0,0.0,0.0,0.0,0.0,0.0,0.0,0.0,0.0,0.0,0.0,0.0,0.0,0.0,0.0,0.0,0.0,0.0,1.2009,0.0,0.0,0.0,1.1242,1.1242,1.1015,1.0897,1.0897,1.0897,1.0897,1.0897,1.0897,1.0897,1.092,1.1144,1.1162,1.101,1.065,1.0667,1.0801,1.0667,1.0581,1.0445,0.0,0.0,0.0,0.0,0.0,0.0,0.0,1.2881,0.0,1.2881,1.2881,1.2881,1.2881,1.2881,1.2881,1.2881,1.3286,1.3314,1.289,1.312,1.3301,1.3301,1.3301,0.0,1.4698,1.4732,1.4915,1.5147,1.4739,1.4333,1.3972,0.0,0.0,0.0,0.0,1.4938,0.0,0.0,0.0,1.7312,1.7034,1.6909,1.6879,1.6595,1.6007,1.5266,1.5016,1.4387,1.3609,1.3298,1.3198,1.3198,1.3198,1.3198,1.3198,1.3198,1.3198,1.3198,1.3198,1.263,1.179,1.0967,0.9976,0.8965,0.8199,0.7841,0.7754,0.7998,0.8037,0.8369,0.9443,1.0821,0.0,0.0,0.0,0.0,0.0,0.0,0.0,0.0,0.0,0.0,0.0,0.0,0.0,0.0,0.0,0.0,0.0,0.0,0.0,0.0,0.0,0.0,0.0,0.0,0.0,1.1978,1.1852,1.1788,1.1788,1.1788,1.1788,1.1788,1.1788,1.1788,1.1788,1.1721,1.1806,1.1927,1.1439,1.1365,1.152,1.152,1.1409,1.1193,0.0,1.2881,0.0,0.0,1.2881,0.0,1.361,1.3658,1.3478,1.2978,1.2881,1.3027,1.3248,1.3296,1.3296,1.3296,1.3884,1.4143,1.4003,1.4422,1.4698,1.4698,1.4698,1.4744,1.488,1.5365,1.5393,0.0,0.0,0.0,0.0,0.0,0.0,0.0,0.0,0.0,0.0,0.0,1.7981,1.8066,1.7626,1.7463,1.7435,1.6993,1.6414,1.5761,1.5351,1.476,1.4105,1.3543,1.3301,1.3198,1.3198,1.3198,1.3198,1.3198,1.3198,1.3198,1.3198,1.2572,1.1784,1.1154,1.0132,0.9102,0.8549,0.8166,0.7947,0.7947,0.787,0.8195,0.9378,1.0258,0.0,0.0,0.0,0.0,0.0,0.0,0.0,0.0,0.0,0.0,0.0,0.0,0.0,0.0,0.0,0.0,1.4844,1.3939,0.0,0.0,0.0,1.2687,1.2671,0.0,1.261,0.0,1.261,1.261,1.261,1.261,1.261,1.261,1.261,1.2668,1.2727,1.2395,1.245,1.2692,1.2155,1.2075,1.2282,1.2325,1.2175,1.1923,0.0,0.0,0.0,0.0,0.0,0.0,1.5832,1.6151,1.5389,1.32,1.2881,1.3344,1.4433,1.4525,1.4525,1.4525,1.4606,1.4652,1.4617,1.4652,1.4698,1.4698,1.4698,1.4971,1.5499,1.5588,1.561,0.0,0.0,0.0,0.0,0.0,0.0,0.0,0.0,0.0,0.0,1.7311,1.7671,1.8106,1.8066,1.8027,1.8027,1.7987,1.7235,1.6236,1.6181,1.5428,1.4378,1.398,1.3547,1.3198,1.3198,1.3198,1.3198,1.3198,1.3198,1.3198,1.3198,1.3123,1.273,1.1335,1.0886,1.0444,0.9074,0.8734,0.8706,0.8706,0.8439,0.8513,0.9359,0.9634,1.0156,0.0,0.0,0.0,0.0,0.0,0.0,0.0,0.0,0.0,0.0,0.0,0.0,0.0,0.0,0.0,1.4813,1.476,1.428,1.3295,0.0,1.2928,1.288,1.2692,1.261,1.261,1.261,1.261,1.261,1.261,1.261,1.261,1.261,1.2838,1.321,1.2934,1.2986,1.3227,1.3109,1.2955,1.2846,1.3024,1.3076,1.3059,0.0,0.0,0.0,0.0,0.0,0.0,0.0,1.6522,1.6151,1.5209,1.5062,1.5242,1.5744,1.5344,1.5073,1.5073,1.5152,1.5231,1.5231,1.5599,1.5788,1.5788,1.5788,1.6039,1.6617,1.6617,1.6809,0.0,0.0,1.6783,1.6364,0.0,0.0,0.0,0.0,1.7712,1.8164,1.8579,1.8848,1.9043,1.8688,1.8574,1.8535,1.8224,1.7802,1.7332,1.701,1.619,1.5146,1.4639,1.4091,1.3581,1.3301,1.3198,1.3198,1.3198,1.3198,1.3198,1.3198,1.296,1.2489,1.1579,1.0955,1.0273,0.9372,0.8981,0.8789,0.8789,0.869,0.8773,0.9338,0.9741,1.0197,0.0,0.0,0.0,0.0,0.0,0.0,0.0,0.0,0.0,0.0,0.0,0.0,0.0,0.0,0.0,0.0,1.4609,0.0,1.3678,0.0,1.3361,1.3327,1.3244,1.3159,1.3086,1.3159,1.3194,1.3194,1.3194,1.3261,1.3376,1.3376,1.3489,1.3646,1.3534,1.3567,1.3661,1.3626,1.358,1.3518,1.3596,1.3626,1.3693,1.2881,0.0,1.9108,0.0,1.6522,1.6522,1.6522,1.6522,1.6522,1.6522,1.6522,1.6522,1.6522,1.5976,1.5668,1.5668,1.5788,1.5864,1.5864,1.6238,1.6552,1.671,1.6752,0.0,1.7504,1.7544,1.7706,1.8106,1.7869,0.0,1.7533,0.0,0.0,0.0,1.8293,1.8726,1.9031,1.9495,1.969,1.969,1.9281,1.9132,1.9095,1.8688,1.846,1.8248,1.7845,1.7112,1.6192,1.5675,1.4992,1.4213,1.3442,1.3198,1.3198,1.3198,1.3198,1.3198,1.3198,1.291,1.2517,1.1964,1.1221,1.0464,0.9918,0.9449,0.9116,0.9116,0.9035,0.9089,0.9475,0.9788,1.0221,1.0995,0.0,0.0,0.0,0.0,0.0,0.0,1.7146,1.7475,1.7681,0.0,0.0,0.0,0.0,0.0,0.0,0.0,0.0,0.0,0.0,0.0,0.0,1.3706,1.365,1.3543,1.3632,1.3676,1.3676,1.3676,1.3783,1.3913,1.3913,1.3941,1.3997,1.4034,1.406,1.4042,1.4113,1.4108,1.4108,1.4139,1.4165,1.4324,1.2881,1.6631,1.9108,1.6911,1.6522,1.6522,1.6522,1.6522,1.6522,1.6522,1.6522,1.6522,1.6522,1.6479,1.6479,1.6479,1.6479,1.6479,1.6479,1.6522,1.6752,0.0,0.0,1.7544,1.8066,1.8106,1.8106,1.8106,0.0,0.0,1.8092,0.0,1.8864,1.8902,1.9427,1.9675,1.9675,1.969,1.969,1.969,1.969,1.969,1.969,1.969,1.9286,1.8683,1.8668,1.825,1.7617,1.7209,1.6374,1.5222,1.3694,1.3198,1.3198,1.3198,1.3198,1.3198,1.3198,1.3198,1.306,1.2509,1.1989,1.1425,1.0819,1.0268,0.988,0.988,0.9607,0.9502,0.9816,0.9619,1.0015,1.1885,0.0,0.0,0.0,0.0,0.0,0.0,1.6588,1.701,1.8265,0.0,0.0,0.0,0.0,0.0,0.0,0.0,0.0,1.4224,1.3997,0.0,1.4188,1.3997,1.3899,1.3881,1.3899,1.3899,1.3899,1.3899,1.3899,1.3913,1.3913,1.4011,1.4201,1.4349,1.44,1.4412,1.4608,1.466,1.4594,1.4678,1.4776,1.5008,1.7627,1.879,1.9108,1.6911,1.6522,1.6522,1.6522,1.6522,1.6522,1.6522,1.6522,1.7076,1.8535,1.7394,1.6522,0.0,1.6522,1.668,0.0,1.7034,1.7271,1.7827,1.7867,1.8106,1.8612,1.865,1.8817,1.9207,0.0,0.0,0.0,1.9369,1.9442,1.9442,1.9603,1.969,1.969,1.969,1.969,1.969,1.969,1.969,1.969,1.969,1.9555,1.9375,1.9375,1.8752,1.7949,1.783,1.7049,1.6083,1.5612,1.4398,1.3198,1.3198,1.3198,1.3198,1.3198,1.3198,1.3073,1.2522,1.2002,1.1437,1.0831,1.0295,0.9905,0.9905,0.9995,1.0097,1.0235,1.0701,1.1415,1.2374,1.2937,0.0,0.0,0.0,0.0,0.0,0.0,1.7434,0.0,1.7666,0.0,0.0,0.0,0.0,0.0,0.0,0.0,0.0,1.4738,0.0,1.4188,1.4684,1.457,1.3913,1.4038,1.4139,1.4247,1.4373,1.4448,1.4448,1.4548,1.4577,1.4545,1.468,1.4738,1.4757,1.4813,1.516,1.5621,1.564,1.6055,1.6716,1.9798,1.9798,1.9108,1.6911,1.6522,1.6522,1.6522,1.6522,1.6522,1.6522,1.6522,1.7146,1.8893,1.8263,0.0,1.7312,1.7146,1.7229,1.7585,1.7585,1.7827,1.838,1.8419,1.865,1.9207,0.0,0.0,1.969,1.969,1.969,1.969,1.969,1.969,1.969,1.969,1.969,1.969,1.969,1.969,1.969,1.969,1.969,1.969,1.969,1.969,1.969,1.969,1.9263,1.8693,1.8693,1.8006,1.7107,1.7107,1.5895,1.4406,1.4128,1.4062,1.401,1.3767,1.3682,1.3557,1.3077,1.2657,1.2141,1.1178,1.0507,1.0161,1.0405,1.074,1.1021,1.1263,1.1798,1.2479,1.3192,1.3756,1.4457,1.5418,0.0,0.0,0.0,0.0,0.0,0.0,1.8069,0.0,0.0,0.0,0.0,0.0,0.0,0.0,1.5405,1.5845,0.0,1.5325,1.549,1.5275,1.4663,1.4478,1.4448,1.4582,1.4718,1.4776,1.4776,1.485,1.4841,1.4785,1.4883,1.5123,1.5426,1.5426,1.5953,1.6707,1.6677,1.702,1.7638,1.9798,1.9798,0.0,0.0,1.6748,0.0,1.6547,1.6522,1.6522,1.6522,1.6637,1.7118,1.8106,1.9168,1.9546,1.8741,0.0,0.0,0.0,1.8212,1.8436,1.9003,1.904,1.928,1.975,1.9705,1.969,1.969,1.969,1.969,1.969,1.969,1.969,1.969,1.969,1.969,1.969,1.969,1.969,1.969,1.969,1.969,1.969,1.969,1.969,1.969,1.969,1.969,1.969,1.969,1.9043,1.8208,1.8208,1.7541,1.6578,1.5797,1.5541,1.5374,1.474,1.4529,1.4406,1.4019,1.3829,1.3329,1.1831,1.1003,1.0749,1.1375,1.1746,1.2172,1.2757,1.2925,1.3287,1.4251,1.4695,1.5285,1.6192,0.0,0.0,0.0,0.0,0.0,0.0,1.8417,1.8807,0.0,0.0,0.0,0.0,0.0,1.6226,1.6912,1.7176,1.7258,1.7214,1.6455,1.6026,1.5895,1.51,1.4785,1.4913,1.4913,1.4913,1.4913,1.4921,1.4921,1.4921,1.5053,1.5575,1.6319,1.6376,1.6972,1.7786,1.7729,1.7787,1.7998,0.0,0.0,1.9635,1.9108,1.9032,1.8455,1.6773,1.6522,1.6522,1.6522,1.7947,1.9043,1.9281,2.0474,2.0721,1.9531,1.8612,1.8263,1.8688,1.9198,1.9734,2.0264,2.0264,2.034,2.0468,1.9959,1.969,1.969,1.969,1.969,1.969,1.969,1.969,1.969,1.969,1.969,1.969,1.969,1.969,1.969,1.969,1.969,1.969,1.969,1.969,1.969,1.969,1.969,1.969,1.969,1.9534,1.9328,1.9328,1.9153,1.8569,1.6796,1.5895,1.5472,1.5299,1.4879,1.447,1.4374,1.4015,1.3484,1.265,1.236,1.2264,1.2443,1.2753,1.3095,1.3494,1.4186,1.4868,1.5361,1.595,1.6427,1.6644,1.6738,0.0,0.0,1.7429,1.7842,1.8415,1.8734,1.9017,0.0,0.0,0.0,0.0,1.8336,1.7726,1.7305,1.7928,1.7968,1.7367,1.7761,1.7317,1.6036,1.5245,1.4911,1.4977,1.4977,1.4977,1.4977,1.5087,1.508,1.5042,1.583,1.6266,1.6516,1.713,1.7941,1.8761,1.8747,1.9187,1.9793,1.961,1.9798,1.9798,1.9798,1.897,1.7903,1.6697,1.7353,1.7947,1.7947,1.8968,1.969,1.969,2.141,2.1949,2.0423,1.9943,1.9734,1.9727,2.005,2.0386,2.0669,2.0423,2.0393,2.0707,2.0034,1.969,1.969,1.969,1.969,1.969,1.969,1.969,1.969,1.969,1.969,1.969,1.969,1.969,1.969,1.969,1.969,1.969,1.969,1.969,1.969,1.969,1.969,1.969,1.969,1.969,1.969,1.969,1.969,1.9468,1.8302,1.7493,1.6838,1.6229,1.5794,1.5432,1.5162,1.4378,1.3653,1.3516,1.3259,1.3131,1.3429,1.3747,1.4183,1.4821,1.5386,1.5874,1.6198,1.6693,1.7027,1.7027,1.7167,0.0,1.7693,1.7854,1.8156,1.8734,1.8914,1.9067,1.9274,0.0,0.0,1.9419,1.9298,1.8987,1.8422,1.8958,1.903,1.8583,1.8289,1.7482,1.6172,1.5348,1.4996,1.5088,1.5088,1.5088,1.5095,1.5171,1.5383,1.5734,1.6279,1.6971,1.7721,1.8165,1.8888,1.9706,1.9737,2.0017,2.0395,1.993,2.037,2.037,2.037,1.8825,1.7583,1.7583,1.9126,2.0273,2.0273,2.0273,2.0273,2.0273,2.2263,2.2892,2.1141,2.1605,2.162,2.0782,2.0902,2.1006,2.1006,2.0453,2.0408,2.0991,2.0333,1.9944,1.9839,1.9839,1.9794,1.969,1.969,1.969,1.969,1.969,1.969,1.969,1.969,1.969,1.969,1.969,1.969,1.969,1.969,1.969,1.969,1.969,1.969,1.969,1.969,1.969,1.969,1.969,1.969,1.969,1.969,1.9286,1.8568,1.7219,1.6712,1.6428,1.5933,1.4892,1.4097,1.4456,1.4076,1.3828,1.4397,1.4779,1.5346,1.6344,1.6577,1.6738,1.7062,1.7363,1.7508,1.7384,0.0,1.7949,1.8166,1.827,1.8489,1.8949,1.9018,1.9117,1.932,1.9509,1.9636,0.0,1.989,1.9922,1.9669,1.9901,2.006,2.006,1.8425,1.724,1.6506,1.5647,1.5222,1.5189,1.5349,1.5407,1.5407,1.5407,1.5894,1.6701,1.6836,1.7771,1.9134,1.9245,1.9754,2.0425,2.048,2.0475,2.0435,2.2527,2.3024,2.3024,2.3024,2.2746,2.2483,2.2483,2.2755,2.2996,2.2996,2.2996,2.2996,2.2996,2.3355,2.2892,2.1141,2.2413,2.2562,2.0827,2.1754,2.2368,2.2368,2.2304,2.2263,2.2368,2.1724,2.1111,2.0557,2.0557,2.0258,1.969,1.969,1.969,1.969,1.969,1.969,1.969,1.969,1.969,1.969,1.969,1.969,1.969,1.969,1.969,1.969,1.969,1.969,1.969,1.969,1.969,1.969,1.969,1.969,1.969,1.969,1.9615,1.9241,1.7891,1.6757,1.5933,1.5829,1.5637,1.549,1.5548,1.5502,1.5457,1.5562,1.5816,1.6386,1.747,1.7866,1.8193,1.8516,1.8612,1.8434,1.7828,0.0,1.8146,1.8187,1.8585,1.8914,1.8984,1.915,1.9353,1.9541,1.9695,1.9774,1.9774,2.0079,2.0152,1.9934,2.0143,2.0249,2.0249,1.8539,1.7624,1.7471,1.6663,1.5895,1.5209,1.5965,1.6292,1.6292,1.6292,1.6783,1.766,1.8385,1.8892,1.9255,1.9931,2.0312,2.0482,2.0506,2.0537,2.0565,2.3355,2.3595,2.3595,2.3595,2.3595,2.3595,2.3595,2.3595,2.3595,2.3595,2.3595,2.3595,2.3595,2.3595,2.3086,2.1799,2.2862,2.3071,2.1859,2.2338,2.2724,2.2724,2.2338,2.2143,2.2143,2.1859,2.138,2.0722,2.0348,1.9989,1.9711,1.9909,2.0035,2.0035,2.0035,2.0035,2.0,1.9782,1.969,1.9711,1.9945,2.0035,2.007,2.0296,2.0227,2.0035,2.0035,1.9874,1.969,1.969,1.969,1.969,1.969,1.969,1.9747,1.9965,1.9617,1.8957,1.7984,1.7166,1.651,1.6159,1.6067,1.6123,1.6301,1.6191,1.6108,1.6301,1.6448,1.6892,1.7951,1.8306,1.8693,1.9617,1.9407,0.0,0.0,1.8612,1.8469,1.8604,1.8861,1.9035,1.915,1.9261,1.9335,1.9423,1.9663,1.9774,1.9695,2.0069,2.0205,2.0012,2.0197,2.0312,2.0312,1.9042,1.8388,1.8388,1.7542,1.6946,1.6561,1.6965,1.7138,1.7144,1.7175,1.7683,1.8523,1.8964,1.9457,1.9943,2.0311,2.0486,2.0543,2.0543,2.0565,2.0605,2.3595,2.3595,2.3595,2.3595,2.3595,2.3595,2.3595,2.3595,2.3595,2.3595,2.3595,2.3595,2.3595,2.3595,2.3266,2.2458,2.3131,2.3325,2.2727,2.2817,2.2892,2.2892,2.2413,2.2143,2.2143,2.2143,2.1814,2.1171,2.0768,2.0494,2.0343,2.076,2.0986,2.0986,2.0986,2.0986,2.0952,2.0466,2.0279,2.0264,2.0426,2.0449,2.0516,2.0862,2.0797,2.0449,2.0449,2.0261,2.0015,2.0015,2.0015,2.0015,2.0015,2.0015,2.007,2.0348,1.9857,1.9101,1.8431,1.7853,1.7311,1.6796,1.6546,1.6474,1.6738,1.6607,1.6474,1.6738,1.6995,1.7487,1.8473,1.8856,1.9387,2.0484,0.0,0.0,0.0,1.9101,1.877,1.8984,1.9035,1.9134,1.9274,1.9305,1.932,1.9365,1.965,1.9774,1.9707,2.0069,2.0233,2.0069,2.0233,2.0312,2.0312,1.9434,1.9004,1.8996,1.8311,1.7895,1.7722,1.7934,1.8037,1.8024,1.8091,1.8615,1.9439,1.9484,1.9909,2.0516,2.0516,2.0543,2.0605,2.0605,2.0605,2.0605,2.3595,2.3595,2.3595,2.3595,2.3595,2.3595,2.3595,2.3595,2.3595,2.3595,2.3595,2.3595,2.3595,2.3595,2.334,2.2697,2.3236,2.3325,2.2727,2.3206,2.3535,2.3535,2.349,2.346,2.346,2.346,2.3146,2.2532,2.2937,2.2824,2.2205,2.275,2.2996,2.2996,2.2996,2.2996,2.2948,2.2223,2.1901,2.1853,2.1214,2.0959,2.0959,2.1007,2.0959,2.0959,2.0959,2.0926,2.0894,2.0894,2.0894,2.0894,2.0894,2.0894,2.0894,2.0926,2.0894,2.0671,2.0001,1.885,1.785,1.7802,1.7268,1.6763,1.6789,1.6789,1.6763,1.6789,1.7587,1.8532,1.9293,2.0291,2.1042,2.1128,0.0,0.0,1.9421,1.9138,1.8966,1.9002,1.9166,1.9274,1.9289,1.9305,1.9365,1.9555,1.9713,1.9847,1.9954,2.0188,2.0285,2.0277,2.0285,2.0312,2.0312,1.9434,1.9004,1.8996,1.8927,1.8472,1.7722,1.8595,1.8991,1.8996,1.9064,1.9597,2.0404,2.0406,2.048,2.0586,2.0586,2.0605,2.0605,2.0605,2.0605,2.0586,2.3595,2.3595,2.3595,2.3595,2.3595,2.3595,2.3595,2.3595,2.3595,2.3595,2.3595,2.3595,2.3595,2.3595,2.3505,2.3266,2.346,2.349,2.3266,2.3475,2.3595,2.3595,2.3595,2.3595,2.3595,2.3512,2.3366,2.3136,2.3215,2.3163,2.2909,2.3381,2.3636,2.3636,2.3636,2.3636,2.3586,2.3006,2.2774,2.276,2.2232,2.2035,2.2034,2.1886,2.1615,2.1368,2.1368,2.1213,2.0991,2.0991,2.0991,2.0991,2.0991,2.0991,2.1055,2.1306,2.1584,2.1761,2.1479,2.0492,1.9421,1.9007,1.8669,1.8526,1.8724,1.8275,1.7976,1.8667,1.8743,1.8943,1.968,2.0144,2.0577,2.094,0.0,1.9991,2.0045,1.9539,1.9198,1.9198,1.9243,1.9305,1.9305,1.9305,1.938,1.9582,1.9713,1.9858,1.9984,2.0197,2.0312,2.0312,2.0312,2.0312,2.0312,1.9965,1.9812,1.9804,1.9812,1.9629,1.9323,1.9682,1.987,1.9914,1.9987,2.0187,2.051,2.0541,2.0585,2.0605,2.0605,2.0605,2.0605,2.0605,2.0565,2.0539,2.3595,2.3595,2.3595,2.3595,2.3595,2.3595,2.3595,2.3595,2.3595,2.3595,2.3595,2.3595,2.3595,2.3595,2.3595,2.3595,2.3752,2.3837,2.3837,2.3991,2.4032,2.3879,2.3991,2.4116,2.4116,2.4004,2.3967,2.3967,2.4056,2.4081,2.4081,2.4562,2.478,2.478,2.478,2.478,2.473,2.4197,2.3947,2.3915,2.3454,2.3266,2.3248,2.3068,2.2643,2.2172,2.2172,2.1826,2.1415,2.1415,2.1415,2.1415,2.1415,2.1415,2.1446,2.1735,2.2032,2.231,2.231,2.1692,2.0893,2.0217,1.985,1.971,1.9934,1.9446,1.911,1.9833,1.9807,1.9705,1.9951,2.0264,2.0538,2.0705,2.023,1.9951,2.0316,1.9756,1.9305,1.9305,1.9305,1.932,1.938,1.938,1.9467,1.9643,1.9797,1.9922,2.0097,2.0233,2.0312,2.0312,2.0304,2.0299,2.0299,2.0308,2.0308,2.0299,2.0299,2.0308,2.0327,2.0347,2.0398,2.0435,2.0508,2.0537,2.0539,2.0585,2.0586,2.0565,2.0565,2.0562,2.0539,2.0539,2.0511,2.0472,2.3595,2.3595,2.3595,2.3595,2.3595,2.3595,2.3595,2.3595,2.3595,2.3595,2.3595,2.3595,2.3595,2.3595,2.3595,2.3595,2.4116,2.4389,2.4389,2.491,2.4989,2.443,2.491,2.5221,2.5221,2.5205,2.5221,2.5221,2.5726,2.6013,2.6013,2.647,2.6691,2.6691,2.6691,2.6691,2.664,2.593,2.5609,2.5541,2.4797,2.4523,2.4523,2.4506,2.4036,2.3393,2.3393,2.2936,2.231,2.231,2.231,2.231,2.231,2.231,2.231,2.231,2.231,2.231,2.231,2.231,2.2124,2.138,2.0619,2.0018,2.0018,2.0002,2.0002,2.0018,2.0653,2.0967,2.0154,2.0831,2.127,2.0528,2.0247,2.0119,2.0119,1.9641,1.9323,1.9323,1.9323,1.938,1.9569,1.9596,1.9662,1.9778,1.9933,2.0078,2.0285,2.0312,2.0312,2.0312,2.0308,2.0294,2.0294,2.0299,2.0299,2.0294,2.0294,2.0332,2.0391,2.0475,2.0508,2.051,2.0565,2.0605,2.0605,2.0605,2.0563,2.0508,2.0508,2.047,2.041,2.041,2.041,2.0383,2.4074,2.3879,2.3724,2.4116,2.4158,2.4158,2.4158,2.4471,2.4592,2.4184,2.4158,2.4158,2.4158,2.4158,2.4307,2.4712,2.4871,2.495,2.495,2.5449,2.5689,2.554,2.5335,2.5221,2.5221,2.5577,2.5762,2.5762,2.6245,2.647,2.6505,2.6624,2.6691,2.6691,2.6691,2.6691,2.6674,2.6471,2.637,2.6302,2.5575,2.527,2.522,2.4678,2.4036,2.3393,2.3393,2.2936,2.231,2.231,2.231,2.231,2.231,2.231,2.231,2.231,2.231,2.231,2.231,2.231,2.226,2.204,2.1803,2.1589,2.1589,2.1211,2.0991,2.1515,2.1558,2.1411,2.1187,2.1551,2.1723,2.1197,2.1053,2.1079,2.1279,2.0634,2.0152,2.0152,1.9778,1.9527,1.9582,1.9682,1.9809,1.9943,2.0106,2.0241,2.0304,2.0294,2.0289,2.0289,2.0351,2.0366,2.0366,2.0366,2.0366,2.0366,2.0366,2.0414,2.0475,2.0484,2.0536,2.0565,2.0586,2.0565,2.0537,2.0537,2.0484,2.0432,2.0432,2.0422,2.041,2.041,2.0366,2.0322,2.5403,2.4885,2.4441,2.5033,2.4925,2.4712,2.4712,2.4989,2.5089,2.4752,2.4712,2.4806,2.513,2.5161,2.5392,2.6022,2.5992,2.6037,2.6225,2.627,2.6395,2.6678,2.6129,2.5783,2.5783,2.6104,2.6297,2.6297,2.6556,2.6691,2.6691,2.6691,2.6691,2.6691,2.6691,2.6691,2.6691,2.6691,2.6691,2.6657,2.6218,2.6048,2.5998,2.5524,2.4898,2.4272,2.4272,2.3613,2.275,2.275,2.2547,2.231,2.231,2.231,2.231,2.231,2.2388,2.2463,2.2463,2.2571,2.2677,2.2677,2.2497,2.2321,2.2409,2.2105,2.1969,2.2548,2.2442,2.2153,2.1855,2.2056,2.2085,2.1492,2.1497,2.1607,2.1785,2.1392,2.0979,2.0649,2.0378,2.0076,1.9788,1.9824,1.9943,2.0106,2.0233,2.0308,2.0306,2.0302,2.0305,2.0332,2.0395,2.0438,2.0438,2.0472,2.0472,2.0438,2.0438,2.0477,2.054,2.054,2.0546,2.0563,2.0563,2.0515,2.047,2.047,2.0425,2.0357,2.0357,2.0357,2.0355,2.0355,2.0326,2.0295,2.7186,2.6358,2.5605,2.6342,2.5908,2.549,2.549,2.5464,2.5448,2.5474,2.5388,2.5667,2.6374,2.6455,2.6752,2.7461,2.7306,2.7358,2.7874,2.7215,2.7131,2.7892,2.7199,2.6793,2.6793,2.6725,2.6691,2.6691,2.6691,2.6691,2.6691,2.6691,2.6691,2.6691,2.6691,2.6691,2.6691,2.6691,2.6691,2.6691,2.6691,2.6691,2.6691,2.6691,2.6234,2.5609,2.5609,2.4695,2.3477,2.3468,2.3011,2.2451,2.2394,2.2377,2.2377,2.2377,2.2554,2.2746,2.2746,2.2972,2.3189,2.3189,2.2798,2.2426,2.2686,2.2746,2.2822,2.3141,2.3212,2.3041,2.2353,2.2464,2.2413,2.1749,2.1862,2.2023,2.204,2.2073,2.1842,2.1119,2.1161,2.0933,2.0193,2.006,2.0106,2.0285,2.03,2.0306,2.0307,2.0305,2.0342,2.0414,2.0477,2.0511,2.0511,2.0565,2.0565,2.0511,2.0511,2.0541,2.0586,2.0586,2.0543,2.0484,2.0484,2.0444,2.0383,2.0383,2.0366,2.0301,2.0301,2.0308,2.0304,2.0277,2.0277,2.0241,2.7879,2.7445,2.7122,2.7699,2.7679,2.7564,2.7564,2.7367,2.7311,2.7536,2.7049,2.6984,2.7728,2.781,2.8031,2.8611,2.8031,2.7971,2.8687,2.801,2.7909,2.8704,2.7994,2.7571,2.7571,2.6996,2.6691,2.6691,2.6691,2.6691,2.6691,2.6691,2.6691,2.6691,2.6691,2.6691,2.6691,2.6691,2.6691,2.6691,2.6691,2.6691,2.6691,2.6691,2.6234,2.5609,2.5609,2.5017,2.4215,2.391,2.3684,2.3498,2.3125,2.2989,2.2989,2.2989,2.3063,2.3093,2.3093,2.3141,2.3189,2.3189,2.3111,2.3014,2.3069,2.3093,2.3117,2.3189,2.3414,2.3534,2.3372,2.3622,2.3783,2.3619,2.3639,2.3732,2.3889,2.3398,2.2989,2.2924,2.2526,2.1937,2.1089,2.0545,2.0249,2.0304,2.0301,2.0289,2.0307,2.041,2.045,2.0477,2.0541,2.0585,2.0585,2.0586,2.0586,2.0585,2.0585,2.0566,2.0515,2.0515,2.0482,2.0425,2.0425,2.0374,2.0316,2.0316,2.0308,2.0304,2.0304,2.0308,2.0277,2.0115,2.0069,2.005,2.9454,2.8849,2.8351,2.902,2.8824,2.859,2.859,2.8457,2.8429,2.8578,2.8256,2.8269,2.9042,2.9125,2.9353,3.0006,2.9347,2.9093,2.9499,2.8805,2.8721,2.9482,2.8789,2.8552,2.8907,2.7807,2.7046,2.6691,2.6691,2.6691,2.6691,2.6691,2.6691,2.6691,2.6691,2.6691,2.6691,2.6691,2.6691,2.6691,2.6691,2.6808,2.7004,2.7004,2.6764,2.6453,2.6623,2.6229,2.5524,2.4917,2.4708,2.4664,2.4403,2.4063,2.3779,2.3779,2.3608,2.3437,2.3437,2.3566,2.3671,2.3671,2.3671,2.3649,2.3459,2.3437,2.3482,2.3631,2.3816,2.3937,2.3937,2.4074,2.4228,2.4339,2.4339,2.4409,2.4607,2.4335,2.4001,2.3683,2.3449,2.2805,2.1531,2.1108,2.0745,2.0339,2.0319,2.0357,2.0383,2.045,2.0513,2.0541,2.0585,2.0605,2.0605,2.0605,2.0605,2.0605,2.0605,2.0585,2.0541,2.0513,2.045,2.0406,2.0361,2.0324,2.0308,2.0308,2.0299,2.0312,2.0312,2.0312,2.0285,2.0169,2.0041,1.989,3.0954,3.0209,2.955,3.0176,2.977,2.9364,2.9364,2.9245,2.9211,2.9347,2.9245,2.9465,3.0209,3.0294,3.0531,3.114,3.0531,3.0159,3.0294,2.9583,2.9516,3.026,2.9567,2.9465,3.0091,2.8738,2.7655,2.6894,2.6759,2.6691,2.6691,2.6826,2.6894,2.6894,2.7029,2.708,2.708,2.6945,2.6911,2.6961,2.6825,2.7051,2.7409,2.7409,2.7409,2.7457,2.7783,2.7518,2.6872,2.6134,2.5857,2.5864,2.579,2.5308,2.4748,2.4605,2.4284,2.3958,2.3831,2.3996,2.419,2.419,2.4228,2.419,2.3901,2.3798,2.3858,2.4151,2.419,2.4209,2.4228,2.4266,2.4321,2.4528,2.4543,2.4623,2.4799,2.4943,2.4762,2.4137,2.4081,2.3542,2.2095,2.1874,2.1481,2.0601,2.0608,2.0594,2.0506,2.0511,2.054,2.0605,2.0605,2.0605,2.0605,2.0586,2.0585,2.0585,2.0565,2.0564,2.0564,2.0506,2.0432,2.0376,2.0319,2.0308,2.0312,2.0312,2.0312,2.0304,2.0249,2.0241,2.0241,2.0199,1.9981,1.9695,3.1157,3.1038,3.092,3.1021,3.097,3.0886,3.0886,3.0362,3.0176,3.0818,3.0345,3.0226,3.097,3.1055,3.1089,3.119,3.0531,3.0378,3.1004,3.0362,3.0277,3.1021,3.0345,3.0006,3.0108,2.9262,2.845,2.7637,2.7012,2.6691,2.6708,2.7368,2.7637,2.7689,2.8366,2.8706,2.8619,2.796,2.7845,2.8109,2.7486,2.7439,2.7811,2.7811,2.7811,2.784,2.7869,2.7844,2.767,2.7143,2.6975,2.6916,2.6563,2.6395,2.6176,2.5463,2.523,2.5012,2.4334,2.417,2.419,2.419,2.4339,2.4444,2.4391,2.4266,2.4151,2.419,2.419,2.4247,2.4445,2.4461,2.4528,2.4731,2.476,2.4814,2.4949,2.4998,2.5019,2.509,2.4514,2.4039,2.3843,2.3166,2.2383,2.1569,2.1578,2.1286,2.0547,2.0543,2.0586,2.0605,2.0605,2.0605,2.0605,2.054,2.0513,2.0511,2.0447,2.0429,2.0429,2.0352,2.032,2.0311,2.0296,2.03,2.0312,2.0312,2.0312,2.0277,2.0115,2.0031,2.0003,1.9781,1.955,1.938,3.119,3.119,3.119,3.119,3.119,3.119,3.119,3.092,3.0835,3.1157,3.092,3.0835,3.1157,3.119,3.119,3.119,3.0903,3.0852,3.1173,3.0903,3.0852,3.119,3.0886,3.0717,3.0717,2.9989,2.9448,2.9093,2.8349,2.7977,2.7977,2.8315,2.8467,2.8484,2.8822,2.9121,2.9317,2.8956,2.907,2.9421,2.9119,2.9219,2.9572,2.9572,2.9267,2.8801,2.8327,2.8334,2.8478,2.8282,2.8221,2.8171,2.7999,2.764,2.72,2.6833,2.641,2.5988,2.564,2.5612,2.5597,2.5153,2.5183,2.5214,2.4764,2.4591,2.4545,2.4545,2.4545,2.4559,2.4654,2.467,2.4712,2.4891,2.4917,2.4968,2.5141,2.5163,2.5215,2.5337,2.5081,2.471,2.4305,2.3908,2.3354,2.2539,2.2507,2.2379,2.2028,2.1992,2.2012,2.2051,2.2028,2.177,2.1283,2.1199,2.0925,2.0438,2.039,2.0357,2.0406,2.0327,2.0308,2.0308,2.0296,2.0312,2.0285,2.0188,2.0124,2.0115,1.9943,1.989,1.9869,1.9669,1.9541,1.9456]}]]